<?xml version="1.0" encoding="UTF-8" standalone="no" ?>
<gpx xmlns="http://www.topografix.com/GPX/1/1" xmlns:xsi="http://www.w3.org/2001/XMLSchema-instance" xsi:schemaLocation="http://www.topografix.com/GPX/1/1 http://www.topografix.com/GPX/1/1/gpx.xsd" version="1.1" creator="VisuGPX - https://www.visugpx.com">
  <metadata>
    <name>Tracé actuel: 30 NOV 2019 13:23</name>
    <desc><![CDATA[vtt 30 novembre 2019]]></desc>
  </metadata>
  <trk>
    <name><![CDATA[Tracé actuel: 30 NOV 2019 13:23]]></name>
    <trkseg>
      <trkpt lat="43.43961" lon="5.86013">
        <ele>316.41</ele>
        <time>2019-11-30T12:23:47Z</time>
      </trkpt>
      <trkpt lat="43.43962" lon="5.86011">
        <ele>317.37</ele>
        <time>2019-11-30T12:23:52Z</time>
      </trkpt>
      <trkpt lat="43.43983" lon="5.86039">
        <ele>315.93</ele>
        <time>2019-11-30T12:26:41Z</time>
      </trkpt>
      <trkpt lat="43.43974" lon="5.86029">
        <ele>319.3</ele>
        <time>2019-11-30T12:26:55Z</time>
      </trkpt>
      <trkpt lat="43.43979" lon="5.86033">
        <ele>323.14</ele>
        <time>2019-11-30T12:27:00Z</time>
      </trkpt>
      <trkpt lat="43.4398" lon="5.86033">
        <ele>323.14</ele>
        <time>2019-11-30T12:27:01Z</time>
      </trkpt>
      <trkpt lat="43.4398" lon="5.86034">
        <ele>324.58</ele>
        <time>2019-11-30T12:27:03Z</time>
      </trkpt>
      <trkpt lat="43.4398" lon="5.86034">
        <ele>327.95</ele>
        <time>2019-11-30T12:27:07Z</time>
      </trkpt>
      <trkpt lat="43.43977" lon="5.86031">
        <ele>331.31</ele>
        <time>2019-11-30T12:27:11Z</time>
      </trkpt>
      <trkpt lat="43.43974" lon="5.8603">
        <ele>334.68</ele>
        <time>2019-11-30T12:27:16Z</time>
      </trkpt>
      <trkpt lat="43.43976" lon="5.86029">
        <ele>336.12</ele>
        <time>2019-11-30T12:27:19Z</time>
      </trkpt>
      <trkpt lat="43.4398" lon="5.86022">
        <ele>337.56</ele>
        <time>2019-11-30T12:27:22Z</time>
      </trkpt>
      <trkpt lat="43.43982" lon="5.86021">
        <ele>338.04</ele>
        <time>2019-11-30T12:27:23Z</time>
      </trkpt>
      <trkpt lat="43.43983" lon="5.8602">
        <ele>338.52</ele>
        <time>2019-11-30T12:27:25Z</time>
      </trkpt>
      <trkpt lat="43.43981" lon="5.86017">
        <ele>339</ele>
        <time>2019-11-30T12:27:26Z</time>
      </trkpt>
      <trkpt lat="43.43975" lon="5.8601">
        <ele>339</ele>
        <time>2019-11-30T12:27:28Z</time>
      </trkpt>
      <trkpt lat="43.43937" lon="5.8598">
        <ele>339</ele>
        <time>2019-11-30T12:27:35Z</time>
      </trkpt>
      <trkpt lat="43.43931" lon="5.85976">
        <ele>339</ele>
        <time>2019-11-30T12:27:36Z</time>
      </trkpt>
      <trkpt lat="43.43925" lon="5.85974">
        <ele>339</ele>
        <time>2019-11-30T12:27:37Z</time>
      </trkpt>
      <trkpt lat="43.43917" lon="5.85974">
        <ele>339</ele>
        <time>2019-11-30T12:27:38Z</time>
      </trkpt>
      <trkpt lat="43.43912" lon="5.85976">
        <ele>339</ele>
        <time>2019-11-30T12:27:39Z</time>
      </trkpt>
      <trkpt lat="43.43911" lon="5.85984">
        <ele>339</ele>
        <time>2019-11-30T12:27:40Z</time>
      </trkpt>
      <trkpt lat="43.43917" lon="5.86051">
        <ele>338.04</ele>
        <time>2019-11-30T12:27:45Z</time>
      </trkpt>
      <trkpt lat="43.43931" lon="5.86097">
        <ele>338.04</ele>
        <time>2019-11-30T12:27:49Z</time>
      </trkpt>
      <trkpt lat="43.43957" lon="5.86221">
        <ele>336.6</ele>
        <time>2019-11-30T12:28:00Z</time>
      </trkpt>
      <trkpt lat="43.43963" lon="5.86236">
        <ele>335.16</ele>
        <time>2019-11-30T12:28:02Z</time>
      </trkpt>
      <trkpt lat="43.43966" lon="5.86241">
        <ele>335.16</ele>
        <time>2019-11-30T12:28:03Z</time>
      </trkpt>
      <trkpt lat="43.43967" lon="5.86244">
        <ele>335.64</ele>
        <time>2019-11-30T12:28:04Z</time>
      </trkpt>
      <trkpt lat="43.43972" lon="5.86249">
        <ele>336.12</ele>
        <time>2019-11-30T12:28:05Z</time>
      </trkpt>
      <trkpt lat="43.44002" lon="5.86258">
        <ele>337.56</ele>
        <time>2019-11-30T12:28:07Z</time>
      </trkpt>
      <trkpt lat="43.44071" lon="5.86267">
        <ele>341.41</ele>
        <time>2019-11-30T12:28:13Z</time>
      </trkpt>
      <trkpt lat="43.4411" lon="5.86262">
        <ele>344.77</ele>
        <time>2019-11-30T12:28:18Z</time>
      </trkpt>
      <trkpt lat="43.4418" lon="5.86249">
        <ele>348.13</ele>
        <time>2019-11-30T12:28:27Z</time>
      </trkpt>
      <trkpt lat="43.44297" lon="5.862">
        <ele>349.1</ele>
        <time>2019-11-30T12:28:43Z</time>
      </trkpt>
      <trkpt lat="43.44323" lon="5.86184">
        <ele>349.1</ele>
        <time>2019-11-30T12:28:47Z</time>
      </trkpt>
      <trkpt lat="43.44329" lon="5.86177">
        <ele>349.1</ele>
        <time>2019-11-30T12:28:48Z</time>
      </trkpt>
      <trkpt lat="43.44347" lon="5.86155">
        <ele>347.65</ele>
        <time>2019-11-30T12:28:51Z</time>
      </trkpt>
      <trkpt lat="43.44378" lon="5.86092">
        <ele>344.29</ele>
        <time>2019-11-30T12:28:58Z</time>
      </trkpt>
      <trkpt lat="43.44401" lon="5.85991">
        <ele>341.89</ele>
        <time>2019-11-30T12:29:08Z</time>
      </trkpt>
      <trkpt lat="43.44413" lon="5.85956">
        <ele>341.41</ele>
        <time>2019-11-30T12:29:13Z</time>
      </trkpt>
      <trkpt lat="43.44416" lon="5.85951">
        <ele>341.41</ele>
        <time>2019-11-30T12:29:14Z</time>
      </trkpt>
      <trkpt lat="43.4442" lon="5.85947">
        <ele>341.41</ele>
        <time>2019-11-30T12:29:15Z</time>
      </trkpt>
      <trkpt lat="43.44426" lon="5.85945">
        <ele>341.41</ele>
        <time>2019-11-30T12:29:16Z</time>
      </trkpt>
      <trkpt lat="43.44432" lon="5.85945">
        <ele>341.41</ele>
        <time>2019-11-30T12:29:17Z</time>
      </trkpt>
      <trkpt lat="43.44438" lon="5.85946">
        <ele>341.41</ele>
        <time>2019-11-30T12:29:18Z</time>
      </trkpt>
      <trkpt lat="43.44444" lon="5.85949">
        <ele>341.41</ele>
        <time>2019-11-30T12:29:19Z</time>
      </trkpt>
      <trkpt lat="43.44537" lon="5.85985">
        <ele>339</ele>
        <time>2019-11-30T12:29:31Z</time>
      </trkpt>
      <trkpt lat="43.44624" lon="5.86016">
        <ele>335.64</ele>
        <time>2019-11-30T12:29:42Z</time>
      </trkpt>
      <trkpt lat="43.44631" lon="5.86017">
        <ele>335.64</ele>
        <time>2019-11-30T12:29:43Z</time>
      </trkpt>
      <trkpt lat="43.44638" lon="5.86014">
        <ele>335.16</ele>
        <time>2019-11-30T12:29:44Z</time>
      </trkpt>
      <trkpt lat="43.44643" lon="5.86007">
        <ele>335.16</ele>
        <time>2019-11-30T12:29:45Z</time>
      </trkpt>
      <trkpt lat="43.44647" lon="5.86001">
        <ele>335.16</ele>
        <time>2019-11-30T12:29:46Z</time>
      </trkpt>
      <trkpt lat="43.4465" lon="5.85992">
        <ele>335.16</ele>
        <time>2019-11-30T12:29:47Z</time>
      </trkpt>
      <trkpt lat="43.44652" lon="5.85985">
        <ele>335.16</ele>
        <time>2019-11-30T12:29:48Z</time>
      </trkpt>
      <trkpt lat="43.44653" lon="5.85977">
        <ele>335.16</ele>
        <time>2019-11-30T12:29:49Z</time>
      </trkpt>
      <trkpt lat="43.44651" lon="5.85968">
        <ele>335.16</ele>
        <time>2019-11-30T12:29:50Z</time>
      </trkpt>
      <trkpt lat="43.44647" lon="5.85959">
        <ele>335.16</ele>
        <time>2019-11-30T12:29:51Z</time>
      </trkpt>
      <trkpt lat="43.44645" lon="5.85956">
        <ele>335.16</ele>
        <time>2019-11-30T12:29:52Z</time>
      </trkpt>
      <trkpt lat="43.4464" lon="5.85951">
        <ele>335.16</ele>
        <time>2019-11-30T12:29:53Z</time>
      </trkpt>
      <trkpt lat="43.44627" lon="5.85937">
        <ele>334.68</ele>
        <time>2019-11-30T12:29:56Z</time>
      </trkpt>
      <trkpt lat="43.44585" lon="5.85867">
        <ele>335.64</ele>
        <time>2019-11-30T12:30:09Z</time>
      </trkpt>
      <trkpt lat="43.44568" lon="5.85834">
        <ele>335.64</ele>
        <time>2019-11-30T12:30:15Z</time>
      </trkpt>
      <trkpt lat="43.44566" lon="5.85828">
        <ele>335.64</ele>
        <time>2019-11-30T12:30:16Z</time>
      </trkpt>
      <trkpt lat="43.44565" lon="5.85822">
        <ele>336.12</ele>
        <time>2019-11-30T12:30:17Z</time>
      </trkpt>
      <trkpt lat="43.44563" lon="5.85816">
        <ele>336.12</ele>
        <time>2019-11-30T12:30:18Z</time>
      </trkpt>
      <trkpt lat="43.44561" lon="5.8581">
        <ele>336.12</ele>
        <time>2019-11-30T12:30:19Z</time>
      </trkpt>
      <trkpt lat="43.44536" lon="5.85773">
        <ele>339</ele>
        <time>2019-11-30T12:30:29Z</time>
      </trkpt>
      <trkpt lat="43.44494" lon="5.85732">
        <ele>340.44</ele>
        <time>2019-11-30T12:30:43Z</time>
      </trkpt>
      <trkpt lat="43.44484" lon="5.85698">
        <ele>342.37</ele>
        <time>2019-11-30T12:30:53Z</time>
      </trkpt>
      <trkpt lat="43.44487" lon="5.8566">
        <ele>342.37</ele>
        <time>2019-11-30T12:31:08Z</time>
      </trkpt>
      <trkpt lat="43.44487" lon="5.85645">
        <ele>341.89</ele>
        <time>2019-11-30T12:31:13Z</time>
      </trkpt>
      <trkpt lat="43.44488" lon="5.85642">
        <ele>342.37</ele>
        <time>2019-11-30T12:31:14Z</time>
      </trkpt>
      <trkpt lat="43.44489" lon="5.85641">
        <ele>342.37</ele>
        <time>2019-11-30T12:31:15Z</time>
      </trkpt>
      <trkpt lat="43.44491" lon="5.8564">
        <ele>342.37</ele>
        <time>2019-11-30T12:31:16Z</time>
      </trkpt>
      <trkpt lat="43.44492" lon="5.8564">
        <ele>342.85</ele>
        <time>2019-11-30T12:31:17Z</time>
      </trkpt>
      <trkpt lat="43.44494" lon="5.85639">
        <ele>343.33</ele>
        <time>2019-11-30T12:31:18Z</time>
      </trkpt>
      <trkpt lat="43.44495" lon="5.85638">
        <ele>343.81</ele>
        <time>2019-11-30T12:31:19Z</time>
      </trkpt>
      <trkpt lat="43.44497" lon="5.85637">
        <ele>344.29</ele>
        <time>2019-11-30T12:31:20Z</time>
      </trkpt>
      <trkpt lat="43.44498" lon="5.85636">
        <ele>345.25</ele>
        <time>2019-11-30T12:31:21Z</time>
      </trkpt>
      <trkpt lat="43.44499" lon="5.85636">
        <ele>345.25</ele>
        <time>2019-11-30T12:31:22Z</time>
      </trkpt>
      <trkpt lat="43.44499" lon="5.85629">
        <ele>345.73</ele>
        <time>2019-11-30T12:31:35Z</time>
      </trkpt>
      <trkpt lat="43.44509" lon="5.8563">
        <ele>346.21</ele>
        <time>2019-11-30T12:31:56Z</time>
      </trkpt>
      <trkpt lat="43.44514" lon="5.85637">
        <ele>345.25</ele>
        <time>2019-11-30T12:32:31Z</time>
      </trkpt>
      <trkpt lat="43.44515" lon="5.85638">
        <ele>345.25</ele>
        <time>2019-11-30T12:32:59Z</time>
      </trkpt>
      <trkpt lat="43.44514" lon="5.85637">
        <ele>344.77</ele>
        <time>2019-11-30T12:33:40Z</time>
      </trkpt>
      <trkpt lat="43.44514" lon="5.85639">
        <ele>344.29</ele>
        <time>2019-11-30T12:34:07Z</time>
      </trkpt>
      <trkpt lat="43.44513" lon="5.85641">
        <ele>344.29</ele>
        <time>2019-11-30T12:34:23Z</time>
      </trkpt>
      <trkpt lat="43.44512" lon="5.8564">
        <ele>343.81</ele>
        <time>2019-11-30T12:34:39Z</time>
      </trkpt>
      <trkpt lat="43.44502" lon="5.8564">
        <ele>340.44</ele>
        <time>2019-11-30T12:34:43Z</time>
      </trkpt>
      <trkpt lat="43.44497" lon="5.85644">
        <ele>339.96</ele>
        <time>2019-11-30T12:34:45Z</time>
      </trkpt>
      <trkpt lat="43.44483" lon="5.8569">
        <ele>339.48</ele>
        <time>2019-11-30T12:34:59Z</time>
      </trkpt>
      <trkpt lat="43.44491" lon="5.85721">
        <ele>338.04</ele>
        <time>2019-11-30T12:35:06Z</time>
      </trkpt>
      <trkpt lat="43.44551" lon="5.85788">
        <ele>335.16</ele>
        <time>2019-11-30T12:35:21Z</time>
      </trkpt>
      <trkpt lat="43.44555" lon="5.85793">
        <ele>334.2</ele>
        <time>2019-11-30T12:35:22Z</time>
      </trkpt>
      <trkpt lat="43.44558" lon="5.85799">
        <ele>333.71</ele>
        <time>2019-11-30T12:35:23Z</time>
      </trkpt>
      <trkpt lat="43.44569" lon="5.85827">
        <ele>332.75</ele>
        <time>2019-11-30T12:35:27Z</time>
      </trkpt>
      <trkpt lat="43.44571" lon="5.85834">
        <ele>332.75</ele>
        <time>2019-11-30T12:35:28Z</time>
      </trkpt>
      <trkpt lat="43.44574" lon="5.8584">
        <ele>332.27</ele>
        <time>2019-11-30T12:35:29Z</time>
      </trkpt>
      <trkpt lat="43.44607" lon="5.85903">
        <ele>331.79</ele>
        <time>2019-11-30T12:35:40Z</time>
      </trkpt>
      <trkpt lat="43.44649" lon="5.85961">
        <ele>330.83</ele>
        <time>2019-11-30T12:35:54Z</time>
      </trkpt>
      <trkpt lat="43.44651" lon="5.85964">
        <ele>330.83</ele>
        <time>2019-11-30T12:35:55Z</time>
      </trkpt>
      <trkpt lat="43.44653" lon="5.85967">
        <ele>330.83</ele>
        <time>2019-11-30T12:35:56Z</time>
      </trkpt>
      <trkpt lat="43.44654" lon="5.85972">
        <ele>330.83</ele>
        <time>2019-11-30T12:35:57Z</time>
      </trkpt>
      <trkpt lat="43.44653" lon="5.85976">
        <ele>330.83</ele>
        <time>2019-11-30T12:35:58Z</time>
      </trkpt>
      <trkpt lat="43.44653" lon="5.8598">
        <ele>330.83</ele>
        <time>2019-11-30T12:35:59Z</time>
      </trkpt>
      <trkpt lat="43.44652" lon="5.85984">
        <ele>330.83</ele>
        <time>2019-11-30T12:36:00Z</time>
      </trkpt>
      <trkpt lat="43.44648" lon="5.86005">
        <ele>330.35</ele>
        <time>2019-11-30T12:36:11Z</time>
      </trkpt>
      <trkpt lat="43.44649" lon="5.86007">
        <ele>330.35</ele>
        <time>2019-11-30T12:36:29Z</time>
      </trkpt>
      <trkpt lat="43.4465" lon="5.86009">
        <ele>329.87</ele>
        <time>2019-11-30T12:36:39Z</time>
      </trkpt>
      <trkpt lat="43.44649" lon="5.86011">
        <ele>329.87</ele>
        <time>2019-11-30T12:36:40Z</time>
      </trkpt>
      <trkpt lat="43.44649" lon="5.86013">
        <ele>329.87</ele>
        <time>2019-11-30T12:36:41Z</time>
      </trkpt>
      <trkpt lat="43.44647" lon="5.86023">
        <ele>329.87</ele>
        <time>2019-11-30T12:36:44Z</time>
      </trkpt>
      <trkpt lat="43.44648" lon="5.86026">
        <ele>329.87</ele>
        <time>2019-11-30T12:36:45Z</time>
      </trkpt>
      <trkpt lat="43.4465" lon="5.86028">
        <ele>329.39</ele>
        <time>2019-11-30T12:36:46Z</time>
      </trkpt>
      <trkpt lat="43.44653" lon="5.86029">
        <ele>329.39</ele>
        <time>2019-11-30T12:36:47Z</time>
      </trkpt>
      <trkpt lat="43.44657" lon="5.86031">
        <ele>329.39</ele>
        <time>2019-11-30T12:36:48Z</time>
      </trkpt>
      <trkpt lat="43.44662" lon="5.86033">
        <ele>329.39</ele>
        <time>2019-11-30T12:36:49Z</time>
      </trkpt>
      <trkpt lat="43.44667" lon="5.86036">
        <ele>329.39</ele>
        <time>2019-11-30T12:36:50Z</time>
      </trkpt>
      <trkpt lat="43.44671" lon="5.86038">
        <ele>328.91</ele>
        <time>2019-11-30T12:36:51Z</time>
      </trkpt>
      <trkpt lat="43.44777" lon="5.86078">
        <ele>326.5</ele>
        <time>2019-11-30T12:37:10Z</time>
      </trkpt>
      <trkpt lat="43.44783" lon="5.86079">
        <ele>326.5</ele>
        <time>2019-11-30T12:37:11Z</time>
      </trkpt>
      <trkpt lat="43.44807" lon="5.86079">
        <ele>326.02</ele>
        <time>2019-11-30T12:37:15Z</time>
      </trkpt>
      <trkpt lat="43.44812" lon="5.86083">
        <ele>325.06</ele>
        <time>2019-11-30T12:37:16Z</time>
      </trkpt>
      <trkpt lat="43.44817" lon="5.86088">
        <ele>325.06</ele>
        <time>2019-11-30T12:37:17Z</time>
      </trkpt>
      <trkpt lat="43.44819" lon="5.86093">
        <ele>325.06</ele>
        <time>2019-11-30T12:37:18Z</time>
      </trkpt>
      <trkpt lat="43.44819" lon="5.86099">
        <ele>325.06</ele>
        <time>2019-11-30T12:37:19Z</time>
      </trkpt>
      <trkpt lat="43.44818" lon="5.86104">
        <ele>325.06</ele>
        <time>2019-11-30T12:37:20Z</time>
      </trkpt>
      <trkpt lat="43.44816" lon="5.86108">
        <ele>325.06</ele>
        <time>2019-11-30T12:37:21Z</time>
      </trkpt>
      <trkpt lat="43.44814" lon="5.86119">
        <ele>325.06</ele>
        <time>2019-11-30T12:37:29Z</time>
      </trkpt>
      <trkpt lat="43.44813" lon="5.8612">
        <ele>325.06</ele>
        <time>2019-11-30T12:37:33Z</time>
      </trkpt>
      <trkpt lat="43.44813" lon="5.86122">
        <ele>325.06</ele>
        <time>2019-11-30T12:37:34Z</time>
      </trkpt>
      <trkpt lat="43.44812" lon="5.86124">
        <ele>325.06</ele>
        <time>2019-11-30T12:37:35Z</time>
      </trkpt>
      <trkpt lat="43.44812" lon="5.86126">
        <ele>325.06</ele>
        <time>2019-11-30T12:37:36Z</time>
      </trkpt>
      <trkpt lat="43.44824" lon="5.86126">
        <ele>325.06</ele>
        <time>2019-11-30T12:37:42Z</time>
      </trkpt>
      <trkpt lat="43.44827" lon="5.86125">
        <ele>325.06</ele>
        <time>2019-11-30T12:37:43Z</time>
      </trkpt>
      <trkpt lat="43.4483" lon="5.86127">
        <ele>325.06</ele>
        <time>2019-11-30T12:37:44Z</time>
      </trkpt>
      <trkpt lat="43.44832" lon="5.8613">
        <ele>325.06</ele>
        <time>2019-11-30T12:37:45Z</time>
      </trkpt>
      <trkpt lat="43.44833" lon="5.86134">
        <ele>325.06</ele>
        <time>2019-11-30T12:37:46Z</time>
      </trkpt>
      <trkpt lat="43.44833" lon="5.86138">
        <ele>325.06</ele>
        <time>2019-11-30T12:37:47Z</time>
      </trkpt>
      <trkpt lat="43.44833" lon="5.86141">
        <ele>325.06</ele>
        <time>2019-11-30T12:37:48Z</time>
      </trkpt>
      <trkpt lat="43.44832" lon="5.86144">
        <ele>325.06</ele>
        <time>2019-11-30T12:37:49Z</time>
      </trkpt>
      <trkpt lat="43.44831" lon="5.86147">
        <ele>325.06</ele>
        <time>2019-11-30T12:37:50Z</time>
      </trkpt>
      <trkpt lat="43.44829" lon="5.86151">
        <ele>325.06</ele>
        <time>2019-11-30T12:37:51Z</time>
      </trkpt>
      <trkpt lat="43.44828" lon="5.86154">
        <ele>325.06</ele>
        <time>2019-11-30T12:37:52Z</time>
      </trkpt>
      <trkpt lat="43.44826" lon="5.86158">
        <ele>325.06</ele>
        <time>2019-11-30T12:37:53Z</time>
      </trkpt>
      <trkpt lat="43.44805" lon="5.8619">
        <ele>325.06</ele>
        <time>2019-11-30T12:38:02Z</time>
      </trkpt>
      <trkpt lat="43.44804" lon="5.86194">
        <ele>325.06</ele>
        <time>2019-11-30T12:38:03Z</time>
      </trkpt>
      <trkpt lat="43.44804" lon="5.86199">
        <ele>325.06</ele>
        <time>2019-11-30T12:38:04Z</time>
      </trkpt>
      <trkpt lat="43.44806" lon="5.86203">
        <ele>324.58</ele>
        <time>2019-11-30T12:38:05Z</time>
      </trkpt>
      <trkpt lat="43.44807" lon="5.86207">
        <ele>324.58</ele>
        <time>2019-11-30T12:38:06Z</time>
      </trkpt>
      <trkpt lat="43.4481" lon="5.86211">
        <ele>324.58</ele>
        <time>2019-11-30T12:38:07Z</time>
      </trkpt>
      <trkpt lat="43.44812" lon="5.86216">
        <ele>324.58</ele>
        <time>2019-11-30T12:38:08Z</time>
      </trkpt>
      <trkpt lat="43.44816" lon="5.8622">
        <ele>324.58</ele>
        <time>2019-11-30T12:38:09Z</time>
      </trkpt>
      <trkpt lat="43.44819" lon="5.86224">
        <ele>324.58</ele>
        <time>2019-11-30T12:38:10Z</time>
      </trkpt>
      <trkpt lat="43.44823" lon="5.86229">
        <ele>324.58</ele>
        <time>2019-11-30T12:38:11Z</time>
      </trkpt>
      <trkpt lat="43.44826" lon="5.86234">
        <ele>324.58</ele>
        <time>2019-11-30T12:38:12Z</time>
      </trkpt>
      <trkpt lat="43.44839" lon="5.86253">
        <ele>323.14</ele>
        <time>2019-11-30T12:38:16Z</time>
      </trkpt>
      <trkpt lat="43.44842" lon="5.86259">
        <ele>323.14</ele>
        <time>2019-11-30T12:38:17Z</time>
      </trkpt>
      <trkpt lat="43.44847" lon="5.86271">
        <ele>322.66</ele>
        <time>2019-11-30T12:38:19Z</time>
      </trkpt>
      <trkpt lat="43.44849" lon="5.86278">
        <ele>322.18</ele>
        <time>2019-11-30T12:38:20Z</time>
      </trkpt>
      <trkpt lat="43.4485" lon="5.86285">
        <ele>322.18</ele>
        <time>2019-11-30T12:38:21Z</time>
      </trkpt>
      <trkpt lat="43.44854" lon="5.86291">
        <ele>321.7</ele>
        <time>2019-11-30T12:38:22Z</time>
      </trkpt>
      <trkpt lat="43.44856" lon="5.86294">
        <ele>321.7</ele>
        <time>2019-11-30T12:38:23Z</time>
      </trkpt>
      <trkpt lat="43.4486" lon="5.86299">
        <ele>321.7</ele>
        <time>2019-11-30T12:38:24Z</time>
      </trkpt>
      <trkpt lat="43.44864" lon="5.86304">
        <ele>321.7</ele>
        <time>2019-11-30T12:38:25Z</time>
      </trkpt>
      <trkpt lat="43.44871" lon="5.86314">
        <ele>321.7</ele>
        <time>2019-11-30T12:38:27Z</time>
      </trkpt>
      <trkpt lat="43.44875" lon="5.86319">
        <ele>321.7</ele>
        <time>2019-11-30T12:38:28Z</time>
      </trkpt>
      <trkpt lat="43.44893" lon="5.86333">
        <ele>321.22</ele>
        <time>2019-11-30T12:38:32Z</time>
      </trkpt>
      <trkpt lat="43.44896" lon="5.86337">
        <ele>321.22</ele>
        <time>2019-11-30T12:38:33Z</time>
      </trkpt>
      <trkpt lat="43.449" lon="5.86342">
        <ele>320.26</ele>
        <time>2019-11-30T12:38:34Z</time>
      </trkpt>
      <trkpt lat="43.44904" lon="5.86346">
        <ele>320.26</ele>
        <time>2019-11-30T12:38:35Z</time>
      </trkpt>
      <trkpt lat="43.44909" lon="5.86349">
        <ele>320.26</ele>
        <time>2019-11-30T12:38:36Z</time>
      </trkpt>
      <trkpt lat="43.44914" lon="5.86352">
        <ele>320.26</ele>
        <time>2019-11-30T12:38:37Z</time>
      </trkpt>
      <trkpt lat="43.44974" lon="5.86389">
        <ele>318.81</ele>
        <time>2019-11-30T12:38:50Z</time>
      </trkpt>
      <trkpt lat="43.44978" lon="5.86394">
        <ele>318.81</ele>
        <time>2019-11-30T12:38:51Z</time>
      </trkpt>
      <trkpt lat="43.44982" lon="5.86399">
        <ele>318.33</ele>
        <time>2019-11-30T12:38:52Z</time>
      </trkpt>
      <trkpt lat="43.44984" lon="5.86405">
        <ele>318.33</ele>
        <time>2019-11-30T12:38:53Z</time>
      </trkpt>
      <trkpt lat="43.44992" lon="5.86425">
        <ele>318.33</ele>
        <time>2019-11-30T12:38:56Z</time>
      </trkpt>
      <trkpt lat="43.45002" lon="5.86442">
        <ele>318.33</ele>
        <time>2019-11-30T12:38:59Z</time>
      </trkpt>
      <trkpt lat="43.45006" lon="5.86448">
        <ele>318.33</ele>
        <time>2019-11-30T12:39:00Z</time>
      </trkpt>
      <trkpt lat="43.45056" lon="5.86513">
        <ele>316.89</ele>
        <time>2019-11-30T12:39:12Z</time>
      </trkpt>
      <trkpt lat="43.45105" lon="5.86552">
        <ele>314.97</ele>
        <time>2019-11-30T12:39:22Z</time>
      </trkpt>
      <trkpt lat="43.45109" lon="5.86558">
        <ele>314.97</ele>
        <time>2019-11-30T12:39:23Z</time>
      </trkpt>
      <trkpt lat="43.45113" lon="5.86564">
        <ele>314.49</ele>
        <time>2019-11-30T12:39:24Z</time>
      </trkpt>
      <trkpt lat="43.45116" lon="5.86571">
        <ele>314.49</ele>
        <time>2019-11-30T12:39:25Z</time>
      </trkpt>
      <trkpt lat="43.45119" lon="5.86579">
        <ele>314.49</ele>
        <time>2019-11-30T12:39:26Z</time>
      </trkpt>
      <trkpt lat="43.45121" lon="5.86586">
        <ele>314.01</ele>
        <time>2019-11-30T12:39:27Z</time>
      </trkpt>
      <trkpt lat="43.45123" lon="5.86594">
        <ele>314.01</ele>
        <time>2019-11-30T12:39:28Z</time>
      </trkpt>
      <trkpt lat="43.45125" lon="5.86602">
        <ele>314.01</ele>
        <time>2019-11-30T12:39:29Z</time>
      </trkpt>
      <trkpt lat="43.45126" lon="5.86612">
        <ele>314.01</ele>
        <time>2019-11-30T12:39:30Z</time>
      </trkpt>
      <trkpt lat="43.45126" lon="5.86622">
        <ele>314.01</ele>
        <time>2019-11-30T12:39:31Z</time>
      </trkpt>
      <trkpt lat="43.45125" lon="5.86628">
        <ele>314.01</ele>
        <time>2019-11-30T12:39:32Z</time>
      </trkpt>
      <trkpt lat="43.45123" lon="5.86635">
        <ele>314.01</ele>
        <time>2019-11-30T12:39:33Z</time>
      </trkpt>
      <trkpt lat="43.4512" lon="5.86643">
        <ele>314.01</ele>
        <time>2019-11-30T12:39:34Z</time>
      </trkpt>
      <trkpt lat="43.45117" lon="5.86649">
        <ele>314.01</ele>
        <time>2019-11-30T12:39:35Z</time>
      </trkpt>
      <trkpt lat="43.45114" lon="5.86656">
        <ele>314.01</ele>
        <time>2019-11-30T12:39:36Z</time>
      </trkpt>
      <trkpt lat="43.45054" lon="5.86754">
        <ele>313.53</ele>
        <time>2019-11-30T12:39:54Z</time>
      </trkpt>
      <trkpt lat="43.45013" lon="5.86808">
        <ele>314.97</ele>
        <time>2019-11-30T12:40:07Z</time>
      </trkpt>
      <trkpt lat="43.44982" lon="5.86862">
        <ele>316.89</ele>
        <time>2019-11-30T12:40:21Z</time>
      </trkpt>
      <trkpt lat="43.44971" lon="5.86915">
        <ele>315.45</ele>
        <time>2019-11-30T12:40:29Z</time>
      </trkpt>
      <trkpt lat="43.44969" lon="5.86936">
        <ele>314.97</ele>
        <time>2019-11-30T12:40:32Z</time>
      </trkpt>
      <trkpt lat="43.44969" lon="5.86943">
        <ele>314.97</ele>
        <time>2019-11-30T12:40:33Z</time>
      </trkpt>
      <trkpt lat="43.4497" lon="5.8695">
        <ele>314.97</ele>
        <time>2019-11-30T12:40:34Z</time>
      </trkpt>
      <trkpt lat="43.44975" lon="5.8698">
        <ele>314.49</ele>
        <time>2019-11-30T12:40:39Z</time>
      </trkpt>
      <trkpt lat="43.44982" lon="5.87015">
        <ele>313.05</ele>
        <time>2019-11-30T12:40:45Z</time>
      </trkpt>
      <trkpt lat="43.44982" lon="5.87021">
        <ele>312.09</ele>
        <time>2019-11-30T12:40:46Z</time>
      </trkpt>
      <trkpt lat="43.44981" lon="5.87027">
        <ele>312.09</ele>
        <time>2019-11-30T12:40:47Z</time>
      </trkpt>
      <trkpt lat="43.44979" lon="5.87033">
        <ele>312.09</ele>
        <time>2019-11-30T12:40:48Z</time>
      </trkpt>
      <trkpt lat="43.44976" lon="5.87038">
        <ele>311.6</ele>
        <time>2019-11-30T12:40:49Z</time>
      </trkpt>
      <trkpt lat="43.44973" lon="5.87042">
        <ele>311.6</ele>
        <time>2019-11-30T12:40:50Z</time>
      </trkpt>
      <trkpt lat="43.44968" lon="5.87045">
        <ele>311.6</ele>
        <time>2019-11-30T12:40:51Z</time>
      </trkpt>
      <trkpt lat="43.44964" lon="5.87049">
        <ele>311.6</ele>
        <time>2019-11-30T12:40:52Z</time>
      </trkpt>
      <trkpt lat="43.44921" lon="5.87079">
        <ele>310.64</ele>
        <time>2019-11-30T12:41:01Z</time>
      </trkpt>
      <trkpt lat="43.44917" lon="5.87084">
        <ele>310.64</ele>
        <time>2019-11-30T12:41:02Z</time>
      </trkpt>
      <trkpt lat="43.44915" lon="5.87089">
        <ele>310.64</ele>
        <time>2019-11-30T12:41:03Z</time>
      </trkpt>
      <trkpt lat="43.44913" lon="5.87095">
        <ele>310.64</ele>
        <time>2019-11-30T12:41:04Z</time>
      </trkpt>
      <trkpt lat="43.44912" lon="5.87101">
        <ele>310.64</ele>
        <time>2019-11-30T12:41:05Z</time>
      </trkpt>
      <trkpt lat="43.44911" lon="5.87108">
        <ele>310.64</ele>
        <time>2019-11-30T12:41:06Z</time>
      </trkpt>
      <trkpt lat="43.44901" lon="5.87213">
        <ele>309.68</ele>
        <time>2019-11-30T12:41:20Z</time>
      </trkpt>
      <trkpt lat="43.44892" lon="5.87254">
        <ele>309.68</ele>
        <time>2019-11-30T12:41:27Z</time>
      </trkpt>
      <trkpt lat="43.4489" lon="5.87259">
        <ele>309.68</ele>
        <time>2019-11-30T12:41:28Z</time>
      </trkpt>
      <trkpt lat="43.44888" lon="5.87265">
        <ele>309.68</ele>
        <time>2019-11-30T12:41:29Z</time>
      </trkpt>
      <trkpt lat="43.44856" lon="5.87315">
        <ele>309.2</ele>
        <time>2019-11-30T12:41:39Z</time>
      </trkpt>
      <trkpt lat="43.44852" lon="5.87319">
        <ele>308.72</ele>
        <time>2019-11-30T12:41:40Z</time>
      </trkpt>
      <trkpt lat="43.44847" lon="5.87322">
        <ele>308.72</ele>
        <time>2019-11-30T12:41:41Z</time>
      </trkpt>
      <trkpt lat="43.44842" lon="5.87325">
        <ele>308.72</ele>
        <time>2019-11-30T12:41:42Z</time>
      </trkpt>
      <trkpt lat="43.44837" lon="5.87327">
        <ele>307.28</ele>
        <time>2019-11-30T12:41:43Z</time>
      </trkpt>
      <trkpt lat="43.44831" lon="5.87328">
        <ele>307.28</ele>
        <time>2019-11-30T12:41:44Z</time>
      </trkpt>
      <trkpt lat="43.44824" lon="5.8733">
        <ele>306.8</ele>
        <time>2019-11-30T12:41:45Z</time>
      </trkpt>
      <trkpt lat="43.44819" lon="5.87333">
        <ele>306.8</ele>
        <time>2019-11-30T12:41:46Z</time>
      </trkpt>
      <trkpt lat="43.44813" lon="5.87338">
        <ele>306.32</ele>
        <time>2019-11-30T12:41:47Z</time>
      </trkpt>
      <trkpt lat="43.44809" lon="5.87344">
        <ele>306.32</ele>
        <time>2019-11-30T12:41:48Z</time>
      </trkpt>
      <trkpt lat="43.44805" lon="5.87352">
        <ele>306.32</ele>
        <time>2019-11-30T12:41:49Z</time>
      </trkpt>
      <trkpt lat="43.44801" lon="5.87359">
        <ele>306.32</ele>
        <time>2019-11-30T12:41:50Z</time>
      </trkpt>
      <trkpt lat="43.44756" lon="5.87467">
        <ele>304.88</ele>
        <time>2019-11-30T12:42:05Z</time>
      </trkpt>
      <trkpt lat="43.44727" lon="5.87581">
        <ele>304.39</ele>
        <time>2019-11-30T12:42:20Z</time>
      </trkpt>
      <trkpt lat="43.44691" lon="5.87716">
        <ele>304.39</ele>
        <time>2019-11-30T12:42:39Z</time>
      </trkpt>
      <trkpt lat="43.44665" lon="5.87806">
        <ele>305.36</ele>
        <time>2019-11-30T12:42:54Z</time>
      </trkpt>
      <trkpt lat="43.4466" lon="5.87822">
        <ele>305.84</ele>
        <time>2019-11-30T12:42:57Z</time>
      </trkpt>
      <trkpt lat="43.44658" lon="5.87828">
        <ele>305.84</ele>
        <time>2019-11-30T12:42:58Z</time>
      </trkpt>
      <trkpt lat="43.44656" lon="5.87839">
        <ele>306.32</ele>
        <time>2019-11-30T12:43:00Z</time>
      </trkpt>
      <trkpt lat="43.44633" lon="5.87918">
        <ele>307.76</ele>
        <time>2019-11-30T12:43:14Z</time>
      </trkpt>
      <trkpt lat="43.4463" lon="5.87929">
        <ele>307.76</ele>
        <time>2019-11-30T12:43:16Z</time>
      </trkpt>
      <trkpt lat="43.44628" lon="5.87934">
        <ele>308.24</ele>
        <time>2019-11-30T12:43:17Z</time>
      </trkpt>
      <trkpt lat="43.44627" lon="5.8794">
        <ele>308.24</ele>
        <time>2019-11-30T12:43:18Z</time>
      </trkpt>
      <trkpt lat="43.44626" lon="5.87946">
        <ele>308.24</ele>
        <time>2019-11-30T12:43:19Z</time>
      </trkpt>
      <trkpt lat="43.44625" lon="5.87951">
        <ele>308.24</ele>
        <time>2019-11-30T12:43:20Z</time>
      </trkpt>
      <trkpt lat="43.44612" lon="5.87994">
        <ele>309.2</ele>
        <time>2019-11-30T12:43:28Z</time>
      </trkpt>
      <trkpt lat="43.4461" lon="5.88006">
        <ele>309.2</ele>
        <time>2019-11-30T12:43:30Z</time>
      </trkpt>
      <trkpt lat="43.44602" lon="5.88062">
        <ele>307.76</ele>
        <time>2019-11-30T12:43:38Z</time>
      </trkpt>
      <trkpt lat="43.44601" lon="5.88068">
        <ele>307.76</ele>
        <time>2019-11-30T12:43:39Z</time>
      </trkpt>
      <trkpt lat="43.44599" lon="5.88075">
        <ele>307.76</ele>
        <time>2019-11-30T12:43:40Z</time>
      </trkpt>
      <trkpt lat="43.44596" lon="5.88082">
        <ele>307.76</ele>
        <time>2019-11-30T12:43:41Z</time>
      </trkpt>
      <trkpt lat="43.44594" lon="5.88088">
        <ele>307.76</ele>
        <time>2019-11-30T12:43:42Z</time>
      </trkpt>
      <trkpt lat="43.44591" lon="5.88094">
        <ele>307.76</ele>
        <time>2019-11-30T12:43:43Z</time>
      </trkpt>
      <trkpt lat="43.44589" lon="5.88102">
        <ele>307.76</ele>
        <time>2019-11-30T12:43:44Z</time>
      </trkpt>
      <trkpt lat="43.44588" lon="5.88108">
        <ele>307.76</ele>
        <time>2019-11-30T12:43:45Z</time>
      </trkpt>
      <trkpt lat="43.44571" lon="5.88208">
        <ele>307.76</ele>
        <time>2019-11-30T12:44:00Z</time>
      </trkpt>
      <trkpt lat="43.44567" lon="5.88243">
        <ele>307.76</ele>
        <time>2019-11-30T12:44:05Z</time>
      </trkpt>
      <trkpt lat="43.44566" lon="5.8825">
        <ele>307.76</ele>
        <time>2019-11-30T12:44:06Z</time>
      </trkpt>
      <trkpt lat="43.44567" lon="5.88271">
        <ele>307.76</ele>
        <time>2019-11-30T12:44:09Z</time>
      </trkpt>
      <trkpt lat="43.44568" lon="5.88278">
        <ele>307.76</ele>
        <time>2019-11-30T12:44:10Z</time>
      </trkpt>
      <trkpt lat="43.44569" lon="5.88284">
        <ele>307.76</ele>
        <time>2019-11-30T12:44:11Z</time>
      </trkpt>
      <trkpt lat="43.44572" lon="5.88289">
        <ele>307.76</ele>
        <time>2019-11-30T12:44:12Z</time>
      </trkpt>
      <trkpt lat="43.44574" lon="5.88295">
        <ele>307.76</ele>
        <time>2019-11-30T12:44:13Z</time>
      </trkpt>
      <trkpt lat="43.44576" lon="5.88301">
        <ele>307.76</ele>
        <time>2019-11-30T12:44:14Z</time>
      </trkpt>
      <trkpt lat="43.44577" lon="5.88307">
        <ele>307.76</ele>
        <time>2019-11-30T12:44:15Z</time>
      </trkpt>
      <trkpt lat="43.44577" lon="5.88314">
        <ele>307.76</ele>
        <time>2019-11-30T12:44:16Z</time>
      </trkpt>
      <trkpt lat="43.44576" lon="5.88419">
        <ele>307.76</ele>
        <time>2019-11-30T12:44:32Z</time>
      </trkpt>
      <trkpt lat="43.44577" lon="5.88438">
        <ele>307.76</ele>
        <time>2019-11-30T12:44:35Z</time>
      </trkpt>
      <trkpt lat="43.44576" lon="5.88444">
        <ele>308.24</ele>
        <time>2019-11-30T12:44:36Z</time>
      </trkpt>
      <trkpt lat="43.44575" lon="5.88451">
        <ele>308.24</ele>
        <time>2019-11-30T12:44:37Z</time>
      </trkpt>
      <trkpt lat="43.44563" lon="5.88518">
        <ele>308.24</ele>
        <time>2019-11-30T12:44:50Z</time>
      </trkpt>
      <trkpt lat="43.44561" lon="5.88533">
        <ele>309.68</ele>
        <time>2019-11-30T12:44:53Z</time>
      </trkpt>
      <trkpt lat="43.44559" lon="5.88571">
        <ele>313.05</ele>
        <time>2019-11-30T12:45:01Z</time>
      </trkpt>
      <trkpt lat="43.44561" lon="5.88577">
        <ele>314.01</ele>
        <time>2019-11-30T12:45:03Z</time>
      </trkpt>
      <trkpt lat="43.44576" lon="5.88605">
        <ele>317.37</ele>
        <time>2019-11-30T12:45:14Z</time>
      </trkpt>
      <trkpt lat="43.44587" lon="5.88619">
        <ele>318.81</ele>
        <time>2019-11-30T12:45:20Z</time>
      </trkpt>
      <trkpt lat="43.44586" lon="5.88636">
        <ele>320.26</ele>
        <time>2019-11-30T12:45:25Z</time>
      </trkpt>
      <trkpt lat="43.4458" lon="5.88645">
        <ele>321.22</ele>
        <time>2019-11-30T12:45:28Z</time>
      </trkpt>
      <trkpt lat="43.44578" lon="5.88646">
        <ele>321.22</ele>
        <time>2019-11-30T12:45:29Z</time>
      </trkpt>
      <trkpt lat="43.44577" lon="5.88653">
        <ele>321.22</ele>
        <time>2019-11-30T12:45:30Z</time>
      </trkpt>
      <trkpt lat="43.44575" lon="5.88654">
        <ele>321.22</ele>
        <time>2019-11-30T12:45:31Z</time>
      </trkpt>
      <trkpt lat="43.44551" lon="5.88665">
        <ele>322.18</ele>
        <time>2019-11-30T12:45:41Z</time>
      </trkpt>
      <trkpt lat="43.44525" lon="5.88695">
        <ele>319.3</ele>
        <time>2019-11-30T12:45:52Z</time>
      </trkpt>
      <trkpt lat="43.44513" lon="5.88704">
        <ele>318.33</ele>
        <time>2019-11-30T12:45:55Z</time>
      </trkpt>
      <trkpt lat="43.44508" lon="5.88707">
        <ele>318.33</ele>
        <time>2019-11-30T12:45:56Z</time>
      </trkpt>
      <trkpt lat="43.44467" lon="5.88722">
        <ele>315.45</ele>
        <time>2019-11-30T12:46:03Z</time>
      </trkpt>
      <trkpt lat="43.44439" lon="5.88742">
        <ele>314.49</ele>
        <time>2019-11-30T12:46:08Z</time>
      </trkpt>
      <trkpt lat="43.44434" lon="5.88748">
        <ele>314.01</ele>
        <time>2019-11-30T12:46:09Z</time>
      </trkpt>
      <trkpt lat="43.44429" lon="5.88755">
        <ele>314.01</ele>
        <time>2019-11-30T12:46:10Z</time>
      </trkpt>
      <trkpt lat="43.44404" lon="5.88798">
        <ele>313.05</ele>
        <time>2019-11-30T12:46:17Z</time>
      </trkpt>
      <trkpt lat="43.4437" lon="5.88897">
        <ele>312.09</ele>
        <time>2019-11-30T12:46:31Z</time>
      </trkpt>
      <trkpt lat="43.44349" lon="5.89021">
        <ele>311.12</ele>
        <time>2019-11-30T12:46:47Z</time>
      </trkpt>
      <trkpt lat="43.44322" lon="5.89138">
        <ele>311.12</ele>
        <time>2019-11-30T12:47:03Z</time>
      </trkpt>
      <trkpt lat="43.44307" lon="5.89222">
        <ele>311.12</ele>
        <time>2019-11-30T12:47:15Z</time>
      </trkpt>
      <trkpt lat="43.44303" lon="5.8925">
        <ele>310.64</ele>
        <time>2019-11-30T12:47:19Z</time>
      </trkpt>
      <trkpt lat="43.443" lon="5.89257">
        <ele>310.16</ele>
        <time>2019-11-30T12:47:20Z</time>
      </trkpt>
      <trkpt lat="43.44297" lon="5.89263">
        <ele>310.16</ele>
        <time>2019-11-30T12:47:21Z</time>
      </trkpt>
      <trkpt lat="43.44259" lon="5.89361">
        <ele>308.24</ele>
        <time>2019-11-30T12:47:35Z</time>
      </trkpt>
      <trkpt lat="43.44251" lon="5.8938">
        <ele>308.24</ele>
        <time>2019-11-30T12:47:38Z</time>
      </trkpt>
      <trkpt lat="43.44249" lon="5.89387">
        <ele>308.24</ele>
        <time>2019-11-30T12:47:39Z</time>
      </trkpt>
      <trkpt lat="43.44246" lon="5.89392">
        <ele>307.76</ele>
        <time>2019-11-30T12:47:40Z</time>
      </trkpt>
      <trkpt lat="43.44242" lon="5.89398">
        <ele>307.76</ele>
        <time>2019-11-30T12:47:41Z</time>
      </trkpt>
      <trkpt lat="43.44239" lon="5.89403">
        <ele>307.76</ele>
        <time>2019-11-30T12:47:42Z</time>
      </trkpt>
      <trkpt lat="43.44234" lon="5.89407">
        <ele>307.28</ele>
        <time>2019-11-30T12:47:43Z</time>
      </trkpt>
      <trkpt lat="43.4423" lon="5.89411">
        <ele>307.28</ele>
        <time>2019-11-30T12:47:44Z</time>
      </trkpt>
      <trkpt lat="43.44225" lon="5.89413">
        <ele>306.8</ele>
        <time>2019-11-30T12:47:45Z</time>
      </trkpt>
      <trkpt lat="43.44219" lon="5.89415">
        <ele>306.8</ele>
        <time>2019-11-30T12:47:46Z</time>
      </trkpt>
      <trkpt lat="43.44214" lon="5.89415">
        <ele>306.8</ele>
        <time>2019-11-30T12:47:47Z</time>
      </trkpt>
      <trkpt lat="43.44196" lon="5.89416">
        <ele>306.32</ele>
        <time>2019-11-30T12:47:50Z</time>
      </trkpt>
      <trkpt lat="43.44184" lon="5.89414">
        <ele>306.32</ele>
        <time>2019-11-30T12:47:52Z</time>
      </trkpt>
      <trkpt lat="43.44142" lon="5.89413">
        <ele>303.43</ele>
        <time>2019-11-30T12:47:58Z</time>
      </trkpt>
      <trkpt lat="43.44135" lon="5.89416">
        <ele>303.43</ele>
        <time>2019-11-30T12:47:59Z</time>
      </trkpt>
      <trkpt lat="43.4413" lon="5.89421">
        <ele>302.95</ele>
        <time>2019-11-30T12:48:00Z</time>
      </trkpt>
      <trkpt lat="43.44124" lon="5.89427">
        <ele>302.95</ele>
        <time>2019-11-30T12:48:01Z</time>
      </trkpt>
      <trkpt lat="43.44119" lon="5.89434">
        <ele>302.95</ele>
        <time>2019-11-30T12:48:02Z</time>
      </trkpt>
      <trkpt lat="43.44106" lon="5.89451">
        <ele>301.99</ele>
        <time>2019-11-30T12:48:05Z</time>
      </trkpt>
      <trkpt lat="43.44092" lon="5.89467">
        <ele>301.03</ele>
        <time>2019-11-30T12:48:08Z</time>
      </trkpt>
      <trkpt lat="43.44088" lon="5.89475">
        <ele>300.55</ele>
        <time>2019-11-30T12:48:09Z</time>
      </trkpt>
      <trkpt lat="43.44086" lon="5.89483">
        <ele>300.55</ele>
        <time>2019-11-30T12:48:10Z</time>
      </trkpt>
      <trkpt lat="43.44085" lon="5.89491">
        <ele>300.55</ele>
        <time>2019-11-30T12:48:11Z</time>
      </trkpt>
      <trkpt lat="43.44085" lon="5.89499">
        <ele>300.55</ele>
        <time>2019-11-30T12:48:12Z</time>
      </trkpt>
      <trkpt lat="43.44085" lon="5.89507">
        <ele>300.07</ele>
        <time>2019-11-30T12:48:13Z</time>
      </trkpt>
      <trkpt lat="43.44085" lon="5.89515">
        <ele>300.07</ele>
        <time>2019-11-30T12:48:14Z</time>
      </trkpt>
      <trkpt lat="43.44086" lon="5.89523">
        <ele>300.07</ele>
        <time>2019-11-30T12:48:15Z</time>
      </trkpt>
      <trkpt lat="43.44088" lon="5.89531">
        <ele>300.55</ele>
        <time>2019-11-30T12:48:16Z</time>
      </trkpt>
      <trkpt lat="43.44089" lon="5.89538">
        <ele>300.55</ele>
        <time>2019-11-30T12:48:17Z</time>
      </trkpt>
      <trkpt lat="43.44096" lon="5.89568">
        <ele>300.07</ele>
        <time>2019-11-30T12:48:21Z</time>
      </trkpt>
      <trkpt lat="43.44101" lon="5.89681">
        <ele>298.63</ele>
        <time>2019-11-30T12:48:34Z</time>
      </trkpt>
      <trkpt lat="43.441" lon="5.8969">
        <ele>298.63</ele>
        <time>2019-11-30T12:48:35Z</time>
      </trkpt>
      <trkpt lat="43.44098" lon="5.89698">
        <ele>298.63</ele>
        <time>2019-11-30T12:48:36Z</time>
      </trkpt>
      <trkpt lat="43.44096" lon="5.89705">
        <ele>298.63</ele>
        <time>2019-11-30T12:48:37Z</time>
      </trkpt>
      <trkpt lat="43.44093" lon="5.89711">
        <ele>298.63</ele>
        <time>2019-11-30T12:48:38Z</time>
      </trkpt>
      <trkpt lat="43.4409" lon="5.89716">
        <ele>298.63</ele>
        <time>2019-11-30T12:48:39Z</time>
      </trkpt>
      <trkpt lat="43.44086" lon="5.89721">
        <ele>298.63</ele>
        <time>2019-11-30T12:48:40Z</time>
      </trkpt>
      <trkpt lat="43.44082" lon="5.89725">
        <ele>298.15</ele>
        <time>2019-11-30T12:48:41Z</time>
      </trkpt>
      <trkpt lat="43.44077" lon="5.89728">
        <ele>298.15</ele>
        <time>2019-11-30T12:48:42Z</time>
      </trkpt>
      <trkpt lat="43.44027" lon="5.8978">
        <ele>295.74</ele>
        <time>2019-11-30T12:48:56Z</time>
      </trkpt>
      <trkpt lat="43.44003" lon="5.89803">
        <ele>295.74</ele>
        <time>2019-11-30T12:49:05Z</time>
      </trkpt>
      <trkpt lat="43.43999" lon="5.89806">
        <ele>295.74</ele>
        <time>2019-11-30T12:49:06Z</time>
      </trkpt>
      <trkpt lat="43.43995" lon="5.89808">
        <ele>295.74</ele>
        <time>2019-11-30T12:49:07Z</time>
      </trkpt>
      <trkpt lat="43.43991" lon="5.8981">
        <ele>295.74</ele>
        <time>2019-11-30T12:49:08Z</time>
      </trkpt>
      <trkpt lat="43.43987" lon="5.8981">
        <ele>295.74</ele>
        <time>2019-11-30T12:49:09Z</time>
      </trkpt>
      <trkpt lat="43.43982" lon="5.89809">
        <ele>295.74</ele>
        <time>2019-11-30T12:49:10Z</time>
      </trkpt>
      <trkpt lat="43.43978" lon="5.89807">
        <ele>295.74</ele>
        <time>2019-11-30T12:49:11Z</time>
      </trkpt>
      <trkpt lat="43.43974" lon="5.89806">
        <ele>295.74</ele>
        <time>2019-11-30T12:49:12Z</time>
      </trkpt>
      <trkpt lat="43.4397" lon="5.89803">
        <ele>295.74</ele>
        <time>2019-11-30T12:49:13Z</time>
      </trkpt>
      <trkpt lat="43.43966" lon="5.898">
        <ele>295.74</ele>
        <time>2019-11-30T12:49:14Z</time>
      </trkpt>
      <trkpt lat="43.43962" lon="5.89798">
        <ele>295.74</ele>
        <time>2019-11-30T12:49:15Z</time>
      </trkpt>
      <trkpt lat="43.43958" lon="5.89795">
        <ele>295.74</ele>
        <time>2019-11-30T12:49:16Z</time>
      </trkpt>
      <trkpt lat="43.43904" lon="5.89781">
        <ele>295.74</ele>
        <time>2019-11-30T12:49:30Z</time>
      </trkpt>
      <trkpt lat="43.43859" lon="5.89775">
        <ele>295.74</ele>
        <time>2019-11-30T12:49:43Z</time>
      </trkpt>
      <trkpt lat="43.43851" lon="5.89778">
        <ele>297.18</ele>
        <time>2019-11-30T12:49:46Z</time>
      </trkpt>
      <trkpt lat="43.43849" lon="5.89779">
        <ele>297.18</ele>
        <time>2019-11-30T12:49:47Z</time>
      </trkpt>
      <trkpt lat="43.43828" lon="5.89814">
        <ele>298.63</ele>
        <time>2019-11-30T12:49:59Z</time>
      </trkpt>
      <trkpt lat="43.43816" lon="5.89852">
        <ele>299.11</ele>
        <time>2019-11-30T12:50:10Z</time>
      </trkpt>
      <trkpt lat="43.4379" lon="5.89895">
        <ele>299.59</ele>
        <time>2019-11-30T12:50:24Z</time>
      </trkpt>
      <trkpt lat="43.43761" lon="5.89946">
        <ele>300.55</ele>
        <time>2019-11-30T12:50:37Z</time>
      </trkpt>
      <trkpt lat="43.43729" lon="5.8998">
        <ele>301.51</ele>
        <time>2019-11-30T12:50:49Z</time>
      </trkpt>
      <trkpt lat="43.43691" lon="5.90036">
        <ele>302.95</ele>
        <time>2019-11-30T12:51:06Z</time>
      </trkpt>
      <trkpt lat="43.43691" lon="5.90104">
        <ele>304.39</ele>
        <time>2019-11-30T12:51:20Z</time>
      </trkpt>
      <trkpt lat="43.43714" lon="5.90155">
        <ele>305.84</ele>
        <time>2019-11-30T12:51:33Z</time>
      </trkpt>
      <trkpt lat="43.4375" lon="5.90215">
        <ele>306.32</ele>
        <time>2019-11-30T12:51:50Z</time>
      </trkpt>
      <trkpt lat="43.43791" lon="5.90286">
        <ele>306.8</ele>
        <time>2019-11-30T12:52:08Z</time>
      </trkpt>
      <trkpt lat="43.43825" lon="5.90342">
        <ele>307.76</ele>
        <time>2019-11-30T12:52:23Z</time>
      </trkpt>
      <trkpt lat="43.43874" lon="5.90402">
        <ele>307.28</ele>
        <time>2019-11-30T12:52:41Z</time>
      </trkpt>
      <trkpt lat="43.43889" lon="5.90416">
        <ele>306.32</ele>
        <time>2019-11-30T12:52:45Z</time>
      </trkpt>
      <trkpt lat="43.43893" lon="5.9042">
        <ele>306.32</ele>
        <time>2019-11-30T12:52:46Z</time>
      </trkpt>
      <trkpt lat="43.43897" lon="5.90423">
        <ele>306.32</ele>
        <time>2019-11-30T12:52:47Z</time>
      </trkpt>
      <trkpt lat="43.43904" lon="5.9043">
        <ele>305.36</ele>
        <time>2019-11-30T12:52:49Z</time>
      </trkpt>
      <trkpt lat="43.43909" lon="5.90433">
        <ele>305.36</ele>
        <time>2019-11-30T12:52:50Z</time>
      </trkpt>
      <trkpt lat="43.43921" lon="5.90445">
        <ele>304.39</ele>
        <time>2019-11-30T12:52:53Z</time>
      </trkpt>
      <trkpt lat="43.43951" lon="5.90474">
        <ele>302.95</ele>
        <time>2019-11-30T12:53:01Z</time>
      </trkpt>
      <trkpt lat="43.43955" lon="5.90477">
        <ele>302.47</ele>
        <time>2019-11-30T12:53:02Z</time>
      </trkpt>
      <trkpt lat="43.43959" lon="5.9048">
        <ele>302.47</ele>
        <time>2019-11-30T12:53:03Z</time>
      </trkpt>
      <trkpt lat="43.43963" lon="5.90483">
        <ele>302.47</ele>
        <time>2019-11-30T12:53:04Z</time>
      </trkpt>
      <trkpt lat="43.43966" lon="5.90486">
        <ele>301.99</ele>
        <time>2019-11-30T12:53:05Z</time>
      </trkpt>
      <trkpt lat="43.4397" lon="5.90489">
        <ele>301.99</ele>
        <time>2019-11-30T12:53:06Z</time>
      </trkpt>
      <trkpt lat="43.43973" lon="5.90492">
        <ele>301.99</ele>
        <time>2019-11-30T12:53:07Z</time>
      </trkpt>
      <trkpt lat="43.43975" lon="5.90497">
        <ele>301.51</ele>
        <time>2019-11-30T12:53:08Z</time>
      </trkpt>
      <trkpt lat="43.43976" lon="5.90502">
        <ele>301.51</ele>
        <time>2019-11-30T12:53:09Z</time>
      </trkpt>
      <trkpt lat="43.43977" lon="5.90507">
        <ele>301.51</ele>
        <time>2019-11-30T12:53:10Z</time>
      </trkpt>
      <trkpt lat="43.43978" lon="5.90513">
        <ele>301.03</ele>
        <time>2019-11-30T12:53:11Z</time>
      </trkpt>
      <trkpt lat="43.43977" lon="5.90541">
        <ele>299.59</ele>
        <time>2019-11-30T12:53:16Z</time>
      </trkpt>
      <trkpt lat="43.43974" lon="5.90546">
        <ele>299.59</ele>
        <time>2019-11-30T12:53:17Z</time>
      </trkpt>
      <trkpt lat="43.43972" lon="5.90548">
        <ele>299.59</ele>
        <time>2019-11-30T12:53:18Z</time>
      </trkpt>
      <trkpt lat="43.43969" lon="5.90552">
        <ele>299.59</ele>
        <time>2019-11-30T12:53:19Z</time>
      </trkpt>
      <trkpt lat="43.43966" lon="5.90556">
        <ele>298.63</ele>
        <time>2019-11-30T12:53:20Z</time>
      </trkpt>
      <trkpt lat="43.4395" lon="5.90581">
        <ele>299.11</ele>
        <time>2019-11-30T12:53:28Z</time>
      </trkpt>
      <trkpt lat="43.43935" lon="5.90598">
        <ele>298.63</ele>
        <time>2019-11-30T12:53:34Z</time>
      </trkpt>
      <trkpt lat="43.43903" lon="5.90641">
        <ele>298.63</ele>
        <time>2019-11-30T12:53:45Z</time>
      </trkpt>
      <trkpt lat="43.43871" lon="5.90649">
        <ele>300.55</ele>
        <time>2019-11-30T12:53:55Z</time>
      </trkpt>
      <trkpt lat="43.43835" lon="5.90645">
        <ele>302.47</ele>
        <time>2019-11-30T12:54:08Z</time>
      </trkpt>
      <trkpt lat="43.438" lon="5.90643">
        <ele>305.84</ele>
        <time>2019-11-30T12:54:23Z</time>
      </trkpt>
      <trkpt lat="43.43774" lon="5.90662">
        <ele>307.76</ele>
        <time>2019-11-30T12:54:35Z</time>
      </trkpt>
      <trkpt lat="43.43744" lon="5.90655">
        <ele>310.64</ele>
        <time>2019-11-30T12:54:47Z</time>
      </trkpt>
      <trkpt lat="43.43734" lon="5.90648">
        <ele>312.09</ele>
        <time>2019-11-30T12:54:52Z</time>
      </trkpt>
      <trkpt lat="43.43732" lon="5.90647">
        <ele>312.09</ele>
        <time>2019-11-30T12:54:53Z</time>
      </trkpt>
      <trkpt lat="43.4373" lon="5.90646">
        <ele>312.09</ele>
        <time>2019-11-30T12:54:54Z</time>
      </trkpt>
      <trkpt lat="43.43728" lon="5.90645">
        <ele>312.57</ele>
        <time>2019-11-30T12:54:55Z</time>
      </trkpt>
      <trkpt lat="43.43726" lon="5.90644">
        <ele>312.57</ele>
        <time>2019-11-30T12:54:56Z</time>
      </trkpt>
      <trkpt lat="43.43725" lon="5.90643">
        <ele>312.57</ele>
        <time>2019-11-30T12:54:57Z</time>
      </trkpt>
      <trkpt lat="43.43723" lon="5.90642">
        <ele>312.57</ele>
        <time>2019-11-30T12:54:58Z</time>
      </trkpt>
      <trkpt lat="43.43684" lon="5.90624">
        <ele>314.01</ele>
        <time>2019-11-30T12:55:16Z</time>
      </trkpt>
      <trkpt lat="43.43665" lon="5.90611">
        <ele>314.49</ele>
        <time>2019-11-30T12:55:27Z</time>
      </trkpt>
      <trkpt lat="43.43663" lon="5.90611">
        <ele>314.49</ele>
        <time>2019-11-30T12:55:28Z</time>
      </trkpt>
      <trkpt lat="43.43662" lon="5.90613">
        <ele>314.97</ele>
        <time>2019-11-30T12:55:29Z</time>
      </trkpt>
      <trkpt lat="43.43631" lon="5.90616">
        <ele>313.53</ele>
        <time>2019-11-30T12:55:40Z</time>
      </trkpt>
      <trkpt lat="43.43618" lon="5.90606">
        <ele>312.57</ele>
        <time>2019-11-30T12:55:44Z</time>
      </trkpt>
      <trkpt lat="43.43602" lon="5.90609">
        <ele>311.12</ele>
        <time>2019-11-30T12:55:50Z</time>
      </trkpt>
      <trkpt lat="43.43593" lon="5.90649">
        <ele>312.57</ele>
        <time>2019-11-30T12:56:04Z</time>
      </trkpt>
      <trkpt lat="43.43586" lon="5.90659">
        <ele>313.53</ele>
        <time>2019-11-30T12:56:10Z</time>
      </trkpt>
      <trkpt lat="43.43586" lon="5.90661">
        <ele>314.01</ele>
        <time>2019-11-30T12:56:11Z</time>
      </trkpt>
      <trkpt lat="43.43585" lon="5.90664">
        <ele>314.01</ele>
        <time>2019-11-30T12:56:12Z</time>
      </trkpt>
      <trkpt lat="43.43585" lon="5.90666">
        <ele>314.01</ele>
        <time>2019-11-30T12:56:13Z</time>
      </trkpt>
      <trkpt lat="43.43582" lon="5.90678">
        <ele>314.49</ele>
        <time>2019-11-30T12:56:24Z</time>
      </trkpt>
      <trkpt lat="43.43583" lon="5.9068">
        <ele>314.49</ele>
        <time>2019-11-30T12:56:25Z</time>
      </trkpt>
      <trkpt lat="43.43583" lon="5.90679">
        <ele>314.49</ele>
        <time>2019-11-30T12:56:26Z</time>
      </trkpt>
      <trkpt lat="43.43583" lon="5.90678">
        <ele>314.49</ele>
        <time>2019-11-30T12:56:27Z</time>
      </trkpt>
      <trkpt lat="43.43582" lon="5.90677">
        <ele>314.49</ele>
        <time>2019-11-30T12:56:28Z</time>
      </trkpt>
      <trkpt lat="43.43584" lon="5.90676">
        <ele>314.49</ele>
        <time>2019-11-30T12:56:35Z</time>
      </trkpt>
      <trkpt lat="43.43583" lon="5.90677">
        <ele>314.49</ele>
        <time>2019-11-30T12:56:36Z</time>
      </trkpt>
      <trkpt lat="43.43581" lon="5.90679">
        <ele>314.49</ele>
        <time>2019-11-30T12:56:37Z</time>
      </trkpt>
      <trkpt lat="43.43581" lon="5.9068">
        <ele>314.49</ele>
        <time>2019-11-30T12:56:38Z</time>
      </trkpt>
      <trkpt lat="43.4358" lon="5.90681">
        <ele>314.49</ele>
        <time>2019-11-30T12:56:39Z</time>
      </trkpt>
      <trkpt lat="43.4358" lon="5.90683">
        <ele>314.49</ele>
        <time>2019-11-30T12:56:40Z</time>
      </trkpt>
      <trkpt lat="43.4358" lon="5.90685">
        <ele>314.49</ele>
        <time>2019-11-30T12:56:41Z</time>
      </trkpt>
      <trkpt lat="43.43581" lon="5.90687">
        <ele>314.49</ele>
        <time>2019-11-30T12:56:42Z</time>
      </trkpt>
      <trkpt lat="43.43582" lon="5.90689">
        <ele>314.49</ele>
        <time>2019-11-30T12:56:43Z</time>
      </trkpt>
      <trkpt lat="43.43606" lon="5.90705">
        <ele>314.49</ele>
        <time>2019-11-30T12:56:55Z</time>
      </trkpt>
      <trkpt lat="43.43641" lon="5.90735">
        <ele>313.05</ele>
        <time>2019-11-30T12:57:07Z</time>
      </trkpt>
      <trkpt lat="43.43674" lon="5.90753">
        <ele>312.09</ele>
        <time>2019-11-30T12:57:20Z</time>
      </trkpt>
      <trkpt lat="43.43708" lon="5.90758">
        <ele>311.12</ele>
        <time>2019-11-30T12:57:33Z</time>
      </trkpt>
      <trkpt lat="43.43724" lon="5.90749">
        <ele>309.68</ele>
        <time>2019-11-30T12:57:38Z</time>
      </trkpt>
      <trkpt lat="43.43729" lon="5.90748">
        <ele>309.68</ele>
        <time>2019-11-30T12:57:39Z</time>
      </trkpt>
      <trkpt lat="43.43734" lon="5.90748">
        <ele>308.72</ele>
        <time>2019-11-30T12:57:40Z</time>
      </trkpt>
      <trkpt lat="43.43738" lon="5.90749">
        <ele>308.72</ele>
        <time>2019-11-30T12:57:41Z</time>
      </trkpt>
      <trkpt lat="43.43742" lon="5.9075">
        <ele>308.24</ele>
        <time>2019-11-30T12:57:42Z</time>
      </trkpt>
      <trkpt lat="43.43746" lon="5.90751">
        <ele>308.24</ele>
        <time>2019-11-30T12:57:43Z</time>
      </trkpt>
      <trkpt lat="43.4377" lon="5.90755">
        <ele>307.76</ele>
        <time>2019-11-30T12:57:53Z</time>
      </trkpt>
      <trkpt lat="43.43801" lon="5.9076">
        <ele>306.8</ele>
        <time>2019-11-30T12:58:05Z</time>
      </trkpt>
      <trkpt lat="43.43818" lon="5.90764">
        <ele>306.8</ele>
        <time>2019-11-30T12:58:15Z</time>
      </trkpt>
      <trkpt lat="43.43819" lon="5.90771">
        <ele>306.8</ele>
        <time>2019-11-30T12:58:22Z</time>
      </trkpt>
      <trkpt lat="43.43819" lon="5.90774">
        <ele>307.76</ele>
        <time>2019-11-30T12:58:24Z</time>
      </trkpt>
      <trkpt lat="43.43815" lon="5.90793">
        <ele>310.64</ele>
        <time>2019-11-30T12:58:38Z</time>
      </trkpt>
      <trkpt lat="43.43805" lon="5.90808">
        <ele>313.53</ele>
        <time>2019-11-30T12:58:52Z</time>
      </trkpt>
      <trkpt lat="43.43796" lon="5.90819">
        <ele>316.41</ele>
        <time>2019-11-30T12:59:06Z</time>
      </trkpt>
      <trkpt lat="43.43784" lon="5.90834">
        <ele>318.81</ele>
        <time>2019-11-30T12:59:22Z</time>
      </trkpt>
      <trkpt lat="43.43778" lon="5.90841">
        <ele>319.78</ele>
        <time>2019-11-30T12:59:36Z</time>
      </trkpt>
      <trkpt lat="43.43763" lon="5.90871">
        <ele>321.7</ele>
        <time>2019-11-30T12:59:47Z</time>
      </trkpt>
      <trkpt lat="43.43757" lon="5.9089">
        <ele>321.7</ele>
        <time>2019-11-30T12:59:53Z</time>
      </trkpt>
      <trkpt lat="43.43754" lon="5.90893">
        <ele>321.7</ele>
        <time>2019-11-30T12:59:54Z</time>
      </trkpt>
      <trkpt lat="43.43753" lon="5.90895">
        <ele>321.7</ele>
        <time>2019-11-30T12:59:55Z</time>
      </trkpt>
      <trkpt lat="43.43752" lon="5.90896">
        <ele>322.66</ele>
        <time>2019-11-30T12:59:56Z</time>
      </trkpt>
      <trkpt lat="43.4375" lon="5.90897">
        <ele>322.66</ele>
        <time>2019-11-30T12:59:57Z</time>
      </trkpt>
      <trkpt lat="43.43743" lon="5.90905">
        <ele>322.18</ele>
        <time>2019-11-30T13:00:03Z</time>
      </trkpt>
      <trkpt lat="43.43743" lon="5.90907">
        <ele>322.18</ele>
        <time>2019-11-30T13:00:04Z</time>
      </trkpt>
      <trkpt lat="43.43743" lon="5.90909">
        <ele>321.22</ele>
        <time>2019-11-30T13:00:05Z</time>
      </trkpt>
      <trkpt lat="43.43744" lon="5.90911">
        <ele>320.26</ele>
        <time>2019-11-30T13:00:06Z</time>
      </trkpt>
      <trkpt lat="43.43744" lon="5.90913">
        <ele>319.78</ele>
        <time>2019-11-30T13:00:07Z</time>
      </trkpt>
      <trkpt lat="43.43745" lon="5.90914">
        <ele>318.33</ele>
        <time>2019-11-30T13:00:08Z</time>
      </trkpt>
      <trkpt lat="43.43746" lon="5.90916">
        <ele>317.85</ele>
        <time>2019-11-30T13:00:09Z</time>
      </trkpt>
      <trkpt lat="43.43746" lon="5.90917">
        <ele>317.85</ele>
        <time>2019-11-30T13:00:10Z</time>
      </trkpt>
      <trkpt lat="43.43749" lon="5.90927">
        <ele>314.01</ele>
        <time>2019-11-30T13:00:17Z</time>
      </trkpt>
      <trkpt lat="43.43748" lon="5.90929">
        <ele>314.01</ele>
        <time>2019-11-30T13:00:18Z</time>
      </trkpt>
      <trkpt lat="43.43748" lon="5.90935">
        <ele>313.53</ele>
        <time>2019-11-30T13:00:19Z</time>
      </trkpt>
      <trkpt lat="43.43747" lon="5.90939">
        <ele>313.53</ele>
        <time>2019-11-30T13:00:20Z</time>
      </trkpt>
      <trkpt lat="43.43745" lon="5.90942">
        <ele>313.05</ele>
        <time>2019-11-30T13:00:21Z</time>
      </trkpt>
      <trkpt lat="43.43744" lon="5.90946">
        <ele>313.05</ele>
        <time>2019-11-30T13:00:22Z</time>
      </trkpt>
      <trkpt lat="43.43743" lon="5.90951">
        <ele>312.09</ele>
        <time>2019-11-30T13:00:23Z</time>
      </trkpt>
      <trkpt lat="43.43742" lon="5.90956">
        <ele>312.09</ele>
        <time>2019-11-30T13:00:24Z</time>
      </trkpt>
      <trkpt lat="43.4374" lon="5.90961">
        <ele>311.6</ele>
        <time>2019-11-30T13:00:25Z</time>
      </trkpt>
      <trkpt lat="43.43739" lon="5.90966">
        <ele>311.6</ele>
        <time>2019-11-30T13:00:26Z</time>
      </trkpt>
      <trkpt lat="43.43737" lon="5.90972">
        <ele>310.64</ele>
        <time>2019-11-30T13:00:27Z</time>
      </trkpt>
      <trkpt lat="43.43724" lon="5.91031">
        <ele>309.68</ele>
        <time>2019-11-30T13:00:39Z</time>
      </trkpt>
      <trkpt lat="43.4372" lon="5.91053">
        <ele>309.68</ele>
        <time>2019-11-30T13:00:50Z</time>
      </trkpt>
      <trkpt lat="43.43716" lon="5.91075">
        <ele>312.57</ele>
        <time>2019-11-30T13:01:04Z</time>
      </trkpt>
      <trkpt lat="43.43713" lon="5.91088">
        <ele>315.45</ele>
        <time>2019-11-30T13:01:13Z</time>
      </trkpt>
      <trkpt lat="43.43706" lon="5.91109">
        <ele>317.37</ele>
        <time>2019-11-30T13:01:28Z</time>
      </trkpt>
      <trkpt lat="43.43703" lon="5.91121">
        <ele>317.85</ele>
        <time>2019-11-30T13:01:41Z</time>
      </trkpt>
      <trkpt lat="43.43702" lon="5.91123">
        <ele>317.85</ele>
        <time>2019-11-30T13:01:42Z</time>
      </trkpt>
      <trkpt lat="43.43696" lon="5.91145">
        <ele>317.85</ele>
        <time>2019-11-30T13:01:54Z</time>
      </trkpt>
      <trkpt lat="43.43695" lon="5.91146">
        <ele>317.85</ele>
        <time>2019-11-30T13:01:55Z</time>
      </trkpt>
      <trkpt lat="43.43694" lon="5.91148">
        <ele>317.85</ele>
        <time>2019-11-30T13:01:56Z</time>
      </trkpt>
      <trkpt lat="43.43688" lon="5.91163">
        <ele>314.01</ele>
        <time>2019-11-30T13:02:05Z</time>
      </trkpt>
      <trkpt lat="43.43685" lon="5.91167">
        <ele>313.53</ele>
        <time>2019-11-30T13:02:07Z</time>
      </trkpt>
      <trkpt lat="43.43679" lon="5.91172">
        <ele>313.05</ele>
        <time>2019-11-30T13:02:20Z</time>
      </trkpt>
      <trkpt lat="43.4369" lon="5.91177">
        <ele>313.05</ele>
        <time>2019-11-30T13:02:24Z</time>
      </trkpt>
      <trkpt lat="43.43732" lon="5.91193">
        <ele>314.49</ele>
        <time>2019-11-30T13:02:38Z</time>
      </trkpt>
      <trkpt lat="43.43751" lon="5.91203">
        <ele>313.05</ele>
        <time>2019-11-30T13:02:44Z</time>
      </trkpt>
      <trkpt lat="43.43781" lon="5.91216">
        <ele>309.2</ele>
        <time>2019-11-30T13:02:53Z</time>
      </trkpt>
      <trkpt lat="43.43805" lon="5.91224">
        <ele>305.84</ele>
        <time>2019-11-30T13:02:59Z</time>
      </trkpt>
      <trkpt lat="43.43809" lon="5.91225">
        <ele>305.84</ele>
        <time>2019-11-30T13:03:00Z</time>
      </trkpt>
      <trkpt lat="43.43821" lon="5.91229">
        <ele>303.91</ele>
        <time>2019-11-30T13:03:03Z</time>
      </trkpt>
      <trkpt lat="43.43826" lon="5.91231">
        <ele>304.39</ele>
        <time>2019-11-30T13:03:04Z</time>
      </trkpt>
      <trkpt lat="43.43843" lon="5.91236">
        <ele>302.47</ele>
        <time>2019-11-30T13:03:07Z</time>
      </trkpt>
      <trkpt lat="43.43849" lon="5.91237">
        <ele>302.47</ele>
        <time>2019-11-30T13:03:08Z</time>
      </trkpt>
      <trkpt lat="43.43855" lon="5.91237">
        <ele>301.99</ele>
        <time>2019-11-30T13:03:09Z</time>
      </trkpt>
      <trkpt lat="43.439" lon="5.91237">
        <ele>300.55</ele>
        <time>2019-11-30T13:03:17Z</time>
      </trkpt>
      <trkpt lat="43.4391" lon="5.91238">
        <ele>300.55</ele>
        <time>2019-11-30T13:03:19Z</time>
      </trkpt>
      <trkpt lat="43.43929" lon="5.91238">
        <ele>300.07</ele>
        <time>2019-11-30T13:03:23Z</time>
      </trkpt>
      <trkpt lat="43.43933" lon="5.91237">
        <ele>300.07</ele>
        <time>2019-11-30T13:03:24Z</time>
      </trkpt>
      <trkpt lat="43.43938" lon="5.91236">
        <ele>300.07</ele>
        <time>2019-11-30T13:03:25Z</time>
      </trkpt>
      <trkpt lat="43.43943" lon="5.91237">
        <ele>300.07</ele>
        <time>2019-11-30T13:03:26Z</time>
      </trkpt>
      <trkpt lat="43.43946" lon="5.91238">
        <ele>300.07</ele>
        <time>2019-11-30T13:03:27Z</time>
      </trkpt>
      <trkpt lat="43.4395" lon="5.9124">
        <ele>300.07</ele>
        <time>2019-11-30T13:03:28Z</time>
      </trkpt>
      <trkpt lat="43.43981" lon="5.91244">
        <ele>300.07</ele>
        <time>2019-11-30T13:03:38Z</time>
      </trkpt>
      <trkpt lat="43.44009" lon="5.91244">
        <ele>299.59</ele>
        <time>2019-11-30T13:03:45Z</time>
      </trkpt>
      <trkpt lat="43.44062" lon="5.9124">
        <ele>297.67</ele>
        <time>2019-11-30T13:03:57Z</time>
      </trkpt>
      <trkpt lat="43.44077" lon="5.9124">
        <ele>297.18</ele>
        <time>2019-11-30T13:04:00Z</time>
      </trkpt>
      <trkpt lat="43.4408" lon="5.91239">
        <ele>297.18</ele>
        <time>2019-11-30T13:04:01Z</time>
      </trkpt>
      <trkpt lat="43.44146" lon="5.91235">
        <ele>296.22</ele>
        <time>2019-11-30T13:04:17Z</time>
      </trkpt>
      <trkpt lat="43.44189" lon="5.91227">
        <ele>296.22</ele>
        <time>2019-11-30T13:04:28Z</time>
      </trkpt>
      <trkpt lat="43.44231" lon="5.91229">
        <ele>295.26</ele>
        <time>2019-11-30T13:04:40Z</time>
      </trkpt>
      <trkpt lat="43.44285" lon="5.91227">
        <ele>295.26</ele>
        <time>2019-11-30T13:04:56Z</time>
      </trkpt>
      <trkpt lat="43.44316" lon="5.91222">
        <ele>295.26</ele>
        <time>2019-11-30T13:05:07Z</time>
      </trkpt>
      <trkpt lat="43.44345" lon="5.91189">
        <ele>295.26</ele>
        <time>2019-11-30T13:05:17Z</time>
      </trkpt>
      <trkpt lat="43.44348" lon="5.91184">
        <ele>295.26</ele>
        <time>2019-11-30T13:05:18Z</time>
      </trkpt>
      <trkpt lat="43.44378" lon="5.91148">
        <ele>295.26</ele>
        <time>2019-11-30T13:05:28Z</time>
      </trkpt>
      <trkpt lat="43.4439" lon="5.91129">
        <ele>295.26</ele>
        <time>2019-11-30T13:05:33Z</time>
      </trkpt>
      <trkpt lat="43.44396" lon="5.91118">
        <ele>295.26</ele>
        <time>2019-11-30T13:05:35Z</time>
      </trkpt>
      <trkpt lat="43.44399" lon="5.91114">
        <ele>295.26</ele>
        <time>2019-11-30T13:05:36Z</time>
      </trkpt>
      <trkpt lat="43.44403" lon="5.9111">
        <ele>295.26</ele>
        <time>2019-11-30T13:05:37Z</time>
      </trkpt>
      <trkpt lat="43.44406" lon="5.91106">
        <ele>295.26</ele>
        <time>2019-11-30T13:05:38Z</time>
      </trkpt>
      <trkpt lat="43.4441" lon="5.91102">
        <ele>294.3</ele>
        <time>2019-11-30T13:05:39Z</time>
      </trkpt>
      <trkpt lat="43.44413" lon="5.91098">
        <ele>293.82</ele>
        <time>2019-11-30T13:05:40Z</time>
      </trkpt>
      <trkpt lat="43.44422" lon="5.91089">
        <ele>293.82</ele>
        <time>2019-11-30T13:05:42Z</time>
      </trkpt>
      <trkpt lat="43.44442" lon="5.91065">
        <ele>293.34</ele>
        <time>2019-11-30T13:05:47Z</time>
      </trkpt>
      <trkpt lat="43.44446" lon="5.91062">
        <ele>293.34</ele>
        <time>2019-11-30T13:05:48Z</time>
      </trkpt>
      <trkpt lat="43.4445" lon="5.9106">
        <ele>293.34</ele>
        <time>2019-11-30T13:05:49Z</time>
      </trkpt>
      <trkpt lat="43.44495" lon="5.91053">
        <ele>296.22</ele>
        <time>2019-11-30T13:06:01Z</time>
      </trkpt>
      <trkpt lat="43.44539" lon="5.91054">
        <ele>297.18</ele>
        <time>2019-11-30T13:06:13Z</time>
      </trkpt>
      <trkpt lat="43.44593" lon="5.91049">
        <ele>298.15</ele>
        <time>2019-11-30T13:06:29Z</time>
      </trkpt>
      <trkpt lat="43.44605" lon="5.91046">
        <ele>298.15</ele>
        <time>2019-11-30T13:06:32Z</time>
      </trkpt>
      <trkpt lat="43.44642" lon="5.91039">
        <ele>298.63</ele>
        <time>2019-11-30T13:06:39Z</time>
      </trkpt>
      <trkpt lat="43.44649" lon="5.91038">
        <ele>297.18</ele>
        <time>2019-11-30T13:06:40Z</time>
      </trkpt>
      <trkpt lat="43.44655" lon="5.91036">
        <ele>296.7</ele>
        <time>2019-11-30T13:06:41Z</time>
      </trkpt>
      <trkpt lat="43.44662" lon="5.91034">
        <ele>296.7</ele>
        <time>2019-11-30T13:06:42Z</time>
      </trkpt>
      <trkpt lat="43.44709" lon="5.91011">
        <ele>295.74</ele>
        <time>2019-11-30T13:06:50Z</time>
      </trkpt>
      <trkpt lat="43.44714" lon="5.91007">
        <ele>295.74</ele>
        <time>2019-11-30T13:06:51Z</time>
      </trkpt>
      <trkpt lat="43.44717" lon="5.91003">
        <ele>295.74</ele>
        <time>2019-11-30T13:06:52Z</time>
      </trkpt>
      <trkpt lat="43.44721" lon="5.90998">
        <ele>295.74</ele>
        <time>2019-11-30T13:06:53Z</time>
      </trkpt>
      <trkpt lat="43.44724" lon="5.90993">
        <ele>295.26</ele>
        <time>2019-11-30T13:06:54Z</time>
      </trkpt>
      <trkpt lat="43.44758" lon="5.90953">
        <ele>293.82</ele>
        <time>2019-11-30T13:07:03Z</time>
      </trkpt>
      <trkpt lat="43.44773" lon="5.90932">
        <ele>292.86</ele>
        <time>2019-11-30T13:07:07Z</time>
      </trkpt>
      <trkpt lat="43.44778" lon="5.90929">
        <ele>291.9</ele>
        <time>2019-11-30T13:07:08Z</time>
      </trkpt>
      <trkpt lat="43.44784" lon="5.90926">
        <ele>291.9</ele>
        <time>2019-11-30T13:07:09Z</time>
      </trkpt>
      <trkpt lat="43.44789" lon="5.90924">
        <ele>291.42</ele>
        <time>2019-11-30T13:07:10Z</time>
      </trkpt>
      <trkpt lat="43.44794" lon="5.90922">
        <ele>291.42</ele>
        <time>2019-11-30T13:07:11Z</time>
      </trkpt>
      <trkpt lat="43.448" lon="5.9092">
        <ele>291.42</ele>
        <time>2019-11-30T13:07:12Z</time>
      </trkpt>
      <trkpt lat="43.44856" lon="5.90895">
        <ele>290.94</ele>
        <time>2019-11-30T13:07:23Z</time>
      </trkpt>
      <trkpt lat="43.4486" lon="5.90892">
        <ele>290.46</ele>
        <time>2019-11-30T13:07:24Z</time>
      </trkpt>
      <trkpt lat="43.44873" lon="5.90881">
        <ele>290.46</ele>
        <time>2019-11-30T13:07:27Z</time>
      </trkpt>
      <trkpt lat="43.44913" lon="5.90838">
        <ele>289.97</ele>
        <time>2019-11-30T13:07:39Z</time>
      </trkpt>
      <trkpt lat="43.44961" lon="5.90779">
        <ele>289.97</ele>
        <time>2019-11-30T13:07:55Z</time>
      </trkpt>
      <trkpt lat="43.44983" lon="5.90747">
        <ele>289.49</ele>
        <time>2019-11-30T13:08:06Z</time>
      </trkpt>
      <trkpt lat="43.44983" lon="5.90744">
        <ele>289.49</ele>
        <time>2019-11-30T13:08:09Z</time>
      </trkpt>
      <trkpt lat="43.44982" lon="5.90742">
        <ele>289.49</ele>
        <time>2019-11-30T13:08:10Z</time>
      </trkpt>
      <trkpt lat="43.44981" lon="5.9074">
        <ele>289.01</ele>
        <time>2019-11-30T13:08:11Z</time>
      </trkpt>
      <trkpt lat="43.44979" lon="5.90737">
        <ele>289.01</ele>
        <time>2019-11-30T13:08:12Z</time>
      </trkpt>
      <trkpt lat="43.44976" lon="5.90734">
        <ele>289.01</ele>
        <time>2019-11-30T13:08:13Z</time>
      </trkpt>
      <trkpt lat="43.44948" lon="5.90693">
        <ele>289.01</ele>
        <time>2019-11-30T13:08:25Z</time>
      </trkpt>
      <trkpt lat="43.44942" lon="5.90678">
        <ele>290.46</ele>
        <time>2019-11-30T13:08:29Z</time>
      </trkpt>
      <trkpt lat="43.44917" lon="5.9063">
        <ele>291.42</ele>
        <time>2019-11-30T13:08:42Z</time>
      </trkpt>
      <trkpt lat="43.44892" lon="5.90595">
        <ele>293.82</ele>
        <time>2019-11-30T13:08:55Z</time>
      </trkpt>
      <trkpt lat="43.44884" lon="5.90579">
        <ele>295.26</ele>
        <time>2019-11-30T13:09:02Z</time>
      </trkpt>
      <trkpt lat="43.4489" lon="5.90571">
        <ele>296.22</ele>
        <time>2019-11-30T13:09:07Z</time>
      </trkpt>
      <trkpt lat="43.44892" lon="5.9057">
        <ele>296.22</ele>
        <time>2019-11-30T13:09:08Z</time>
      </trkpt>
      <trkpt lat="43.44893" lon="5.9057">
        <ele>296.7</ele>
        <time>2019-11-30T13:09:09Z</time>
      </trkpt>
      <trkpt lat="43.44895" lon="5.90569">
        <ele>296.7</ele>
        <time>2019-11-30T13:09:10Z</time>
      </trkpt>
      <trkpt lat="43.44896" lon="5.90569">
        <ele>296.7</ele>
        <time>2019-11-30T13:09:11Z</time>
      </trkpt>
      <trkpt lat="43.44914" lon="5.9057">
        <ele>299.59</ele>
        <time>2019-11-30T13:09:24Z</time>
      </trkpt>
      <trkpt lat="43.44934" lon="5.90582">
        <ele>302.47</ele>
        <time>2019-11-30T13:09:38Z</time>
      </trkpt>
      <trkpt lat="43.44954" lon="5.90601">
        <ele>304.88</ele>
        <time>2019-11-30T13:09:51Z</time>
      </trkpt>
      <trkpt lat="43.44977" lon="5.90635">
        <ele>307.76</ele>
        <time>2019-11-30T13:10:03Z</time>
      </trkpt>
      <trkpt lat="43.44999" lon="5.90669">
        <ele>311.12</ele>
        <time>2019-11-30T13:10:16Z</time>
      </trkpt>
      <trkpt lat="43.45031" lon="5.90701">
        <ele>313.05</ele>
        <time>2019-11-30T13:10:29Z</time>
      </trkpt>
      <trkpt lat="43.45066" lon="5.90714">
        <ele>315.93</ele>
        <time>2019-11-30T13:10:43Z</time>
      </trkpt>
      <trkpt lat="43.45102" lon="5.90734">
        <ele>317.85</ele>
        <time>2019-11-30T13:10:59Z</time>
      </trkpt>
      <trkpt lat="43.45138" lon="5.90743">
        <ele>320.74</ele>
        <time>2019-11-30T13:11:13Z</time>
      </trkpt>
      <trkpt lat="43.45156" lon="5.90748">
        <ele>321.7</ele>
        <time>2019-11-30T13:11:19Z</time>
      </trkpt>
      <trkpt lat="43.45159" lon="5.90749">
        <ele>322.18</ele>
        <time>2019-11-30T13:11:20Z</time>
      </trkpt>
      <trkpt lat="43.45161" lon="5.90751">
        <ele>322.18</ele>
        <time>2019-11-30T13:11:21Z</time>
      </trkpt>
      <trkpt lat="43.45165" lon="5.90753">
        <ele>322.18</ele>
        <time>2019-11-30T13:11:22Z</time>
      </trkpt>
      <trkpt lat="43.45167" lon="5.90755">
        <ele>322.66</ele>
        <time>2019-11-30T13:11:23Z</time>
      </trkpt>
      <trkpt lat="43.4517" lon="5.90757">
        <ele>322.66</ele>
        <time>2019-11-30T13:11:24Z</time>
      </trkpt>
      <trkpt lat="43.45172" lon="5.90757">
        <ele>323.14</ele>
        <time>2019-11-30T13:11:25Z</time>
      </trkpt>
      <trkpt lat="43.45175" lon="5.90757">
        <ele>323.14</ele>
        <time>2019-11-30T13:11:26Z</time>
      </trkpt>
      <trkpt lat="43.45177" lon="5.90757">
        <ele>323.14</ele>
        <time>2019-11-30T13:11:27Z</time>
      </trkpt>
      <trkpt lat="43.4518" lon="5.90756">
        <ele>323.14</ele>
        <time>2019-11-30T13:11:28Z</time>
      </trkpt>
      <trkpt lat="43.45196" lon="5.90748">
        <ele>324.58</ele>
        <time>2019-11-30T13:11:36Z</time>
      </trkpt>
      <trkpt lat="43.45198" lon="5.90746">
        <ele>325.06</ele>
        <time>2019-11-30T13:11:37Z</time>
      </trkpt>
      <trkpt lat="43.452" lon="5.90742">
        <ele>325.06</ele>
        <time>2019-11-30T13:11:39Z</time>
      </trkpt>
      <trkpt lat="43.45205" lon="5.90724">
        <ele>325.54</ele>
        <time>2019-11-30T13:11:46Z</time>
      </trkpt>
      <trkpt lat="43.45205" lon="5.90711">
        <ele>326.5</ele>
        <time>2019-11-30T13:11:50Z</time>
      </trkpt>
      <trkpt lat="43.45201" lon="5.90655">
        <ele>328.43</ele>
        <time>2019-11-30T13:12:03Z</time>
      </trkpt>
      <trkpt lat="43.45186" lon="5.9059">
        <ele>331.31</ele>
        <time>2019-11-30T13:12:18Z</time>
      </trkpt>
      <trkpt lat="43.45177" lon="5.90574">
        <ele>332.75</ele>
        <time>2019-11-30T13:12:24Z</time>
      </trkpt>
      <trkpt lat="43.45175" lon="5.90572">
        <ele>332.75</ele>
        <time>2019-11-30T13:12:25Z</time>
      </trkpt>
      <trkpt lat="43.45163" lon="5.90557">
        <ele>333.71</ele>
        <time>2019-11-30T13:12:31Z</time>
      </trkpt>
      <trkpt lat="43.45162" lon="5.90555">
        <ele>333.71</ele>
        <time>2019-11-30T13:12:32Z</time>
      </trkpt>
      <trkpt lat="43.4516" lon="5.90552">
        <ele>333.71</ele>
        <time>2019-11-30T13:12:33Z</time>
      </trkpt>
      <trkpt lat="43.45158" lon="5.90549">
        <ele>333.71</ele>
        <time>2019-11-30T13:12:34Z</time>
      </trkpt>
      <trkpt lat="43.45156" lon="5.90545">
        <ele>334.2</ele>
        <time>2019-11-30T13:12:35Z</time>
      </trkpt>
      <trkpt lat="43.45127" lon="5.90511">
        <ele>335.16</ele>
        <time>2019-11-30T13:12:47Z</time>
      </trkpt>
      <trkpt lat="43.45099" lon="5.90469">
        <ele>337.56</ele>
        <time>2019-11-30T13:13:00Z</time>
      </trkpt>
      <trkpt lat="43.45083" lon="5.90444">
        <ele>338.04</ele>
        <time>2019-11-30T13:13:10Z</time>
      </trkpt>
      <trkpt lat="43.45073" lon="5.90423">
        <ele>338.04</ele>
        <time>2019-11-30T13:13:18Z</time>
      </trkpt>
      <trkpt lat="43.45073" lon="5.90416">
        <ele>338.04</ele>
        <time>2019-11-30T13:13:22Z</time>
      </trkpt>
      <trkpt lat="43.45071" lon="5.90415">
        <ele>338.04</ele>
        <time>2019-11-30T13:13:23Z</time>
      </trkpt>
      <trkpt lat="43.45071" lon="5.90414">
        <ele>338.04</ele>
        <time>2019-11-30T13:13:24Z</time>
      </trkpt>
      <trkpt lat="43.4507" lon="5.90412">
        <ele>338.04</ele>
        <time>2019-11-30T13:13:25Z</time>
      </trkpt>
      <trkpt lat="43.45069" lon="5.90409">
        <ele>336.6</ele>
        <time>2019-11-30T13:13:26Z</time>
      </trkpt>
      <trkpt lat="43.45068" lon="5.90406">
        <ele>336.6</ele>
        <time>2019-11-30T13:13:27Z</time>
      </trkpt>
      <trkpt lat="43.45068" lon="5.90402">
        <ele>336.6</ele>
        <time>2019-11-30T13:13:28Z</time>
      </trkpt>
      <trkpt lat="43.45054" lon="5.9037">
        <ele>334.2</ele>
        <time>2019-11-30T13:13:38Z</time>
      </trkpt>
      <trkpt lat="43.45039" lon="5.90331">
        <ele>331.79</ele>
        <time>2019-11-30T13:13:50Z</time>
      </trkpt>
      <trkpt lat="43.45038" lon="5.90329">
        <ele>331.79</ele>
        <time>2019-11-30T13:13:51Z</time>
      </trkpt>
      <trkpt lat="43.45036" lon="5.90323">
        <ele>331.79</ele>
        <time>2019-11-30T13:13:53Z</time>
      </trkpt>
      <trkpt lat="43.45034" lon="5.90317">
        <ele>330.83</ele>
        <time>2019-11-30T13:13:55Z</time>
      </trkpt>
      <trkpt lat="43.45033" lon="5.90314">
        <ele>330.83</ele>
        <time>2019-11-30T13:13:56Z</time>
      </trkpt>
      <trkpt lat="43.45019" lon="5.90284">
        <ele>328.91</ele>
        <time>2019-11-30T13:14:02Z</time>
      </trkpt>
      <trkpt lat="43.45015" lon="5.90274">
        <ele>327.95</ele>
        <time>2019-11-30T13:14:04Z</time>
      </trkpt>
      <trkpt lat="43.45013" lon="5.90268">
        <ele>327.95</ele>
        <time>2019-11-30T13:14:05Z</time>
      </trkpt>
      <trkpt lat="43.45006" lon="5.90247">
        <ele>326.99</ele>
        <time>2019-11-30T13:14:08Z</time>
      </trkpt>
      <trkpt lat="43.44994" lon="5.90215">
        <ele>325.54</ele>
        <time>2019-11-30T13:14:13Z</time>
      </trkpt>
      <trkpt lat="43.44986" lon="5.90201">
        <ele>324.1</ele>
        <time>2019-11-30T13:14:17Z</time>
      </trkpt>
      <trkpt lat="43.44985" lon="5.90185">
        <ele>323.62</ele>
        <time>2019-11-30T13:14:21Z</time>
      </trkpt>
      <trkpt lat="43.44971" lon="5.90141">
        <ele>322.18</ele>
        <time>2019-11-30T13:14:30Z</time>
      </trkpt>
      <trkpt lat="43.44963" lon="5.90131">
        <ele>321.7</ele>
        <time>2019-11-30T13:14:33Z</time>
      </trkpt>
      <trkpt lat="43.44959" lon="5.90114">
        <ele>321.22</ele>
        <time>2019-11-30T13:14:38Z</time>
      </trkpt>
      <trkpt lat="43.44967" lon="5.9009">
        <ele>321.22</ele>
        <time>2019-11-30T13:14:51Z</time>
      </trkpt>
      <trkpt lat="43.44977" lon="5.9008">
        <ele>320.74</ele>
        <time>2019-11-30T13:14:58Z</time>
      </trkpt>
      <trkpt lat="43.44977" lon="5.90061">
        <ele>320.74</ele>
        <time>2019-11-30T13:15:04Z</time>
      </trkpt>
      <trkpt lat="43.44973" lon="5.90044">
        <ele>320.74</ele>
        <time>2019-11-30T13:15:10Z</time>
      </trkpt>
      <trkpt lat="43.44966" lon="5.9002">
        <ele>320.26</ele>
        <time>2019-11-30T13:15:19Z</time>
      </trkpt>
      <trkpt lat="43.44963" lon="5.90012">
        <ele>320.26</ele>
        <time>2019-11-30T13:15:23Z</time>
      </trkpt>
      <trkpt lat="43.44941" lon="5.90011">
        <ele>319.78</ele>
        <time>2019-11-30T13:15:36Z</time>
      </trkpt>
      <trkpt lat="43.44922" lon="5.90015">
        <ele>320.74</ele>
        <time>2019-11-30T13:15:49Z</time>
      </trkpt>
      <trkpt lat="43.44918" lon="5.90016">
        <ele>321.22</ele>
        <time>2019-11-30T13:16:02Z</time>
      </trkpt>
      <trkpt lat="43.44914" lon="5.90014">
        <ele>320.74</ele>
        <time>2019-11-30T13:16:29Z</time>
      </trkpt>
      <trkpt lat="43.44914" lon="5.9001">
        <ele>320.74</ele>
        <time>2019-11-30T13:17:05Z</time>
      </trkpt>
      <trkpt lat="43.44917" lon="5.90012">
        <ele>320.26</ele>
        <time>2019-11-30T13:17:36Z</time>
      </trkpt>
      <trkpt lat="43.44914" lon="5.90016">
        <ele>320.26</ele>
        <time>2019-11-30T13:18:09Z</time>
      </trkpt>
      <trkpt lat="43.44919" lon="5.90015">
        <ele>319.78</ele>
        <time>2019-11-30T13:18:45Z</time>
      </trkpt>
      <trkpt lat="43.44915" lon="5.90013">
        <ele>319.78</ele>
        <time>2019-11-30T13:19:22Z</time>
      </trkpt>
      <trkpt lat="43.44914" lon="5.90014">
        <ele>319.3</ele>
        <time>2019-11-30T13:20:02Z</time>
      </trkpt>
      <trkpt lat="43.44911" lon="5.90014">
        <ele>319.3</ele>
        <time>2019-11-30T13:20:27Z</time>
      </trkpt>
      <trkpt lat="43.44912" lon="5.90013">
        <ele>318.81</ele>
        <time>2019-11-30T13:20:45Z</time>
      </trkpt>
      <trkpt lat="43.44933" lon="5.9001">
        <ele>318.81</ele>
        <time>2019-11-30T13:20:58Z</time>
      </trkpt>
      <trkpt lat="43.44943" lon="5.90008">
        <ele>317.85</ele>
        <time>2019-11-30T13:21:03Z</time>
      </trkpt>
      <trkpt lat="43.44967" lon="5.89991">
        <ele>317.37</ele>
        <time>2019-11-30T13:21:16Z</time>
      </trkpt>
      <trkpt lat="43.44969" lon="5.8999">
        <ele>317.37</ele>
        <time>2019-11-30T13:21:17Z</time>
      </trkpt>
      <trkpt lat="43.44971" lon="5.89968">
        <ele>317.37</ele>
        <time>2019-11-30T13:21:27Z</time>
      </trkpt>
      <trkpt lat="43.44964" lon="5.89951">
        <ele>316.89</ele>
        <time>2019-11-30T13:21:38Z</time>
      </trkpt>
      <trkpt lat="43.44978" lon="5.89929">
        <ele>315.93</ele>
        <time>2019-11-30T13:21:53Z</time>
      </trkpt>
      <trkpt lat="43.45005" lon="5.89904">
        <ele>315.45</ele>
        <time>2019-11-30T13:22:05Z</time>
      </trkpt>
      <trkpt lat="43.45042" lon="5.89889">
        <ele>314.97</ele>
        <time>2019-11-30T13:22:19Z</time>
      </trkpt>
      <trkpt lat="43.45081" lon="5.89871">
        <ele>314.49</ele>
        <time>2019-11-30T13:22:33Z</time>
      </trkpt>
      <trkpt lat="43.45115" lon="5.89874">
        <ele>314.49</ele>
        <time>2019-11-30T13:22:45Z</time>
      </trkpt>
      <trkpt lat="43.45118" lon="5.89875">
        <ele>314.49</ele>
        <time>2019-11-30T13:22:46Z</time>
      </trkpt>
      <trkpt lat="43.4512" lon="5.89877">
        <ele>314.49</ele>
        <time>2019-11-30T13:22:47Z</time>
      </trkpt>
      <trkpt lat="43.45123" lon="5.89879">
        <ele>314.49</ele>
        <time>2019-11-30T13:22:48Z</time>
      </trkpt>
      <trkpt lat="43.45126" lon="5.89883">
        <ele>314.49</ele>
        <time>2019-11-30T13:22:49Z</time>
      </trkpt>
      <trkpt lat="43.45141" lon="5.89926">
        <ele>314.49</ele>
        <time>2019-11-30T13:23:01Z</time>
      </trkpt>
      <trkpt lat="43.45156" lon="5.89954">
        <ele>314.49</ele>
        <time>2019-11-30T13:23:11Z</time>
      </trkpt>
      <trkpt lat="43.45169" lon="5.89962">
        <ele>314.49</ele>
        <time>2019-11-30T13:23:18Z</time>
      </trkpt>
      <trkpt lat="43.45171" lon="5.89966">
        <ele>314.49</ele>
        <time>2019-11-30T13:23:19Z</time>
      </trkpt>
      <trkpt lat="43.45174" lon="5.89969">
        <ele>314.01</ele>
        <time>2019-11-30T13:23:20Z</time>
      </trkpt>
      <trkpt lat="43.45178" lon="5.89971">
        <ele>314.01</ele>
        <time>2019-11-30T13:23:21Z</time>
      </trkpt>
      <trkpt lat="43.45181" lon="5.89972">
        <ele>313.53</ele>
        <time>2019-11-30T13:23:22Z</time>
      </trkpt>
      <trkpt lat="43.45191" lon="5.89966">
        <ele>313.53</ele>
        <time>2019-11-30T13:23:26Z</time>
      </trkpt>
      <trkpt lat="43.45227" lon="5.8996">
        <ele>313.53</ele>
        <time>2019-11-30T13:23:37Z</time>
      </trkpt>
      <trkpt lat="43.4523" lon="5.89957">
        <ele>313.53</ele>
        <time>2019-11-30T13:23:38Z</time>
      </trkpt>
      <trkpt lat="43.45245" lon="5.89951">
        <ele>313.53</ele>
        <time>2019-11-30T13:23:43Z</time>
      </trkpt>
      <trkpt lat="43.45257" lon="5.8995">
        <ele>313.53</ele>
        <time>2019-11-30T13:23:46Z</time>
      </trkpt>
      <trkpt lat="43.45261" lon="5.89949">
        <ele>313.53</ele>
        <time>2019-11-30T13:23:47Z</time>
      </trkpt>
      <trkpt lat="43.45265" lon="5.89949">
        <ele>313.53</ele>
        <time>2019-11-30T13:23:48Z</time>
      </trkpt>
      <trkpt lat="43.45269" lon="5.89947">
        <ele>313.53</ele>
        <time>2019-11-30T13:23:49Z</time>
      </trkpt>
      <trkpt lat="43.45273" lon="5.89947">
        <ele>313.53</ele>
        <time>2019-11-30T13:23:50Z</time>
      </trkpt>
      <trkpt lat="43.45277" lon="5.89947">
        <ele>313.53</ele>
        <time>2019-11-30T13:23:51Z</time>
      </trkpt>
      <trkpt lat="43.4528" lon="5.89948">
        <ele>314.97</ele>
        <time>2019-11-30T13:23:52Z</time>
      </trkpt>
      <trkpt lat="43.45283" lon="5.89948">
        <ele>314.97</ele>
        <time>2019-11-30T13:23:53Z</time>
      </trkpt>
      <trkpt lat="43.45322" lon="5.89957">
        <ele>315.45</ele>
        <time>2019-11-30T13:24:04Z</time>
      </trkpt>
      <trkpt lat="43.45338" lon="5.89964">
        <ele>314.01</ele>
        <time>2019-11-30T13:24:07Z</time>
      </trkpt>
      <trkpt lat="43.45414" lon="5.90006">
        <ele>312.09</ele>
        <time>2019-11-30T13:24:21Z</time>
      </trkpt>
      <trkpt lat="43.45419" lon="5.90008">
        <ele>312.09</ele>
        <time>2019-11-30T13:24:22Z</time>
      </trkpt>
      <trkpt lat="43.45486" lon="5.90043">
        <ele>311.6</ele>
        <time>2019-11-30T13:24:34Z</time>
      </trkpt>
      <trkpt lat="43.45491" lon="5.90042">
        <ele>312.57</ele>
        <time>2019-11-30T13:24:35Z</time>
      </trkpt>
      <trkpt lat="43.45495" lon="5.90038">
        <ele>313.05</ele>
        <time>2019-11-30T13:24:36Z</time>
      </trkpt>
      <trkpt lat="43.45498" lon="5.90033">
        <ele>313.05</ele>
        <time>2019-11-30T13:24:37Z</time>
      </trkpt>
      <trkpt lat="43.455" lon="5.90028">
        <ele>313.53</ele>
        <time>2019-11-30T13:24:38Z</time>
      </trkpt>
      <trkpt lat="43.45501" lon="5.90024">
        <ele>313.53</ele>
        <time>2019-11-30T13:24:39Z</time>
      </trkpt>
      <trkpt lat="43.45503" lon="5.90021">
        <ele>314.01</ele>
        <time>2019-11-30T13:24:40Z</time>
      </trkpt>
      <trkpt lat="43.45505" lon="5.90017">
        <ele>314.01</ele>
        <time>2019-11-30T13:24:41Z</time>
      </trkpt>
      <trkpt lat="43.45506" lon="5.90014">
        <ele>314.01</ele>
        <time>2019-11-30T13:24:42Z</time>
      </trkpt>
      <trkpt lat="43.45518" lon="5.8998">
        <ele>313.05</ele>
        <time>2019-11-30T13:24:50Z</time>
      </trkpt>
      <trkpt lat="43.45519" lon="5.89974">
        <ele>313.05</ele>
        <time>2019-11-30T13:24:51Z</time>
      </trkpt>
      <trkpt lat="43.45521" lon="5.89967">
        <ele>313.05</ele>
        <time>2019-11-30T13:24:52Z</time>
      </trkpt>
      <trkpt lat="43.45522" lon="5.89958">
        <ele>312.57</ele>
        <time>2019-11-30T13:24:53Z</time>
      </trkpt>
      <trkpt lat="43.45523" lon="5.8995">
        <ele>312.57</ele>
        <time>2019-11-30T13:24:54Z</time>
      </trkpt>
      <trkpt lat="43.45523" lon="5.89942">
        <ele>312.57</ele>
        <time>2019-11-30T13:24:55Z</time>
      </trkpt>
      <trkpt lat="43.45523" lon="5.89934">
        <ele>311.6</ele>
        <time>2019-11-30T13:24:56Z</time>
      </trkpt>
      <trkpt lat="43.45524" lon="5.89911">
        <ele>311.6</ele>
        <time>2019-11-30T13:24:59Z</time>
      </trkpt>
      <trkpt lat="43.45524" lon="5.89905">
        <ele>311.6</ele>
        <time>2019-11-30T13:25:00Z</time>
      </trkpt>
      <trkpt lat="43.45526" lon="5.89899">
        <ele>311.12</ele>
        <time>2019-11-30T13:25:01Z</time>
      </trkpt>
      <trkpt lat="43.4553" lon="5.89894">
        <ele>311.12</ele>
        <time>2019-11-30T13:25:02Z</time>
      </trkpt>
      <trkpt lat="43.45534" lon="5.89889">
        <ele>311.12</ele>
        <time>2019-11-30T13:25:03Z</time>
      </trkpt>
      <trkpt lat="43.45539" lon="5.89885">
        <ele>311.12</ele>
        <time>2019-11-30T13:25:04Z</time>
      </trkpt>
      <trkpt lat="43.45597" lon="5.8984">
        <ele>310.64</ele>
        <time>2019-11-30T13:25:18Z</time>
      </trkpt>
      <trkpt lat="43.4561" lon="5.89831">
        <ele>310.16</ele>
        <time>2019-11-30T13:25:23Z</time>
      </trkpt>
      <trkpt lat="43.45614" lon="5.89834">
        <ele>310.16</ele>
        <time>2019-11-30T13:25:24Z</time>
      </trkpt>
      <trkpt lat="43.45617" lon="5.89839">
        <ele>310.16</ele>
        <time>2019-11-30T13:25:26Z</time>
      </trkpt>
      <trkpt lat="43.45621" lon="5.89846">
        <ele>310.16</ele>
        <time>2019-11-30T13:25:27Z</time>
      </trkpt>
      <trkpt lat="43.45672" lon="5.89949">
        <ele>309.2</ele>
        <time>2019-11-30T13:25:44Z</time>
      </trkpt>
      <trkpt lat="43.45716" lon="5.90073">
        <ele>309.2</ele>
        <time>2019-11-30T13:26:01Z</time>
      </trkpt>
      <trkpt lat="43.45758" lon="5.90198">
        <ele>308.24</ele>
        <time>2019-11-30T13:26:19Z</time>
      </trkpt>
      <trkpt lat="43.45783" lon="5.90278">
        <ele>308.24</ele>
        <time>2019-11-30T13:26:30Z</time>
      </trkpt>
      <trkpt lat="43.45786" lon="5.90285">
        <ele>308.24</ele>
        <time>2019-11-30T13:26:31Z</time>
      </trkpt>
      <trkpt lat="43.45817" lon="5.90365">
        <ele>307.28</ele>
        <time>2019-11-30T13:26:42Z</time>
      </trkpt>
      <trkpt lat="43.45831" lon="5.9045">
        <ele>307.28</ele>
        <time>2019-11-30T13:26:53Z</time>
      </trkpt>
      <trkpt lat="43.45832" lon="5.90457">
        <ele>307.28</ele>
        <time>2019-11-30T13:26:54Z</time>
      </trkpt>
      <trkpt lat="43.4586" lon="5.90586">
        <ele>306.32</ele>
        <time>2019-11-30T13:27:12Z</time>
      </trkpt>
      <trkpt lat="43.45884" lon="5.90709">
        <ele>305.84</ele>
        <time>2019-11-30T13:27:28Z</time>
      </trkpt>
      <trkpt lat="43.45927" lon="5.90821">
        <ele>305.36</ele>
        <time>2019-11-30T13:27:45Z</time>
      </trkpt>
      <trkpt lat="43.45964" lon="5.9091">
        <ele>304.88</ele>
        <time>2019-11-30T13:27:59Z</time>
      </trkpt>
      <trkpt lat="43.45966" lon="5.90916">
        <ele>304.88</ele>
        <time>2019-11-30T13:28:00Z</time>
      </trkpt>
      <trkpt lat="43.45968" lon="5.90922">
        <ele>304.88</ele>
        <time>2019-11-30T13:28:01Z</time>
      </trkpt>
      <trkpt lat="43.45977" lon="5.90946">
        <ele>304.88</ele>
        <time>2019-11-30T13:28:05Z</time>
      </trkpt>
      <trkpt lat="43.4598" lon="5.90951">
        <ele>304.88</ele>
        <time>2019-11-30T13:28:06Z</time>
      </trkpt>
      <trkpt lat="43.45987" lon="5.90963">
        <ele>304.88</ele>
        <time>2019-11-30T13:28:08Z</time>
      </trkpt>
      <trkpt lat="43.4599" lon="5.90969">
        <ele>304.88</ele>
        <time>2019-11-30T13:28:09Z</time>
      </trkpt>
      <trkpt lat="43.46006" lon="5.90998">
        <ele>304.39</ele>
        <time>2019-11-30T13:28:14Z</time>
      </trkpt>
      <trkpt lat="43.46009" lon="5.91006">
        <ele>304.39</ele>
        <time>2019-11-30T13:28:15Z</time>
      </trkpt>
      <trkpt lat="43.46011" lon="5.91014">
        <ele>303.91</ele>
        <time>2019-11-30T13:28:16Z</time>
      </trkpt>
      <trkpt lat="43.46012" lon="5.91022">
        <ele>303.91</ele>
        <time>2019-11-30T13:28:17Z</time>
      </trkpt>
      <trkpt lat="43.46012" lon="5.91032">
        <ele>303.91</ele>
        <time>2019-11-30T13:28:18Z</time>
      </trkpt>
      <trkpt lat="43.46012" lon="5.91041">
        <ele>303.43</ele>
        <time>2019-11-30T13:28:19Z</time>
      </trkpt>
      <trkpt lat="43.46009" lon="5.9105">
        <ele>303.43</ele>
        <time>2019-11-30T13:28:20Z</time>
      </trkpt>
      <trkpt lat="43.46006" lon="5.91058">
        <ele>303.43</ele>
        <time>2019-11-30T13:28:21Z</time>
      </trkpt>
      <trkpt lat="43.46002" lon="5.91066">
        <ele>303.43</ele>
        <time>2019-11-30T13:28:22Z</time>
      </trkpt>
      <trkpt lat="43.45997" lon="5.91073">
        <ele>302.95</ele>
        <time>2019-11-30T13:28:23Z</time>
      </trkpt>
      <trkpt lat="43.45993" lon="5.9108">
        <ele>302.47</ele>
        <time>2019-11-30T13:28:24Z</time>
      </trkpt>
      <trkpt lat="43.45959" lon="5.91155">
        <ele>301.99</ele>
        <time>2019-11-30T13:28:34Z</time>
      </trkpt>
      <trkpt lat="43.45958" lon="5.91163">
        <ele>301.99</ele>
        <time>2019-11-30T13:28:35Z</time>
      </trkpt>
      <trkpt lat="43.45956" lon="5.91171">
        <ele>301.99</ele>
        <time>2019-11-30T13:28:36Z</time>
      </trkpt>
      <trkpt lat="43.4595" lon="5.91283">
        <ele>300.55</ele>
        <time>2019-11-30T13:28:50Z</time>
      </trkpt>
      <trkpt lat="43.4595" lon="5.9129">
        <ele>300.55</ele>
        <time>2019-11-30T13:28:51Z</time>
      </trkpt>
      <trkpt lat="43.45947" lon="5.91323">
        <ele>300.55</ele>
        <time>2019-11-30T13:28:56Z</time>
      </trkpt>
      <trkpt lat="43.45948" lon="5.91337">
        <ele>300.55</ele>
        <time>2019-11-30T13:28:58Z</time>
      </trkpt>
      <trkpt lat="43.45951" lon="5.91357">
        <ele>300.55</ele>
        <time>2019-11-30T13:29:01Z</time>
      </trkpt>
      <trkpt lat="43.45972" lon="5.91436">
        <ele>299.59</ele>
        <time>2019-11-30T13:29:12Z</time>
      </trkpt>
      <trkpt lat="43.45974" lon="5.9146">
        <ele>299.11</ele>
        <time>2019-11-30T13:29:15Z</time>
      </trkpt>
      <trkpt lat="43.45972" lon="5.91511">
        <ele>298.63</ele>
        <time>2019-11-30T13:29:22Z</time>
      </trkpt>
      <trkpt lat="43.45971" lon="5.91518">
        <ele>298.63</ele>
        <time>2019-11-30T13:29:23Z</time>
      </trkpt>
      <trkpt lat="43.45971" lon="5.91525">
        <ele>298.63</ele>
        <time>2019-11-30T13:29:24Z</time>
      </trkpt>
      <trkpt lat="43.45954" lon="5.9163">
        <ele>297.67</ele>
        <time>2019-11-30T13:29:38Z</time>
      </trkpt>
      <trkpt lat="43.45947" lon="5.91663">
        <ele>297.18</ele>
        <time>2019-11-30T13:29:42Z</time>
      </trkpt>
      <trkpt lat="43.45946" lon="5.91673">
        <ele>296.7</ele>
        <time>2019-11-30T13:29:43Z</time>
      </trkpt>
      <trkpt lat="43.45944" lon="5.91684">
        <ele>296.7</ele>
        <time>2019-11-30T13:29:44Z</time>
      </trkpt>
      <trkpt lat="43.45944" lon="5.91695">
        <ele>295.74</ele>
        <time>2019-11-30T13:29:45Z</time>
      </trkpt>
      <trkpt lat="43.45944" lon="5.91705">
        <ele>295.74</ele>
        <time>2019-11-30T13:29:46Z</time>
      </trkpt>
      <trkpt lat="43.45945" lon="5.91715">
        <ele>295.74</ele>
        <time>2019-11-30T13:29:47Z</time>
      </trkpt>
      <trkpt lat="43.45955" lon="5.91835">
        <ele>295.26</ele>
        <time>2019-11-30T13:29:58Z</time>
      </trkpt>
      <trkpt lat="43.45957" lon="5.91844">
        <ele>295.26</ele>
        <time>2019-11-30T13:29:59Z</time>
      </trkpt>
      <trkpt lat="43.45966" lon="5.91888">
        <ele>294.78</ele>
        <time>2019-11-30T13:30:04Z</time>
      </trkpt>
      <trkpt lat="43.45967" lon="5.91896">
        <ele>294.78</ele>
        <time>2019-11-30T13:30:05Z</time>
      </trkpt>
      <trkpt lat="43.45967" lon="5.91904">
        <ele>294.78</ele>
        <time>2019-11-30T13:30:06Z</time>
      </trkpt>
      <trkpt lat="43.45966" lon="5.91911">
        <ele>294.78</ele>
        <time>2019-11-30T13:30:07Z</time>
      </trkpt>
      <trkpt lat="43.45965" lon="5.91919">
        <ele>294.3</ele>
        <time>2019-11-30T13:30:08Z</time>
      </trkpt>
      <trkpt lat="43.45946" lon="5.92043">
        <ele>291.9</ele>
        <time>2019-11-30T13:30:22Z</time>
      </trkpt>
      <trkpt lat="43.45945" lon="5.92053">
        <ele>291.9</ele>
        <time>2019-11-30T13:30:23Z</time>
      </trkpt>
      <trkpt lat="43.45945" lon="5.92062">
        <ele>291.9</ele>
        <time>2019-11-30T13:30:24Z</time>
      </trkpt>
      <trkpt lat="43.45945" lon="5.92071">
        <ele>291.9</ele>
        <time>2019-11-30T13:30:25Z</time>
      </trkpt>
      <trkpt lat="43.45947" lon="5.9208">
        <ele>291.9</ele>
        <time>2019-11-30T13:30:26Z</time>
      </trkpt>
      <trkpt lat="43.4595" lon="5.92089">
        <ele>291.9</ele>
        <time>2019-11-30T13:30:27Z</time>
      </trkpt>
      <trkpt lat="43.45953" lon="5.92097">
        <ele>291.9</ele>
        <time>2019-11-30T13:30:28Z</time>
      </trkpt>
      <trkpt lat="43.45957" lon="5.92105">
        <ele>291.9</ele>
        <time>2019-11-30T13:30:29Z</time>
      </trkpt>
      <trkpt lat="43.45962" lon="5.92112">
        <ele>291.9</ele>
        <time>2019-11-30T13:30:30Z</time>
      </trkpt>
      <trkpt lat="43.45966" lon="5.92119">
        <ele>291.9</ele>
        <time>2019-11-30T13:30:31Z</time>
      </trkpt>
      <trkpt lat="43.45972" lon="5.92125">
        <ele>291.42</ele>
        <time>2019-11-30T13:30:32Z</time>
      </trkpt>
      <trkpt lat="43.45978" lon="5.9213">
        <ele>291.42</ele>
        <time>2019-11-30T13:30:33Z</time>
      </trkpt>
      <trkpt lat="43.45984" lon="5.92135">
        <ele>291.42</ele>
        <time>2019-11-30T13:30:34Z</time>
      </trkpt>
      <trkpt lat="43.46027" lon="5.92174">
        <ele>290.46</ele>
        <time>2019-11-30T13:30:42Z</time>
      </trkpt>
      <trkpt lat="43.46035" lon="5.92186">
        <ele>289.97</ele>
        <time>2019-11-30T13:30:44Z</time>
      </trkpt>
      <trkpt lat="43.46039" lon="5.92193">
        <ele>289.97</ele>
        <time>2019-11-30T13:30:45Z</time>
      </trkpt>
      <trkpt lat="43.46042" lon="5.92199">
        <ele>289.97</ele>
        <time>2019-11-30T13:30:46Z</time>
      </trkpt>
      <trkpt lat="43.46049" lon="5.92219">
        <ele>289.01</ele>
        <time>2019-11-30T13:30:49Z</time>
      </trkpt>
      <trkpt lat="43.4605" lon="5.92224">
        <ele>289.01</ele>
        <time>2019-11-30T13:30:50Z</time>
      </trkpt>
      <trkpt lat="43.46049" lon="5.92228">
        <ele>289.01</ele>
        <time>2019-11-30T13:30:51Z</time>
      </trkpt>
      <trkpt lat="43.46047" lon="5.92231">
        <ele>289.01</ele>
        <time>2019-11-30T13:30:52Z</time>
      </trkpt>
      <trkpt lat="43.46044" lon="5.92233">
        <ele>289.01</ele>
        <time>2019-11-30T13:30:53Z</time>
      </trkpt>
      <trkpt lat="43.46042" lon="5.92232">
        <ele>289.01</ele>
        <time>2019-11-30T13:30:54Z</time>
      </trkpt>
      <trkpt lat="43.46039" lon="5.92232">
        <ele>289.01</ele>
        <time>2019-11-30T13:30:55Z</time>
      </trkpt>
      <trkpt lat="43.46008" lon="5.92227">
        <ele>292.38</ele>
        <time>2019-11-30T13:31:06Z</time>
      </trkpt>
      <trkpt lat="43.45993" lon="5.92226">
        <ele>293.82</ele>
        <time>2019-11-30T13:31:11Z</time>
      </trkpt>
      <trkpt lat="43.45967" lon="5.92227">
        <ele>296.22</ele>
        <time>2019-11-30T13:31:21Z</time>
      </trkpt>
      <trkpt lat="43.45944" lon="5.92231">
        <ele>299.59</ele>
        <time>2019-11-30T13:31:31Z</time>
      </trkpt>
      <trkpt lat="43.45912" lon="5.92243">
        <ele>302.95</ele>
        <time>2019-11-30T13:31:45Z</time>
      </trkpt>
      <trkpt lat="43.45896" lon="5.92269">
        <ele>306.32</ele>
        <time>2019-11-30T13:31:57Z</time>
      </trkpt>
      <trkpt lat="43.4589" lon="5.92277">
        <ele>306.8</ele>
        <time>2019-11-30T13:32:00Z</time>
      </trkpt>
      <trkpt lat="43.45888" lon="5.92279">
        <ele>306.32</ele>
        <time>2019-11-30T13:32:01Z</time>
      </trkpt>
      <trkpt lat="43.45887" lon="5.92282">
        <ele>306.32</ele>
        <time>2019-11-30T13:32:02Z</time>
      </trkpt>
      <trkpt lat="43.45885" lon="5.92283">
        <ele>306.8</ele>
        <time>2019-11-30T13:32:03Z</time>
      </trkpt>
      <trkpt lat="43.45884" lon="5.92285">
        <ele>306.8</ele>
        <time>2019-11-30T13:32:04Z</time>
      </trkpt>
      <trkpt lat="43.45882" lon="5.92287">
        <ele>307.28</ele>
        <time>2019-11-30T13:32:05Z</time>
      </trkpt>
      <trkpt lat="43.4588" lon="5.92289">
        <ele>307.28</ele>
        <time>2019-11-30T13:32:06Z</time>
      </trkpt>
      <trkpt lat="43.45857" lon="5.92318">
        <ele>307.76</ele>
        <time>2019-11-30T13:32:15Z</time>
      </trkpt>
      <trkpt lat="43.45839" lon="5.92333">
        <ele>307.76</ele>
        <time>2019-11-30T13:32:20Z</time>
      </trkpt>
      <trkpt lat="43.45835" lon="5.92333">
        <ele>306.32</ele>
        <time>2019-11-30T13:32:21Z</time>
      </trkpt>
      <trkpt lat="43.45831" lon="5.92331">
        <ele>305.84</ele>
        <time>2019-11-30T13:32:22Z</time>
      </trkpt>
      <trkpt lat="43.45827" lon="5.92329">
        <ele>305.84</ele>
        <time>2019-11-30T13:32:23Z</time>
      </trkpt>
      <trkpt lat="43.45824" lon="5.92327">
        <ele>305.36</ele>
        <time>2019-11-30T13:32:24Z</time>
      </trkpt>
      <trkpt lat="43.45819" lon="5.92322">
        <ele>305.36</ele>
        <time>2019-11-30T13:32:27Z</time>
      </trkpt>
      <trkpt lat="43.45817" lon="5.92316">
        <ele>303.91</ele>
        <time>2019-11-30T13:32:30Z</time>
      </trkpt>
      <trkpt lat="43.45813" lon="5.9231">
        <ele>303.91</ele>
        <time>2019-11-30T13:32:32Z</time>
      </trkpt>
      <trkpt lat="43.45778" lon="5.92282">
        <ele>303.91</ele>
        <time>2019-11-30T13:32:43Z</time>
      </trkpt>
      <trkpt lat="43.45766" lon="5.92277">
        <ele>305.36</ele>
        <time>2019-11-30T13:32:45Z</time>
      </trkpt>
      <trkpt lat="43.45761" lon="5.92275">
        <ele>305.36</ele>
        <time>2019-11-30T13:32:46Z</time>
      </trkpt>
      <trkpt lat="43.45712" lon="5.92258">
        <ele>307.76</ele>
        <time>2019-11-30T13:32:56Z</time>
      </trkpt>
      <trkpt lat="43.45676" lon="5.92246">
        <ele>308.72</ele>
        <time>2019-11-30T13:33:07Z</time>
      </trkpt>
      <trkpt lat="43.45669" lon="5.92246">
        <ele>309.2</ele>
        <time>2019-11-30T13:33:11Z</time>
      </trkpt>
      <trkpt lat="43.45664" lon="5.92239">
        <ele>309.2</ele>
        <time>2019-11-30T13:33:15Z</time>
      </trkpt>
      <trkpt lat="43.45635" lon="5.9222">
        <ele>309.68</ele>
        <time>2019-11-30T13:33:29Z</time>
      </trkpt>
      <trkpt lat="43.45591" lon="5.92205">
        <ele>310.16</ele>
        <time>2019-11-30T13:33:43Z</time>
      </trkpt>
      <trkpt lat="43.45545" lon="5.92223">
        <ele>309.2</ele>
        <time>2019-11-30T13:33:55Z</time>
      </trkpt>
      <trkpt lat="43.45504" lon="5.92254">
        <ele>310.64</ele>
        <time>2019-11-30T13:34:10Z</time>
      </trkpt>
      <trkpt lat="43.45501" lon="5.92267">
        <ele>311.12</ele>
        <time>2019-11-30T13:34:16Z</time>
      </trkpt>
      <trkpt lat="43.455" lon="5.92269">
        <ele>311.12</ele>
        <time>2019-11-30T13:34:17Z</time>
      </trkpt>
      <trkpt lat="43.45499" lon="5.9227">
        <ele>311.6</ele>
        <time>2019-11-30T13:34:18Z</time>
      </trkpt>
      <trkpt lat="43.45497" lon="5.92273">
        <ele>311.6</ele>
        <time>2019-11-30T13:34:19Z</time>
      </trkpt>
      <trkpt lat="43.4548" lon="5.92282">
        <ele>311.6</ele>
        <time>2019-11-30T13:34:26Z</time>
      </trkpt>
      <trkpt lat="43.45456" lon="5.92285">
        <ele>310.16</ele>
        <time>2019-11-30T13:34:34Z</time>
      </trkpt>
      <trkpt lat="43.45428" lon="5.9229">
        <ele>310.16</ele>
        <time>2019-11-30T13:34:48Z</time>
      </trkpt>
      <trkpt lat="43.45418" lon="5.92288">
        <ele>310.16</ele>
        <time>2019-11-30T13:34:54Z</time>
      </trkpt>
      <trkpt lat="43.45413" lon="5.92286">
        <ele>309.68</ele>
        <time>2019-11-30T13:35:02Z</time>
      </trkpt>
      <trkpt lat="43.45397" lon="5.923">
        <ele>311.6</ele>
        <time>2019-11-30T13:35:15Z</time>
      </trkpt>
      <trkpt lat="43.45392" lon="5.92304">
        <ele>312.09</ele>
        <time>2019-11-30T13:35:20Z</time>
      </trkpt>
      <trkpt lat="43.45386" lon="5.92308">
        <ele>312.09</ele>
        <time>2019-11-30T13:35:27Z</time>
      </trkpt>
      <trkpt lat="43.45379" lon="5.92304">
        <ele>312.09</ele>
        <time>2019-11-30T13:35:40Z</time>
      </trkpt>
      <trkpt lat="43.45369" lon="5.92299">
        <ele>311.6</ele>
        <time>2019-11-30T13:35:54Z</time>
      </trkpt>
      <trkpt lat="43.4536" lon="5.92296">
        <ele>310.64</ele>
        <time>2019-11-30T13:36:07Z</time>
      </trkpt>
      <trkpt lat="43.45363" lon="5.92298">
        <ele>312.09</ele>
        <time>2019-11-30T13:36:16Z</time>
      </trkpt>
      <trkpt lat="43.45366" lon="5.92298">
        <ele>312.09</ele>
        <time>2019-11-30T13:36:20Z</time>
      </trkpt>
      <trkpt lat="43.45369" lon="5.923">
        <ele>312.09</ele>
        <time>2019-11-30T13:36:23Z</time>
      </trkpt>
      <trkpt lat="43.45374" lon="5.92299">
        <ele>312.09</ele>
        <time>2019-11-30T13:36:28Z</time>
      </trkpt>
      <trkpt lat="43.45379" lon="5.92302">
        <ele>311.6</ele>
        <time>2019-11-30T13:36:32Z</time>
      </trkpt>
      <trkpt lat="43.45386" lon="5.92295">
        <ele>310.16</ele>
        <time>2019-11-30T13:36:36Z</time>
      </trkpt>
      <trkpt lat="43.45404" lon="5.92284">
        <ele>308.72</ele>
        <time>2019-11-30T13:36:45Z</time>
      </trkpt>
      <trkpt lat="43.45406" lon="5.9228">
        <ele>307.28</ele>
        <time>2019-11-30T13:36:47Z</time>
      </trkpt>
      <trkpt lat="43.45403" lon="5.92258">
        <ele>305.84</ele>
        <time>2019-11-30T13:36:54Z</time>
      </trkpt>
      <trkpt lat="43.45396" lon="5.9221">
        <ele>305.36</ele>
        <time>2019-11-30T13:37:04Z</time>
      </trkpt>
      <trkpt lat="43.45385" lon="5.92158">
        <ele>305.36</ele>
        <time>2019-11-30T13:37:16Z</time>
      </trkpt>
      <trkpt lat="43.45383" lon="5.92145">
        <ele>306.32</ele>
        <time>2019-11-30T13:37:19Z</time>
      </trkpt>
      <trkpt lat="43.45382" lon="5.92141">
        <ele>307.28</ele>
        <time>2019-11-30T13:37:20Z</time>
      </trkpt>
      <trkpt lat="43.45375" lon="5.92137">
        <ele>307.76</ele>
        <time>2019-11-30T13:37:25Z</time>
      </trkpt>
      <trkpt lat="43.45373" lon="5.92139">
        <ele>307.76</ele>
        <time>2019-11-30T13:37:26Z</time>
      </trkpt>
      <trkpt lat="43.45372" lon="5.9214">
        <ele>307.76</ele>
        <time>2019-11-30T13:37:27Z</time>
      </trkpt>
      <trkpt lat="43.4537" lon="5.92142">
        <ele>307.76</ele>
        <time>2019-11-30T13:37:28Z</time>
      </trkpt>
      <trkpt lat="43.45341" lon="5.92171">
        <ele>305.84</ele>
        <time>2019-11-30T13:37:40Z</time>
      </trkpt>
      <trkpt lat="43.45337" lon="5.92175">
        <ele>305.84</ele>
        <time>2019-11-30T13:37:41Z</time>
      </trkpt>
      <trkpt lat="43.45334" lon="5.92179">
        <ele>305.36</ele>
        <time>2019-11-30T13:37:42Z</time>
      </trkpt>
      <trkpt lat="43.45332" lon="5.92184">
        <ele>305.36</ele>
        <time>2019-11-30T13:37:43Z</time>
      </trkpt>
      <trkpt lat="43.45329" lon="5.9219">
        <ele>304.39</ele>
        <time>2019-11-30T13:37:44Z</time>
      </trkpt>
      <trkpt lat="43.45327" lon="5.92196">
        <ele>304.39</ele>
        <time>2019-11-30T13:37:45Z</time>
      </trkpt>
      <trkpt lat="43.45325" lon="5.92203">
        <ele>304.39</ele>
        <time>2019-11-30T13:37:46Z</time>
      </trkpt>
      <trkpt lat="43.45323" lon="5.92209">
        <ele>304.39</ele>
        <time>2019-11-30T13:37:47Z</time>
      </trkpt>
      <trkpt lat="43.45319" lon="5.92216">
        <ele>303.43</ele>
        <time>2019-11-30T13:37:48Z</time>
      </trkpt>
      <trkpt lat="43.45316" lon="5.92223">
        <ele>303.43</ele>
        <time>2019-11-30T13:37:49Z</time>
      </trkpt>
      <trkpt lat="43.4531" lon="5.92234">
        <ele>302.47</ele>
        <time>2019-11-30T13:37:51Z</time>
      </trkpt>
      <trkpt lat="43.45306" lon="5.92239">
        <ele>301.99</ele>
        <time>2019-11-30T13:37:52Z</time>
      </trkpt>
      <trkpt lat="43.45302" lon="5.92242">
        <ele>301.51</ele>
        <time>2019-11-30T13:37:53Z</time>
      </trkpt>
      <trkpt lat="43.45264" lon="5.92271">
        <ele>299.59</ele>
        <time>2019-11-30T13:38:02Z</time>
      </trkpt>
      <trkpt lat="43.45259" lon="5.92272">
        <ele>299.59</ele>
        <time>2019-11-30T13:38:03Z</time>
      </trkpt>
      <trkpt lat="43.45256" lon="5.92272">
        <ele>299.11</ele>
        <time>2019-11-30T13:38:04Z</time>
      </trkpt>
      <trkpt lat="43.45254" lon="5.92272">
        <ele>299.11</ele>
        <time>2019-11-30T13:38:05Z</time>
      </trkpt>
      <trkpt lat="43.45252" lon="5.92272">
        <ele>299.11</ele>
        <time>2019-11-30T13:38:06Z</time>
      </trkpt>
      <trkpt lat="43.45244" lon="5.92274">
        <ele>298.63</ele>
        <time>2019-11-30T13:38:18Z</time>
      </trkpt>
      <trkpt lat="43.4524" lon="5.92276">
        <ele>298.63</ele>
        <time>2019-11-30T13:38:22Z</time>
      </trkpt>
      <trkpt lat="43.45237" lon="5.92277">
        <ele>298.15</ele>
        <time>2019-11-30T13:38:23Z</time>
      </trkpt>
      <trkpt lat="43.45236" lon="5.92278">
        <ele>297.67</ele>
        <time>2019-11-30T13:38:24Z</time>
      </trkpt>
      <trkpt lat="43.45235" lon="5.92279">
        <ele>297.67</ele>
        <time>2019-11-30T13:38:25Z</time>
      </trkpt>
      <trkpt lat="43.45234" lon="5.92279">
        <ele>297.67</ele>
        <time>2019-11-30T13:38:26Z</time>
      </trkpt>
      <trkpt lat="43.45232" lon="5.92279">
        <ele>296.7</ele>
        <time>2019-11-30T13:38:27Z</time>
      </trkpt>
      <trkpt lat="43.4523" lon="5.9228">
        <ele>296.7</ele>
        <time>2019-11-30T13:38:28Z</time>
      </trkpt>
      <trkpt lat="43.45229" lon="5.9228">
        <ele>296.7</ele>
        <time>2019-11-30T13:38:29Z</time>
      </trkpt>
      <trkpt lat="43.45226" lon="5.92281">
        <ele>296.7</ele>
        <time>2019-11-30T13:38:32Z</time>
      </trkpt>
      <trkpt lat="43.45224" lon="5.92281">
        <ele>295.74</ele>
        <time>2019-11-30T13:38:33Z</time>
      </trkpt>
      <trkpt lat="43.45216" lon="5.92283">
        <ele>294.78</ele>
        <time>2019-11-30T13:38:38Z</time>
      </trkpt>
      <trkpt lat="43.45204" lon="5.92282">
        <ele>293.34</ele>
        <time>2019-11-30T13:38:45Z</time>
      </trkpt>
      <trkpt lat="43.45202" lon="5.92284">
        <ele>293.34</ele>
        <time>2019-11-30T13:38:46Z</time>
      </trkpt>
      <trkpt lat="43.45198" lon="5.92288">
        <ele>293.34</ele>
        <time>2019-11-30T13:38:48Z</time>
      </trkpt>
      <trkpt lat="43.45196" lon="5.9229">
        <ele>292.86</ele>
        <time>2019-11-30T13:38:49Z</time>
      </trkpt>
      <trkpt lat="43.45193" lon="5.92291">
        <ele>292.86</ele>
        <time>2019-11-30T13:38:50Z</time>
      </trkpt>
      <trkpt lat="43.4519" lon="5.92292">
        <ele>292.86</ele>
        <time>2019-11-30T13:38:51Z</time>
      </trkpt>
      <trkpt lat="43.45188" lon="5.92294">
        <ele>292.38</ele>
        <time>2019-11-30T13:38:52Z</time>
      </trkpt>
      <trkpt lat="43.45186" lon="5.92296">
        <ele>292.38</ele>
        <time>2019-11-30T13:38:53Z</time>
      </trkpt>
      <trkpt lat="43.45183" lon="5.92298">
        <ele>292.38</ele>
        <time>2019-11-30T13:38:54Z</time>
      </trkpt>
      <trkpt lat="43.45181" lon="5.92301">
        <ele>292.38</ele>
        <time>2019-11-30T13:38:55Z</time>
      </trkpt>
      <trkpt lat="43.45178" lon="5.92305">
        <ele>292.38</ele>
        <time>2019-11-30T13:38:56Z</time>
      </trkpt>
      <trkpt lat="43.45176" lon="5.92308">
        <ele>292.38</ele>
        <time>2019-11-30T13:38:57Z</time>
      </trkpt>
      <trkpt lat="43.45174" lon="5.9231">
        <ele>292.38</ele>
        <time>2019-11-30T13:38:58Z</time>
      </trkpt>
      <trkpt lat="43.45172" lon="5.92312">
        <ele>292.38</ele>
        <time>2019-11-30T13:38:59Z</time>
      </trkpt>
      <trkpt lat="43.45169" lon="5.92315">
        <ele>292.38</ele>
        <time>2019-11-30T13:39:00Z</time>
      </trkpt>
      <trkpt lat="43.45167" lon="5.92318">
        <ele>292.38</ele>
        <time>2019-11-30T13:39:01Z</time>
      </trkpt>
      <trkpt lat="43.45164" lon="5.92321">
        <ele>292.38</ele>
        <time>2019-11-30T13:39:02Z</time>
      </trkpt>
      <trkpt lat="43.45161" lon="5.92323">
        <ele>292.38</ele>
        <time>2019-11-30T13:39:03Z</time>
      </trkpt>
      <trkpt lat="43.45159" lon="5.92326">
        <ele>292.38</ele>
        <time>2019-11-30T13:39:04Z</time>
      </trkpt>
      <trkpt lat="43.45151" lon="5.92339">
        <ele>291.9</ele>
        <time>2019-11-30T13:39:09Z</time>
      </trkpt>
      <trkpt lat="43.45136" lon="5.92359">
        <ele>290.46</ele>
        <time>2019-11-30T13:39:14Z</time>
      </trkpt>
      <trkpt lat="43.4513" lon="5.92369">
        <ele>289.01</ele>
        <time>2019-11-30T13:39:17Z</time>
      </trkpt>
      <trkpt lat="43.45128" lon="5.9237">
        <ele>288.53</ele>
        <time>2019-11-30T13:39:18Z</time>
      </trkpt>
      <trkpt lat="43.45111" lon="5.92383">
        <ele>288.05</ele>
        <time>2019-11-30T13:39:27Z</time>
      </trkpt>
      <trkpt lat="43.45111" lon="5.92384">
        <ele>288.05</ele>
        <time>2019-11-30T13:39:28Z</time>
      </trkpt>
      <trkpt lat="43.45111" lon="5.92385">
        <ele>288.05</ele>
        <time>2019-11-30T13:39:29Z</time>
      </trkpt>
      <trkpt lat="43.45112" lon="5.92386">
        <ele>288.05</ele>
        <time>2019-11-30T13:39:30Z</time>
      </trkpt>
      <trkpt lat="43.45113" lon="5.92389">
        <ele>288.05</ele>
        <time>2019-11-30T13:39:31Z</time>
      </trkpt>
      <trkpt lat="43.45114" lon="5.92392">
        <ele>288.05</ele>
        <time>2019-11-30T13:39:32Z</time>
      </trkpt>
      <trkpt lat="43.45115" lon="5.92397">
        <ele>288.53</ele>
        <time>2019-11-30T13:39:33Z</time>
      </trkpt>
      <trkpt lat="43.45116" lon="5.92402">
        <ele>288.53</ele>
        <time>2019-11-30T13:39:34Z</time>
      </trkpt>
      <trkpt lat="43.45117" lon="5.92407">
        <ele>288.53</ele>
        <time>2019-11-30T13:39:35Z</time>
      </trkpt>
      <trkpt lat="43.45121" lon="5.9241">
        <ele>288.53</ele>
        <time>2019-11-30T13:39:36Z</time>
      </trkpt>
      <trkpt lat="43.45124" lon="5.92413">
        <ele>288.53</ele>
        <time>2019-11-30T13:39:37Z</time>
      </trkpt>
      <trkpt lat="43.45128" lon="5.92415">
        <ele>288.53</ele>
        <time>2019-11-30T13:39:38Z</time>
      </trkpt>
      <trkpt lat="43.45133" lon="5.92417">
        <ele>288.53</ele>
        <time>2019-11-30T13:39:39Z</time>
      </trkpt>
      <trkpt lat="43.45137" lon="5.92419">
        <ele>288.53</ele>
        <time>2019-11-30T13:39:40Z</time>
      </trkpt>
      <trkpt lat="43.45142" lon="5.9242">
        <ele>288.53</ele>
        <time>2019-11-30T13:39:41Z</time>
      </trkpt>
      <trkpt lat="43.45146" lon="5.92422">
        <ele>288.53</ele>
        <time>2019-11-30T13:39:42Z</time>
      </trkpt>
      <trkpt lat="43.4515" lon="5.92423">
        <ele>288.53</ele>
        <time>2019-11-30T13:39:43Z</time>
      </trkpt>
      <trkpt lat="43.45152" lon="5.92424">
        <ele>288.53</ele>
        <time>2019-11-30T13:39:44Z</time>
      </trkpt>
      <trkpt lat="43.45155" lon="5.92425">
        <ele>288.53</ele>
        <time>2019-11-30T13:39:45Z</time>
      </trkpt>
      <trkpt lat="43.45157" lon="5.92425">
        <ele>288.53</ele>
        <time>2019-11-30T13:39:46Z</time>
      </trkpt>
      <trkpt lat="43.45159" lon="5.92425">
        <ele>288.53</ele>
        <time>2019-11-30T13:39:47Z</time>
      </trkpt>
      <trkpt lat="43.45161" lon="5.92426">
        <ele>288.53</ele>
        <time>2019-11-30T13:39:48Z</time>
      </trkpt>
      <trkpt lat="43.45187" lon="5.9242">
        <ele>290.94</ele>
        <time>2019-11-30T13:39:58Z</time>
      </trkpt>
      <trkpt lat="43.45198" lon="5.92421">
        <ele>291.42</ele>
        <time>2019-11-30T13:40:04Z</time>
      </trkpt>
      <trkpt lat="43.45202" lon="5.92422">
        <ele>291.42</ele>
        <time>2019-11-30T13:40:05Z</time>
      </trkpt>
      <trkpt lat="43.45233" lon="5.92427">
        <ele>291.42</ele>
        <time>2019-11-30T13:40:15Z</time>
      </trkpt>
      <trkpt lat="43.45247" lon="5.9243">
        <ele>291.42</ele>
        <time>2019-11-30T13:40:19Z</time>
      </trkpt>
      <trkpt lat="43.45279" lon="5.92431">
        <ele>291.42</ele>
        <time>2019-11-30T13:40:27Z</time>
      </trkpt>
      <trkpt lat="43.45283" lon="5.92431">
        <ele>291.42</ele>
        <time>2019-11-30T13:40:28Z</time>
      </trkpt>
      <trkpt lat="43.45287" lon="5.92432">
        <ele>291.42</ele>
        <time>2019-11-30T13:40:29Z</time>
      </trkpt>
      <trkpt lat="43.4529" lon="5.92432">
        <ele>291.42</ele>
        <time>2019-11-30T13:40:30Z</time>
      </trkpt>
      <trkpt lat="43.45294" lon="5.92432">
        <ele>291.42</ele>
        <time>2019-11-30T13:40:31Z</time>
      </trkpt>
      <trkpt lat="43.45337" lon="5.9245">
        <ele>291.9</ele>
        <time>2019-11-30T13:40:42Z</time>
      </trkpt>
      <trkpt lat="43.45361" lon="5.92473">
        <ele>292.86</ele>
        <time>2019-11-30T13:40:48Z</time>
      </trkpt>
      <trkpt lat="43.45403" lon="5.9253">
        <ele>293.82</ele>
        <time>2019-11-30T13:41:01Z</time>
      </trkpt>
      <trkpt lat="43.45405" lon="5.92535">
        <ele>293.82</ele>
        <time>2019-11-30T13:41:02Z</time>
      </trkpt>
      <trkpt lat="43.4541" lon="5.9254">
        <ele>293.82</ele>
        <time>2019-11-30T13:41:03Z</time>
      </trkpt>
      <trkpt lat="43.45415" lon="5.92545">
        <ele>293.82</ele>
        <time>2019-11-30T13:41:04Z</time>
      </trkpt>
      <trkpt lat="43.45425" lon="5.92554">
        <ele>293.82</ele>
        <time>2019-11-30T13:41:06Z</time>
      </trkpt>
      <trkpt lat="43.4543" lon="5.92558">
        <ele>293.82</ele>
        <time>2019-11-30T13:41:07Z</time>
      </trkpt>
      <trkpt lat="43.45435" lon="5.92562">
        <ele>293.82</ele>
        <time>2019-11-30T13:41:08Z</time>
      </trkpt>
      <trkpt lat="43.4546" lon="5.92587">
        <ele>293.82</ele>
        <time>2019-11-30T13:41:17Z</time>
      </trkpt>
      <trkpt lat="43.45481" lon="5.92604">
        <ele>292.38</ele>
        <time>2019-11-30T13:41:23Z</time>
      </trkpt>
      <trkpt lat="43.45484" lon="5.92609">
        <ele>292.38</ele>
        <time>2019-11-30T13:41:24Z</time>
      </trkpt>
      <trkpt lat="43.4552" lon="5.92668">
        <ele>290.94</ele>
        <time>2019-11-30T13:41:37Z</time>
      </trkpt>
      <trkpt lat="43.45536" lon="5.927">
        <ele>290.94</ele>
        <time>2019-11-30T13:41:46Z</time>
      </trkpt>
      <trkpt lat="43.45548" lon="5.92744">
        <ele>289.49</ele>
        <time>2019-11-30T13:41:55Z</time>
      </trkpt>
      <trkpt lat="43.45549" lon="5.92751">
        <ele>288.53</ele>
        <time>2019-11-30T13:41:56Z</time>
      </trkpt>
      <trkpt lat="43.4555" lon="5.92758">
        <ele>288.05</ele>
        <time>2019-11-30T13:41:57Z</time>
      </trkpt>
      <trkpt lat="43.45553" lon="5.92765">
        <ele>288.05</ele>
        <time>2019-11-30T13:41:58Z</time>
      </trkpt>
      <trkpt lat="43.45555" lon="5.92772">
        <ele>287.57</ele>
        <time>2019-11-30T13:41:59Z</time>
      </trkpt>
      <trkpt lat="43.45558" lon="5.92779">
        <ele>287.57</ele>
        <time>2019-11-30T13:42:00Z</time>
      </trkpt>
      <trkpt lat="43.45583" lon="5.92891">
        <ele>287.09</ele>
        <time>2019-11-30T13:42:14Z</time>
      </trkpt>
      <trkpt lat="43.45584" lon="5.92909">
        <ele>287.09</ele>
        <time>2019-11-30T13:42:16Z</time>
      </trkpt>
      <trkpt lat="43.45583" lon="5.92917">
        <ele>287.09</ele>
        <time>2019-11-30T13:42:17Z</time>
      </trkpt>
      <trkpt lat="43.45582" lon="5.92925">
        <ele>287.09</ele>
        <time>2019-11-30T13:42:18Z</time>
      </trkpt>
      <trkpt lat="43.45577" lon="5.92955">
        <ele>287.09</ele>
        <time>2019-11-30T13:42:22Z</time>
      </trkpt>
      <trkpt lat="43.45575" lon="5.9296">
        <ele>287.09</ele>
        <time>2019-11-30T13:42:23Z</time>
      </trkpt>
      <trkpt lat="43.45572" lon="5.92963">
        <ele>287.09</ele>
        <time>2019-11-30T13:42:24Z</time>
      </trkpt>
      <trkpt lat="43.45568" lon="5.92967">
        <ele>287.09</ele>
        <time>2019-11-30T13:42:25Z</time>
      </trkpt>
      <trkpt lat="43.45564" lon="5.92971">
        <ele>287.09</ele>
        <time>2019-11-30T13:42:26Z</time>
      </trkpt>
      <trkpt lat="43.45561" lon="5.92977">
        <ele>287.09</ele>
        <time>2019-11-30T13:42:27Z</time>
      </trkpt>
      <trkpt lat="43.4556" lon="5.92985">
        <ele>287.09</ele>
        <time>2019-11-30T13:42:28Z</time>
      </trkpt>
      <trkpt lat="43.4556" lon="5.92993">
        <ele>287.09</ele>
        <time>2019-11-30T13:42:29Z</time>
      </trkpt>
      <trkpt lat="43.4556" lon="5.93002">
        <ele>287.09</ele>
        <time>2019-11-30T13:42:30Z</time>
      </trkpt>
      <trkpt lat="43.45559" lon="5.93011">
        <ele>287.09</ele>
        <time>2019-11-30T13:42:31Z</time>
      </trkpt>
      <trkpt lat="43.45558" lon="5.93053">
        <ele>287.09</ele>
        <time>2019-11-30T13:42:36Z</time>
      </trkpt>
      <trkpt lat="43.45559" lon="5.93062">
        <ele>287.09</ele>
        <time>2019-11-30T13:42:37Z</time>
      </trkpt>
      <trkpt lat="43.45569" lon="5.93109">
        <ele>289.01</ele>
        <time>2019-11-30T13:42:43Z</time>
      </trkpt>
      <trkpt lat="43.45569" lon="5.93117">
        <ele>289.49</ele>
        <time>2019-11-30T13:42:44Z</time>
      </trkpt>
      <trkpt lat="43.45569" lon="5.93126">
        <ele>289.49</ele>
        <time>2019-11-30T13:42:45Z</time>
      </trkpt>
      <trkpt lat="43.45566" lon="5.93142">
        <ele>289.49</ele>
        <time>2019-11-30T13:42:47Z</time>
      </trkpt>
      <trkpt lat="43.45565" lon="5.93151">
        <ele>289.49</ele>
        <time>2019-11-30T13:42:48Z</time>
      </trkpt>
      <trkpt lat="43.45565" lon="5.93159">
        <ele>289.49</ele>
        <time>2019-11-30T13:42:49Z</time>
      </trkpt>
      <trkpt lat="43.45567" lon="5.93168">
        <ele>289.97</ele>
        <time>2019-11-30T13:42:50Z</time>
      </trkpt>
      <trkpt lat="43.45568" lon="5.93176">
        <ele>289.97</ele>
        <time>2019-11-30T13:42:51Z</time>
      </trkpt>
      <trkpt lat="43.45575" lon="5.932">
        <ele>290.46</ele>
        <time>2019-11-30T13:42:54Z</time>
      </trkpt>
      <trkpt lat="43.45578" lon="5.93208">
        <ele>290.46</ele>
        <time>2019-11-30T13:42:55Z</time>
      </trkpt>
      <trkpt lat="43.45585" lon="5.93224">
        <ele>289.97</ele>
        <time>2019-11-30T13:42:57Z</time>
      </trkpt>
      <trkpt lat="43.45587" lon="5.93232">
        <ele>289.97</ele>
        <time>2019-11-30T13:42:58Z</time>
      </trkpt>
      <trkpt lat="43.4561" lon="5.93346">
        <ele>288.53</ele>
        <time>2019-11-30T13:43:11Z</time>
      </trkpt>
      <trkpt lat="43.45621" lon="5.93393">
        <ele>288.05</ele>
        <time>2019-11-30T13:43:16Z</time>
      </trkpt>
      <trkpt lat="43.45624" lon="5.93402">
        <ele>288.05</ele>
        <time>2019-11-30T13:43:17Z</time>
      </trkpt>
      <trkpt lat="43.45632" lon="5.93418">
        <ele>288.05</ele>
        <time>2019-11-30T13:43:19Z</time>
      </trkpt>
      <trkpt lat="43.45635" lon="5.93427">
        <ele>288.05</ele>
        <time>2019-11-30T13:43:20Z</time>
      </trkpt>
      <trkpt lat="43.45675" lon="5.93526">
        <ele>287.57</ele>
        <time>2019-11-30T13:43:32Z</time>
      </trkpt>
      <trkpt lat="43.45679" lon="5.93533">
        <ele>287.57</ele>
        <time>2019-11-30T13:43:33Z</time>
      </trkpt>
      <trkpt lat="43.45685" lon="5.9354">
        <ele>287.57</ele>
        <time>2019-11-30T13:43:34Z</time>
      </trkpt>
      <trkpt lat="43.45695" lon="5.93554">
        <ele>287.57</ele>
        <time>2019-11-30T13:43:36Z</time>
      </trkpt>
      <trkpt lat="43.45699" lon="5.93562">
        <ele>287.57</ele>
        <time>2019-11-30T13:43:37Z</time>
      </trkpt>
      <trkpt lat="43.45702" lon="5.93571">
        <ele>287.57</ele>
        <time>2019-11-30T13:43:38Z</time>
      </trkpt>
      <trkpt lat="43.45705" lon="5.93579">
        <ele>287.57</ele>
        <time>2019-11-30T13:43:39Z</time>
      </trkpt>
      <trkpt lat="43.45707" lon="5.93586">
        <ele>287.57</ele>
        <time>2019-11-30T13:43:40Z</time>
      </trkpt>
      <trkpt lat="43.45709" lon="5.93593">
        <ele>287.57</ele>
        <time>2019-11-30T13:43:41Z</time>
      </trkpt>
      <trkpt lat="43.45711" lon="5.93599">
        <ele>287.57</ele>
        <time>2019-11-30T13:43:42Z</time>
      </trkpt>
      <trkpt lat="43.45713" lon="5.93603">
        <ele>287.57</ele>
        <time>2019-11-30T13:43:43Z</time>
      </trkpt>
      <trkpt lat="43.45715" lon="5.93607">
        <ele>287.09</ele>
        <time>2019-11-30T13:43:44Z</time>
      </trkpt>
      <trkpt lat="43.45716" lon="5.93609">
        <ele>287.09</ele>
        <time>2019-11-30T13:43:45Z</time>
      </trkpt>
      <trkpt lat="43.45718" lon="5.93611">
        <ele>286.61</ele>
        <time>2019-11-30T13:43:46Z</time>
      </trkpt>
      <trkpt lat="43.45722" lon="5.93613">
        <ele>286.61</ele>
        <time>2019-11-30T13:43:47Z</time>
      </trkpt>
      <trkpt lat="43.45723" lon="5.93613">
        <ele>286.61</ele>
        <time>2019-11-30T13:43:48Z</time>
      </trkpt>
      <trkpt lat="43.45725" lon="5.93614">
        <ele>286.61</ele>
        <time>2019-11-30T13:43:49Z</time>
      </trkpt>
      <trkpt lat="43.45727" lon="5.93613">
        <ele>286.61</ele>
        <time>2019-11-30T13:43:50Z</time>
      </trkpt>
      <trkpt lat="43.45727" lon="5.93616">
        <ele>286.61</ele>
        <time>2019-11-30T13:43:59Z</time>
      </trkpt>
      <trkpt lat="43.45725" lon="5.93617">
        <ele>286.61</ele>
        <time>2019-11-30T13:44:00Z</time>
      </trkpt>
      <trkpt lat="43.45713" lon="5.93624">
        <ele>286.61</ele>
        <time>2019-11-30T13:44:04Z</time>
      </trkpt>
      <trkpt lat="43.4571" lon="5.93629">
        <ele>285.65</ele>
        <time>2019-11-30T13:44:05Z</time>
      </trkpt>
      <trkpt lat="43.45708" lon="5.93634">
        <ele>285.65</ele>
        <time>2019-11-30T13:44:06Z</time>
      </trkpt>
      <trkpt lat="43.45707" lon="5.9364">
        <ele>285.65</ele>
        <time>2019-11-30T13:44:07Z</time>
      </trkpt>
      <trkpt lat="43.45706" lon="5.93645">
        <ele>285.65</ele>
        <time>2019-11-30T13:44:08Z</time>
      </trkpt>
      <trkpt lat="43.45703" lon="5.93656">
        <ele>285.65</ele>
        <time>2019-11-30T13:44:10Z</time>
      </trkpt>
      <trkpt lat="43.45701" lon="5.93662">
        <ele>285.65</ele>
        <time>2019-11-30T13:44:11Z</time>
      </trkpt>
      <trkpt lat="43.45698" lon="5.93668">
        <ele>285.65</ele>
        <time>2019-11-30T13:44:12Z</time>
      </trkpt>
      <trkpt lat="43.45694" lon="5.93672">
        <ele>285.65</ele>
        <time>2019-11-30T13:44:13Z</time>
      </trkpt>
      <trkpt lat="43.4569" lon="5.93677">
        <ele>285.65</ele>
        <time>2019-11-30T13:44:14Z</time>
      </trkpt>
      <trkpt lat="43.45686" lon="5.9368">
        <ele>285.65</ele>
        <time>2019-11-30T13:44:15Z</time>
      </trkpt>
      <trkpt lat="43.45681" lon="5.93684">
        <ele>285.65</ele>
        <time>2019-11-30T13:44:16Z</time>
      </trkpt>
      <trkpt lat="43.45644" lon="5.93704">
        <ele>285.65</ele>
        <time>2019-11-30T13:44:26Z</time>
      </trkpt>
      <trkpt lat="43.45606" lon="5.93722">
        <ele>285.65</ele>
        <time>2019-11-30T13:44:34Z</time>
      </trkpt>
      <trkpt lat="43.45593" lon="5.93761">
        <ele>285.65</ele>
        <time>2019-11-30T13:44:43Z</time>
      </trkpt>
      <trkpt lat="43.45595" lon="5.93769">
        <ele>285.65</ele>
        <time>2019-11-30T13:44:45Z</time>
      </trkpt>
      <trkpt lat="43.45597" lon="5.93771">
        <ele>285.65</ele>
        <time>2019-11-30T13:44:46Z</time>
      </trkpt>
      <trkpt lat="43.45598" lon="5.93771">
        <ele>285.65</ele>
        <time>2019-11-30T13:44:47Z</time>
      </trkpt>
      <trkpt lat="43.456" lon="5.93771">
        <ele>285.65</ele>
        <time>2019-11-30T13:44:48Z</time>
      </trkpt>
      <trkpt lat="43.45602" lon="5.93769">
        <ele>285.65</ele>
        <time>2019-11-30T13:44:49Z</time>
      </trkpt>
      <trkpt lat="43.45604" lon="5.93768">
        <ele>285.65</ele>
        <time>2019-11-30T13:44:50Z</time>
      </trkpt>
      <trkpt lat="43.45605" lon="5.93766">
        <ele>285.65</ele>
        <time>2019-11-30T13:44:51Z</time>
      </trkpt>
      <trkpt lat="43.45607" lon="5.93764">
        <ele>285.65</ele>
        <time>2019-11-30T13:44:52Z</time>
      </trkpt>
      <trkpt lat="43.4563" lon="5.93745">
        <ele>285.65</ele>
        <time>2019-11-30T13:45:02Z</time>
      </trkpt>
      <trkpt lat="43.45647" lon="5.93738">
        <ele>285.65</ele>
        <time>2019-11-30T13:45:08Z</time>
      </trkpt>
      <trkpt lat="43.4567" lon="5.93726">
        <ele>285.17</ele>
        <time>2019-11-30T13:45:18Z</time>
      </trkpt>
      <trkpt lat="43.45672" lon="5.93726">
        <ele>285.17</ele>
        <time>2019-11-30T13:45:19Z</time>
      </trkpt>
      <trkpt lat="43.45675" lon="5.93725">
        <ele>285.17</ele>
        <time>2019-11-30T13:45:20Z</time>
      </trkpt>
      <trkpt lat="43.45678" lon="5.93725">
        <ele>285.17</ele>
        <time>2019-11-30T13:45:21Z</time>
      </trkpt>
      <trkpt lat="43.4568" lon="5.93726">
        <ele>285.17</ele>
        <time>2019-11-30T13:45:22Z</time>
      </trkpt>
      <trkpt lat="43.45689" lon="5.93725">
        <ele>285.17</ele>
        <time>2019-11-30T13:45:30Z</time>
      </trkpt>
      <trkpt lat="43.45696" lon="5.93732">
        <ele>284.21</ele>
        <time>2019-11-30T13:45:56Z</time>
      </trkpt>
      <trkpt lat="43.45697" lon="5.93732">
        <ele>284.21</ele>
        <time>2019-11-30T13:46:17Z</time>
      </trkpt>
      <trkpt lat="43.45697" lon="5.9373">
        <ele>283.73</ele>
        <time>2019-11-30T13:46:48Z</time>
      </trkpt>
      <trkpt lat="43.457" lon="5.93728">
        <ele>283.73</ele>
        <time>2019-11-30T13:47:07Z</time>
      </trkpt>
      <trkpt lat="43.45701" lon="5.93726">
        <ele>283.73</ele>
        <time>2019-11-30T13:47:36Z</time>
      </trkpt>
      <trkpt lat="43.45699" lon="5.93726">
        <ele>283.73</ele>
        <time>2019-11-30T13:47:57Z</time>
      </trkpt>
      <trkpt lat="43.45699" lon="5.93727">
        <ele>283.25</ele>
        <time>2019-11-30T13:48:06Z</time>
      </trkpt>
      <trkpt lat="43.45698" lon="5.93727">
        <ele>283.25</ele>
        <time>2019-11-30T13:48:07Z</time>
      </trkpt>
      <trkpt lat="43.45697" lon="5.93727">
        <ele>283.25</ele>
        <time>2019-11-30T13:48:08Z</time>
      </trkpt>
      <trkpt lat="43.45695" lon="5.93726">
        <ele>283.25</ele>
        <time>2019-11-30T13:48:10Z</time>
      </trkpt>
      <trkpt lat="43.45694" lon="5.93724">
        <ele>284.69</ele>
        <time>2019-11-30T13:48:11Z</time>
      </trkpt>
      <trkpt lat="43.45693" lon="5.93724">
        <ele>284.69</ele>
        <time>2019-11-30T13:48:12Z</time>
      </trkpt>
      <trkpt lat="43.45692" lon="5.93724">
        <ele>285.17</ele>
        <time>2019-11-30T13:48:13Z</time>
      </trkpt>
      <trkpt lat="43.4569" lon="5.93724">
        <ele>285.17</ele>
        <time>2019-11-30T13:48:14Z</time>
      </trkpt>
      <trkpt lat="43.45685" lon="5.93725">
        <ele>285.17</ele>
        <time>2019-11-30T13:48:17Z</time>
      </trkpt>
      <trkpt lat="43.45683" lon="5.93725">
        <ele>285.17</ele>
        <time>2019-11-30T13:48:18Z</time>
      </trkpt>
      <trkpt lat="43.45677" lon="5.93727">
        <ele>285.17</ele>
        <time>2019-11-30T13:48:22Z</time>
      </trkpt>
      <trkpt lat="43.45674" lon="5.93728">
        <ele>285.17</ele>
        <time>2019-11-30T13:48:23Z</time>
      </trkpt>
      <trkpt lat="43.45672" lon="5.93731">
        <ele>285.17</ele>
        <time>2019-11-30T13:48:24Z</time>
      </trkpt>
      <trkpt lat="43.4566" lon="5.93745">
        <ele>285.17</ele>
        <time>2019-11-30T13:48:28Z</time>
      </trkpt>
      <trkpt lat="43.45648" lon="5.93758">
        <ele>285.17</ele>
        <time>2019-11-30T13:48:31Z</time>
      </trkpt>
      <trkpt lat="43.45643" lon="5.93761">
        <ele>285.17</ele>
        <time>2019-11-30T13:48:32Z</time>
      </trkpt>
      <trkpt lat="43.45638" lon="5.93764">
        <ele>285.17</ele>
        <time>2019-11-30T13:48:33Z</time>
      </trkpt>
      <trkpt lat="43.45604" lon="5.93778">
        <ele>285.17</ele>
        <time>2019-11-30T13:48:42Z</time>
      </trkpt>
      <trkpt lat="43.456" lon="5.9378">
        <ele>285.17</ele>
        <time>2019-11-30T13:48:47Z</time>
      </trkpt>
      <trkpt lat="43.45599" lon="5.9378">
        <ele>285.17</ele>
        <time>2019-11-30T13:48:48Z</time>
      </trkpt>
      <trkpt lat="43.45598" lon="5.93778">
        <ele>285.17</ele>
        <time>2019-11-30T13:48:49Z</time>
      </trkpt>
      <trkpt lat="43.45597" lon="5.93773">
        <ele>285.17</ele>
        <time>2019-11-30T13:48:52Z</time>
      </trkpt>
      <trkpt lat="43.45597" lon="5.93772">
        <ele>285.17</ele>
        <time>2019-11-30T13:48:53Z</time>
      </trkpt>
      <trkpt lat="43.45596" lon="5.93769">
        <ele>285.17</ele>
        <time>2019-11-30T13:48:55Z</time>
      </trkpt>
      <trkpt lat="43.45596" lon="5.93765">
        <ele>285.17</ele>
        <time>2019-11-30T13:48:57Z</time>
      </trkpt>
      <trkpt lat="43.45596" lon="5.93762">
        <ele>285.17</ele>
        <time>2019-11-30T13:48:58Z</time>
      </trkpt>
      <trkpt lat="43.45597" lon="5.93758">
        <ele>285.17</ele>
        <time>2019-11-30T13:48:59Z</time>
      </trkpt>
      <trkpt lat="43.45598" lon="5.93753">
        <ele>285.17</ele>
        <time>2019-11-30T13:49:00Z</time>
      </trkpt>
      <trkpt lat="43.45599" lon="5.93749">
        <ele>285.17</ele>
        <time>2019-11-30T13:49:01Z</time>
      </trkpt>
      <trkpt lat="43.45629" lon="5.93721">
        <ele>285.17</ele>
        <time>2019-11-30T13:49:12Z</time>
      </trkpt>
      <trkpt lat="43.45654" lon="5.93703">
        <ele>285.17</ele>
        <time>2019-11-30T13:49:20Z</time>
      </trkpt>
      <trkpt lat="43.45657" lon="5.93699">
        <ele>285.17</ele>
        <time>2019-11-30T13:49:21Z</time>
      </trkpt>
      <trkpt lat="43.45673" lon="5.93685">
        <ele>285.17</ele>
        <time>2019-11-30T13:49:25Z</time>
      </trkpt>
      <trkpt lat="43.45676" lon="5.9368">
        <ele>285.17</ele>
        <time>2019-11-30T13:49:26Z</time>
      </trkpt>
      <trkpt lat="43.4568" lon="5.93675">
        <ele>285.17</ele>
        <time>2019-11-30T13:49:27Z</time>
      </trkpt>
      <trkpt lat="43.45682" lon="5.9367">
        <ele>285.17</ele>
        <time>2019-11-30T13:49:28Z</time>
      </trkpt>
      <trkpt lat="43.45684" lon="5.93666">
        <ele>285.17</ele>
        <time>2019-11-30T13:49:29Z</time>
      </trkpt>
      <trkpt lat="43.45686" lon="5.93661">
        <ele>285.17</ele>
        <time>2019-11-30T13:49:30Z</time>
      </trkpt>
      <trkpt lat="43.45687" lon="5.93657">
        <ele>285.17</ele>
        <time>2019-11-30T13:49:31Z</time>
      </trkpt>
      <trkpt lat="43.45689" lon="5.93653">
        <ele>285.17</ele>
        <time>2019-11-30T13:49:32Z</time>
      </trkpt>
      <trkpt lat="43.45692" lon="5.9365">
        <ele>285.17</ele>
        <time>2019-11-30T13:49:33Z</time>
      </trkpt>
      <trkpt lat="43.45694" lon="5.93645">
        <ele>285.17</ele>
        <time>2019-11-30T13:49:34Z</time>
      </trkpt>
      <trkpt lat="43.45697" lon="5.93642">
        <ele>285.17</ele>
        <time>2019-11-30T13:49:35Z</time>
      </trkpt>
      <trkpt lat="43.457" lon="5.93639">
        <ele>285.17</ele>
        <time>2019-11-30T13:49:36Z</time>
      </trkpt>
      <trkpt lat="43.45703" lon="5.93636">
        <ele>285.17</ele>
        <time>2019-11-30T13:49:37Z</time>
      </trkpt>
      <trkpt lat="43.45768" lon="5.93616">
        <ele>287.57</ele>
        <time>2019-11-30T13:49:52Z</time>
      </trkpt>
      <trkpt lat="43.45789" lon="5.93613">
        <ele>287.57</ele>
        <time>2019-11-30T13:49:56Z</time>
      </trkpt>
      <trkpt lat="43.45794" lon="5.93612">
        <ele>287.57</ele>
        <time>2019-11-30T13:49:57Z</time>
      </trkpt>
      <trkpt lat="43.4581" lon="5.93611">
        <ele>287.57</ele>
        <time>2019-11-30T13:50:00Z</time>
      </trkpt>
      <trkpt lat="43.45843" lon="5.93616">
        <ele>287.57</ele>
        <time>2019-11-30T13:50:05Z</time>
      </trkpt>
      <trkpt lat="43.45849" lon="5.93618">
        <ele>287.57</ele>
        <time>2019-11-30T13:50:06Z</time>
      </trkpt>
      <trkpt lat="43.4586" lon="5.9362">
        <ele>287.57</ele>
        <time>2019-11-30T13:50:08Z</time>
      </trkpt>
      <trkpt lat="43.45886" lon="5.93621">
        <ele>285.65</ele>
        <time>2019-11-30T13:50:13Z</time>
      </trkpt>
      <trkpt lat="43.45892" lon="5.9362">
        <ele>285.17</ele>
        <time>2019-11-30T13:50:14Z</time>
      </trkpt>
      <trkpt lat="43.45897" lon="5.93617">
        <ele>285.17</ele>
        <time>2019-11-30T13:50:15Z</time>
      </trkpt>
      <trkpt lat="43.45921" lon="5.93609">
        <ele>285.17</ele>
        <time>2019-11-30T13:50:19Z</time>
      </trkpt>
      <trkpt lat="43.45998" lon="5.93592">
        <ele>284.21</ele>
        <time>2019-11-30T13:50:31Z</time>
      </trkpt>
      <trkpt lat="43.46004" lon="5.9359">
        <ele>284.21</ele>
        <time>2019-11-30T13:50:32Z</time>
      </trkpt>
      <trkpt lat="43.46017" lon="5.93589">
        <ele>283.25</ele>
        <time>2019-11-30T13:50:34Z</time>
      </trkpt>
      <trkpt lat="43.46023" lon="5.93589">
        <ele>283.25</ele>
        <time>2019-11-30T13:50:35Z</time>
      </trkpt>
      <trkpt lat="43.46042" lon="5.9359">
        <ele>283.25</ele>
        <time>2019-11-30T13:50:38Z</time>
      </trkpt>
      <trkpt lat="43.46048" lon="5.93592">
        <ele>283.25</ele>
        <time>2019-11-30T13:50:39Z</time>
      </trkpt>
      <trkpt lat="43.46115" lon="5.93623">
        <ele>283.73</ele>
        <time>2019-11-30T13:50:52Z</time>
      </trkpt>
      <trkpt lat="43.4612" lon="5.93625">
        <ele>283.73</ele>
        <time>2019-11-30T13:50:53Z</time>
      </trkpt>
      <trkpt lat="43.46124" lon="5.93628">
        <ele>283.73</ele>
        <time>2019-11-30T13:50:54Z</time>
      </trkpt>
      <trkpt lat="43.46129" lon="5.9363">
        <ele>283.73</ele>
        <time>2019-11-30T13:50:55Z</time>
      </trkpt>
      <trkpt lat="43.46134" lon="5.93632">
        <ele>283.73</ele>
        <time>2019-11-30T13:50:56Z</time>
      </trkpt>
      <trkpt lat="43.46139" lon="5.93634">
        <ele>283.73</ele>
        <time>2019-11-30T13:50:57Z</time>
      </trkpt>
      <trkpt lat="43.46178" lon="5.9365">
        <ele>284.69</ele>
        <time>2019-11-30T13:51:07Z</time>
      </trkpt>
      <trkpt lat="43.46201" lon="5.93667">
        <ele>284.69</ele>
        <time>2019-11-30T13:51:14Z</time>
      </trkpt>
      <trkpt lat="43.46204" lon="5.93667">
        <ele>284.69</ele>
        <time>2019-11-30T13:51:15Z</time>
      </trkpt>
      <trkpt lat="43.46207" lon="5.93667">
        <ele>284.69</ele>
        <time>2019-11-30T13:51:16Z</time>
      </trkpt>
      <trkpt lat="43.46209" lon="5.93666">
        <ele>284.69</ele>
        <time>2019-11-30T13:51:17Z</time>
      </trkpt>
      <trkpt lat="43.46212" lon="5.93662">
        <ele>284.69</ele>
        <time>2019-11-30T13:51:18Z</time>
      </trkpt>
      <trkpt lat="43.46214" lon="5.9366">
        <ele>284.69</ele>
        <time>2019-11-30T13:51:19Z</time>
      </trkpt>
      <trkpt lat="43.46223" lon="5.93623">
        <ele>284.69</ele>
        <time>2019-11-30T13:51:27Z</time>
      </trkpt>
      <trkpt lat="43.46235" lon="5.93522">
        <ele>286.13</ele>
        <time>2019-11-30T13:51:41Z</time>
      </trkpt>
      <trkpt lat="43.46234" lon="5.93515">
        <ele>286.13</ele>
        <time>2019-11-30T13:51:42Z</time>
      </trkpt>
      <trkpt lat="43.46233" lon="5.93508">
        <ele>286.13</ele>
        <time>2019-11-30T13:51:43Z</time>
      </trkpt>
      <trkpt lat="43.46224" lon="5.93469">
        <ele>288.05</ele>
        <time>2019-11-30T13:51:49Z</time>
      </trkpt>
      <trkpt lat="43.46211" lon="5.93441">
        <ele>288.53</ele>
        <time>2019-11-30T13:51:54Z</time>
      </trkpt>
      <trkpt lat="43.46188" lon="5.93378">
        <ele>287.09</ele>
        <time>2019-11-30T13:52:03Z</time>
      </trkpt>
      <trkpt lat="43.46185" lon="5.93362">
        <ele>286.61</ele>
        <time>2019-11-30T13:52:05Z</time>
      </trkpt>
      <trkpt lat="43.4618" lon="5.93329">
        <ele>285.65</ele>
        <time>2019-11-30T13:52:09Z</time>
      </trkpt>
      <trkpt lat="43.46178" lon="5.93322">
        <ele>285.65</ele>
        <time>2019-11-30T13:52:10Z</time>
      </trkpt>
      <trkpt lat="43.46175" lon="5.93315">
        <ele>285.65</ele>
        <time>2019-11-30T13:52:11Z</time>
      </trkpt>
      <trkpt lat="43.46145" lon="5.93267">
        <ele>285.65</ele>
        <time>2019-11-30T13:52:19Z</time>
      </trkpt>
      <trkpt lat="43.46131" lon="5.93253">
        <ele>287.09</ele>
        <time>2019-11-30T13:52:22Z</time>
      </trkpt>
      <trkpt lat="43.46084" lon="5.9321">
        <ele>287.09</ele>
        <time>2019-11-30T13:52:32Z</time>
      </trkpt>
      <trkpt lat="43.4605" lon="5.93178">
        <ele>287.57</ele>
        <time>2019-11-30T13:52:39Z</time>
      </trkpt>
      <trkpt lat="43.46046" lon="5.93172">
        <ele>287.57</ele>
        <time>2019-11-30T13:52:40Z</time>
      </trkpt>
      <trkpt lat="43.46042" lon="5.93165">
        <ele>287.57</ele>
        <time>2019-11-30T13:52:41Z</time>
      </trkpt>
      <trkpt lat="43.45995" lon="5.93086">
        <ele>287.09</ele>
        <time>2019-11-30T13:52:54Z</time>
      </trkpt>
      <trkpt lat="43.45992" lon="5.93079">
        <ele>287.09</ele>
        <time>2019-11-30T13:52:55Z</time>
      </trkpt>
      <trkpt lat="43.45989" lon="5.93071">
        <ele>287.09</ele>
        <time>2019-11-30T13:52:56Z</time>
      </trkpt>
      <trkpt lat="43.45987" lon="5.93064">
        <ele>287.09</ele>
        <time>2019-11-30T13:52:57Z</time>
      </trkpt>
      <trkpt lat="43.45987" lon="5.93054">
        <ele>287.09</ele>
        <time>2019-11-30T13:52:58Z</time>
      </trkpt>
      <trkpt lat="43.45987" lon="5.93046">
        <ele>287.09</ele>
        <time>2019-11-30T13:52:59Z</time>
      </trkpt>
      <trkpt lat="43.45988" lon="5.93037">
        <ele>287.09</ele>
        <time>2019-11-30T13:53:00Z</time>
      </trkpt>
      <trkpt lat="43.4599" lon="5.93029">
        <ele>287.09</ele>
        <time>2019-11-30T13:53:01Z</time>
      </trkpt>
      <trkpt lat="43.45993" lon="5.93021">
        <ele>287.09</ele>
        <time>2019-11-30T13:53:02Z</time>
      </trkpt>
      <trkpt lat="43.45997" lon="5.93015">
        <ele>287.09</ele>
        <time>2019-11-30T13:53:03Z</time>
      </trkpt>
      <trkpt lat="43.46" lon="5.93009">
        <ele>287.09</ele>
        <time>2019-11-30T13:53:04Z</time>
      </trkpt>
      <trkpt lat="43.46009" lon="5.92998">
        <ele>287.09</ele>
        <time>2019-11-30T13:53:06Z</time>
      </trkpt>
      <trkpt lat="43.46012" lon="5.92993">
        <ele>287.09</ele>
        <time>2019-11-30T13:53:07Z</time>
      </trkpt>
      <trkpt lat="43.46022" lon="5.92972">
        <ele>287.09</ele>
        <time>2019-11-30T13:53:10Z</time>
      </trkpt>
      <trkpt lat="43.46024" lon="5.92965">
        <ele>287.09</ele>
        <time>2019-11-30T13:53:11Z</time>
      </trkpt>
      <trkpt lat="43.46026" lon="5.92958">
        <ele>287.09</ele>
        <time>2019-11-30T13:53:12Z</time>
      </trkpt>
      <trkpt lat="43.46029" lon="5.92942">
        <ele>287.09</ele>
        <time>2019-11-30T13:53:14Z</time>
      </trkpt>
      <trkpt lat="43.46029" lon="5.92935">
        <ele>287.57</ele>
        <time>2019-11-30T13:53:15Z</time>
      </trkpt>
      <trkpt lat="43.46032" lon="5.92879">
        <ele>288.05</ele>
        <time>2019-11-30T13:53:22Z</time>
      </trkpt>
      <trkpt lat="43.46032" lon="5.92871">
        <ele>288.05</ele>
        <time>2019-11-30T13:53:23Z</time>
      </trkpt>
      <trkpt lat="43.46032" lon="5.92864">
        <ele>288.05</ele>
        <time>2019-11-30T13:53:24Z</time>
      </trkpt>
      <trkpt lat="43.46033" lon="5.92857">
        <ele>288.05</ele>
        <time>2019-11-30T13:53:25Z</time>
      </trkpt>
      <trkpt lat="43.46035" lon="5.9285">
        <ele>287.57</ele>
        <time>2019-11-30T13:53:26Z</time>
      </trkpt>
      <trkpt lat="43.46036" lon="5.92844">
        <ele>287.57</ele>
        <time>2019-11-30T13:53:27Z</time>
      </trkpt>
      <trkpt lat="43.46038" lon="5.92838">
        <ele>287.57</ele>
        <time>2019-11-30T13:53:28Z</time>
      </trkpt>
      <trkpt lat="43.46049" lon="5.928">
        <ele>287.57</ele>
        <time>2019-11-30T13:53:34Z</time>
      </trkpt>
      <trkpt lat="43.4605" lon="5.92793">
        <ele>287.57</ele>
        <time>2019-11-30T13:53:35Z</time>
      </trkpt>
      <trkpt lat="43.46051" lon="5.92787">
        <ele>287.57</ele>
        <time>2019-11-30T13:53:36Z</time>
      </trkpt>
      <trkpt lat="43.46052" lon="5.92768">
        <ele>287.57</ele>
        <time>2019-11-30T13:53:39Z</time>
      </trkpt>
      <trkpt lat="43.46052" lon="5.92761">
        <ele>287.57</ele>
        <time>2019-11-30T13:53:40Z</time>
      </trkpt>
      <trkpt lat="43.46052" lon="5.92753">
        <ele>287.57</ele>
        <time>2019-11-30T13:53:41Z</time>
      </trkpt>
      <trkpt lat="43.46052" lon="5.92745">
        <ele>288.05</ele>
        <time>2019-11-30T13:53:42Z</time>
      </trkpt>
      <trkpt lat="43.46051" lon="5.92737">
        <ele>288.05</ele>
        <time>2019-11-30T13:53:43Z</time>
      </trkpt>
      <trkpt lat="43.46051" lon="5.92646">
        <ele>288.05</ele>
        <time>2019-11-30T13:53:55Z</time>
      </trkpt>
      <trkpt lat="43.46065" lon="5.92567">
        <ele>289.01</ele>
        <time>2019-11-30T13:54:07Z</time>
      </trkpt>
      <trkpt lat="43.46077" lon="5.92498">
        <ele>289.01</ele>
        <time>2019-11-30T13:54:17Z</time>
      </trkpt>
      <trkpt lat="43.46078" lon="5.92492">
        <ele>289.01</ele>
        <time>2019-11-30T13:54:18Z</time>
      </trkpt>
      <trkpt lat="43.46079" lon="5.92486">
        <ele>289.01</ele>
        <time>2019-11-30T13:54:19Z</time>
      </trkpt>
      <trkpt lat="43.46102" lon="5.92395">
        <ele>289.49</ele>
        <time>2019-11-30T13:54:34Z</time>
      </trkpt>
      <trkpt lat="43.46101" lon="5.92364">
        <ele>289.49</ele>
        <time>2019-11-30T13:54:39Z</time>
      </trkpt>
      <trkpt lat="43.461" lon="5.92357">
        <ele>289.49</ele>
        <time>2019-11-30T13:54:40Z</time>
      </trkpt>
      <trkpt lat="43.46094" lon="5.9233">
        <ele>289.49</ele>
        <time>2019-11-30T13:54:44Z</time>
      </trkpt>
      <trkpt lat="43.46072" lon="5.92261">
        <ele>289.49</ele>
        <time>2019-11-30T13:54:54Z</time>
      </trkpt>
      <trkpt lat="43.46069" lon="5.92243">
        <ele>289.49</ele>
        <time>2019-11-30T13:54:57Z</time>
      </trkpt>
      <trkpt lat="43.46063" lon="5.92215">
        <ele>290.46</ele>
        <time>2019-11-30T13:55:02Z</time>
      </trkpt>
      <trkpt lat="43.46053" lon="5.92187">
        <ele>290.46</ele>
        <time>2019-11-30T13:55:07Z</time>
      </trkpt>
      <trkpt lat="43.4605" lon="5.92182">
        <ele>290.46</ele>
        <time>2019-11-30T13:55:08Z</time>
      </trkpt>
      <trkpt lat="43.46045" lon="5.92179">
        <ele>290.46</ele>
        <time>2019-11-30T13:55:09Z</time>
      </trkpt>
      <trkpt lat="43.45989" lon="5.92128">
        <ele>290.46</ele>
        <time>2019-11-30T13:55:23Z</time>
      </trkpt>
      <trkpt lat="43.45974" lon="5.9211">
        <ele>290.46</ele>
        <time>2019-11-30T13:55:27Z</time>
      </trkpt>
      <trkpt lat="43.45972" lon="5.92105">
        <ele>290.94</ele>
        <time>2019-11-30T13:55:28Z</time>
      </trkpt>
      <trkpt lat="43.45967" lon="5.92094">
        <ele>291.42</ele>
        <time>2019-11-30T13:55:30Z</time>
      </trkpt>
      <trkpt lat="43.45965" lon="5.92089">
        <ele>291.42</ele>
        <time>2019-11-30T13:55:31Z</time>
      </trkpt>
      <trkpt lat="43.45962" lon="5.92072">
        <ele>291.42</ele>
        <time>2019-11-30T13:55:34Z</time>
      </trkpt>
      <trkpt lat="43.45967" lon="5.92013">
        <ele>291.42</ele>
        <time>2019-11-30T13:55:43Z</time>
      </trkpt>
      <trkpt lat="43.4597" lon="5.91995">
        <ele>292.38</ele>
        <time>2019-11-30T13:55:46Z</time>
      </trkpt>
      <trkpt lat="43.45981" lon="5.91916">
        <ele>293.82</ele>
        <time>2019-11-30T13:56:00Z</time>
      </trkpt>
      <trkpt lat="43.4598" lon="5.91909">
        <ele>293.82</ele>
        <time>2019-11-30T13:56:01Z</time>
      </trkpt>
      <trkpt lat="43.45979" lon="5.91902">
        <ele>293.82</ele>
        <time>2019-11-30T13:56:02Z</time>
      </trkpt>
      <trkpt lat="43.45976" lon="5.91884">
        <ele>293.82</ele>
        <time>2019-11-30T13:56:05Z</time>
      </trkpt>
      <trkpt lat="43.4597" lon="5.9186">
        <ele>293.82</ele>
        <time>2019-11-30T13:56:09Z</time>
      </trkpt>
      <trkpt lat="43.4597" lon="5.91854">
        <ele>293.82</ele>
        <time>2019-11-30T13:56:10Z</time>
      </trkpt>
      <trkpt lat="43.45968" lon="5.91842">
        <ele>293.34</ele>
        <time>2019-11-30T13:56:12Z</time>
      </trkpt>
      <trkpt lat="43.45967" lon="5.91829">
        <ele>293.34</ele>
        <time>2019-11-30T13:56:14Z</time>
      </trkpt>
      <trkpt lat="43.45968" lon="5.91823">
        <ele>293.34</ele>
        <time>2019-11-30T13:56:15Z</time>
      </trkpt>
      <trkpt lat="43.45968" lon="5.91816">
        <ele>293.34</ele>
        <time>2019-11-30T13:56:16Z</time>
      </trkpt>
      <trkpt lat="43.45958" lon="5.91714">
        <ele>294.3</ele>
        <time>2019-11-30T13:56:30Z</time>
      </trkpt>
      <trkpt lat="43.45957" lon="5.91694">
        <ele>294.3</ele>
        <time>2019-11-30T13:56:33Z</time>
      </trkpt>
      <trkpt lat="43.45957" lon="5.91688">
        <ele>294.78</ele>
        <time>2019-11-30T13:56:34Z</time>
      </trkpt>
      <trkpt lat="43.45959" lon="5.91669">
        <ele>295.26</ele>
        <time>2019-11-30T13:56:37Z</time>
      </trkpt>
      <trkpt lat="43.4596" lon="5.91663">
        <ele>295.26</ele>
        <time>2019-11-30T13:56:38Z</time>
      </trkpt>
      <trkpt lat="43.45961" lon="5.91657">
        <ele>295.26</ele>
        <time>2019-11-30T13:56:39Z</time>
      </trkpt>
      <trkpt lat="43.45963" lon="5.91651">
        <ele>295.26</ele>
        <time>2019-11-30T13:56:40Z</time>
      </trkpt>
      <trkpt lat="43.45965" lon="5.91646">
        <ele>295.26</ele>
        <time>2019-11-30T13:56:41Z</time>
      </trkpt>
      <trkpt lat="43.45967" lon="5.91641">
        <ele>295.26</ele>
        <time>2019-11-30T13:56:42Z</time>
      </trkpt>
      <trkpt lat="43.4597" lon="5.91629">
        <ele>295.26</ele>
        <time>2019-11-30T13:56:44Z</time>
      </trkpt>
      <trkpt lat="43.45971" lon="5.91624">
        <ele>295.74</ele>
        <time>2019-11-30T13:56:45Z</time>
      </trkpt>
      <trkpt lat="43.45972" lon="5.91618">
        <ele>295.74</ele>
        <time>2019-11-30T13:56:46Z</time>
      </trkpt>
      <trkpt lat="43.45974" lon="5.91613">
        <ele>295.74</ele>
        <time>2019-11-30T13:56:47Z</time>
      </trkpt>
      <trkpt lat="43.45975" lon="5.91608">
        <ele>295.74</ele>
        <time>2019-11-30T13:56:48Z</time>
      </trkpt>
      <trkpt lat="43.45979" lon="5.91582">
        <ele>296.22</ele>
        <time>2019-11-30T13:56:53Z</time>
      </trkpt>
      <trkpt lat="43.45985" lon="5.91487">
        <ele>296.7</ele>
        <time>2019-11-30T13:57:08Z</time>
      </trkpt>
      <trkpt lat="43.4598" lon="5.91448">
        <ele>296.7</ele>
        <time>2019-11-30T13:57:15Z</time>
      </trkpt>
      <trkpt lat="43.45975" lon="5.91423">
        <ele>296.7</ele>
        <time>2019-11-30T13:57:19Z</time>
      </trkpt>
      <trkpt lat="43.45973" lon="5.91417">
        <ele>296.7</ele>
        <time>2019-11-30T13:57:20Z</time>
      </trkpt>
      <trkpt lat="43.45973" lon="5.91411">
        <ele>296.7</ele>
        <time>2019-11-30T13:57:21Z</time>
      </trkpt>
      <trkpt lat="43.45972" lon="5.91404">
        <ele>297.18</ele>
        <time>2019-11-30T13:57:22Z</time>
      </trkpt>
      <trkpt lat="43.45972" lon="5.91398">
        <ele>297.18</ele>
        <time>2019-11-30T13:57:23Z</time>
      </trkpt>
      <trkpt lat="43.45971" lon="5.91393">
        <ele>297.18</ele>
        <time>2019-11-30T13:57:24Z</time>
      </trkpt>
      <trkpt lat="43.45971" lon="5.91388">
        <ele>297.18</ele>
        <time>2019-11-30T13:57:25Z</time>
      </trkpt>
      <trkpt lat="43.45972" lon="5.91382">
        <ele>298.15</ele>
        <time>2019-11-30T13:57:26Z</time>
      </trkpt>
      <trkpt lat="43.45971" lon="5.91375">
        <ele>298.15</ele>
        <time>2019-11-30T13:57:27Z</time>
      </trkpt>
      <trkpt lat="43.45971" lon="5.91369">
        <ele>298.15</ele>
        <time>2019-11-30T13:57:28Z</time>
      </trkpt>
      <trkpt lat="43.4597" lon="5.91362">
        <ele>298.15</ele>
        <time>2019-11-30T13:57:29Z</time>
      </trkpt>
      <trkpt lat="43.45969" lon="5.91355">
        <ele>298.15</ele>
        <time>2019-11-30T13:57:30Z</time>
      </trkpt>
      <trkpt lat="43.45968" lon="5.91348">
        <ele>298.15</ele>
        <time>2019-11-30T13:57:31Z</time>
      </trkpt>
      <trkpt lat="43.45968" lon="5.91341">
        <ele>297.67</ele>
        <time>2019-11-30T13:57:32Z</time>
      </trkpt>
      <trkpt lat="43.45967" lon="5.91327">
        <ele>298.15</ele>
        <time>2019-11-30T13:57:34Z</time>
      </trkpt>
      <trkpt lat="43.45967" lon="5.9132">
        <ele>298.15</ele>
        <time>2019-11-30T13:57:35Z</time>
      </trkpt>
      <trkpt lat="43.45967" lon="5.91313">
        <ele>298.15</ele>
        <time>2019-11-30T13:57:36Z</time>
      </trkpt>
      <trkpt lat="43.45969" lon="5.91284">
        <ele>298.15</ele>
        <time>2019-11-30T13:57:40Z</time>
      </trkpt>
      <trkpt lat="43.4597" lon="5.91277">
        <ele>298.15</ele>
        <time>2019-11-30T13:57:41Z</time>
      </trkpt>
      <trkpt lat="43.45973" lon="5.91233">
        <ele>298.15</ele>
        <time>2019-11-30T13:57:47Z</time>
      </trkpt>
      <trkpt lat="43.45977" lon="5.91169">
        <ele>298.15</ele>
        <time>2019-11-30T13:57:56Z</time>
      </trkpt>
      <trkpt lat="43.45984" lon="5.91142">
        <ele>297.67</ele>
        <time>2019-11-30T13:58:00Z</time>
      </trkpt>
      <trkpt lat="43.45986" lon="5.91136">
        <ele>297.67</ele>
        <time>2019-11-30T13:58:01Z</time>
      </trkpt>
      <trkpt lat="43.4599" lon="5.91123">
        <ele>298.15</ele>
        <time>2019-11-30T13:58:03Z</time>
      </trkpt>
      <trkpt lat="43.46026" lon="5.91044">
        <ele>299.59</ele>
        <time>2019-11-30T13:58:17Z</time>
      </trkpt>
      <trkpt lat="43.46026" lon="5.91038">
        <ele>299.59</ele>
        <time>2019-11-30T13:58:18Z</time>
      </trkpt>
      <trkpt lat="43.46027" lon="5.91031">
        <ele>299.59</ele>
        <time>2019-11-30T13:58:19Z</time>
      </trkpt>
      <trkpt lat="43.46026" lon="5.91024">
        <ele>300.07</ele>
        <time>2019-11-30T13:58:20Z</time>
      </trkpt>
      <trkpt lat="43.46025" lon="5.91016">
        <ele>300.07</ele>
        <time>2019-11-30T13:58:21Z</time>
      </trkpt>
      <trkpt lat="43.46024" lon="5.91011">
        <ele>300.07</ele>
        <time>2019-11-30T13:58:22Z</time>
      </trkpt>
      <trkpt lat="43.46022" lon="5.91005">
        <ele>300.55</ele>
        <time>2019-11-30T13:58:23Z</time>
      </trkpt>
      <trkpt lat="43.4602" lon="5.90998">
        <ele>300.55</ele>
        <time>2019-11-30T13:58:24Z</time>
      </trkpt>
      <trkpt lat="43.46018" lon="5.90992">
        <ele>300.55</ele>
        <time>2019-11-30T13:58:25Z</time>
      </trkpt>
      <trkpt lat="43.46015" lon="5.90987">
        <ele>301.03</ele>
        <time>2019-11-30T13:58:26Z</time>
      </trkpt>
      <trkpt lat="43.45986" lon="5.90929">
        <ele>301.51</ele>
        <time>2019-11-30T13:58:37Z</time>
      </trkpt>
      <trkpt lat="43.45947" lon="5.90834">
        <ele>301.03</ele>
        <time>2019-11-30T13:58:50Z</time>
      </trkpt>
      <trkpt lat="43.45904" lon="5.90732">
        <ele>301.03</ele>
        <time>2019-11-30T13:59:05Z</time>
      </trkpt>
      <trkpt lat="43.45896" lon="5.90705">
        <ele>301.51</ele>
        <time>2019-11-30T13:59:09Z</time>
      </trkpt>
      <trkpt lat="43.45873" lon="5.90588">
        <ele>301.03</ele>
        <time>2019-11-30T13:59:28Z</time>
      </trkpt>
      <trkpt lat="43.45872" lon="5.90582">
        <ele>301.03</ele>
        <time>2019-11-30T13:59:29Z</time>
      </trkpt>
      <trkpt lat="43.45849" lon="5.90487">
        <ele>301.51</ele>
        <time>2019-11-30T13:59:46Z</time>
      </trkpt>
      <trkpt lat="43.45834" lon="5.90391">
        <ele>301.99</ele>
        <time>2019-11-30T14:00:02Z</time>
      </trkpt>
      <trkpt lat="43.45826" lon="5.90348">
        <ele>302.47</ele>
        <time>2019-11-30T14:00:09Z</time>
      </trkpt>
      <trkpt lat="43.45821" lon="5.90331">
        <ele>302.47</ele>
        <time>2019-11-30T14:00:12Z</time>
      </trkpt>
      <trkpt lat="43.45782" lon="5.90239">
        <ele>302.95</ele>
        <time>2019-11-30T14:00:29Z</time>
      </trkpt>
      <trkpt lat="43.45753" lon="5.90144">
        <ele>302.47</ele>
        <time>2019-11-30T14:00:45Z</time>
      </trkpt>
      <trkpt lat="43.45719" lon="5.90046">
        <ele>302.47</ele>
        <time>2019-11-30T14:01:02Z</time>
      </trkpt>
      <trkpt lat="43.45687" lon="5.89959">
        <ele>302.95</ele>
        <time>2019-11-30T14:01:17Z</time>
      </trkpt>
      <trkpt lat="43.45653" lon="5.8988">
        <ele>303.43</ele>
        <time>2019-11-30T14:01:32Z</time>
      </trkpt>
      <trkpt lat="43.45635" lon="5.89848">
        <ele>303.43</ele>
        <time>2019-11-30T14:01:39Z</time>
      </trkpt>
      <trkpt lat="43.45592" lon="5.89768">
        <ele>303.43</ele>
        <time>2019-11-30T14:01:57Z</time>
      </trkpt>
      <trkpt lat="43.45566" lon="5.89719">
        <ele>303.43</ele>
        <time>2019-11-30T14:02:08Z</time>
      </trkpt>
      <trkpt lat="43.45565" lon="5.89714">
        <ele>303.43</ele>
        <time>2019-11-30T14:02:09Z</time>
      </trkpt>
      <trkpt lat="43.45563" lon="5.89709">
        <ele>303.43</ele>
        <time>2019-11-30T14:02:10Z</time>
      </trkpt>
      <trkpt lat="43.45563" lon="5.89703">
        <ele>303.43</ele>
        <time>2019-11-30T14:02:11Z</time>
      </trkpt>
      <trkpt lat="43.45562" lon="5.89698">
        <ele>303.43</ele>
        <time>2019-11-30T14:02:12Z</time>
      </trkpt>
      <trkpt lat="43.45562" lon="5.89692">
        <ele>303.43</ele>
        <time>2019-11-30T14:02:13Z</time>
      </trkpt>
      <trkpt lat="43.45548" lon="5.89636">
        <ele>304.88</ele>
        <time>2019-11-30T14:02:25Z</time>
      </trkpt>
      <trkpt lat="43.45528" lon="5.89581">
        <ele>305.84</ele>
        <time>2019-11-30T14:02:38Z</time>
      </trkpt>
      <trkpt lat="43.45519" lon="5.89516">
        <ele>307.28</ele>
        <time>2019-11-30T14:02:51Z</time>
      </trkpt>
      <trkpt lat="43.45481" lon="5.89439">
        <ele>308.72</ele>
        <time>2019-11-30T14:03:07Z</time>
      </trkpt>
      <trkpt lat="43.45434" lon="5.89381">
        <ele>309.2</ele>
        <time>2019-11-30T14:03:20Z</time>
      </trkpt>
      <trkpt lat="43.45415" lon="5.8936">
        <ele>307.76</ele>
        <time>2019-11-30T14:03:24Z</time>
      </trkpt>
      <trkpt lat="43.45363" lon="5.89297">
        <ele>307.28</ele>
        <time>2019-11-30T14:03:37Z</time>
      </trkpt>
      <trkpt lat="43.4536" lon="5.89291">
        <ele>307.28</ele>
        <time>2019-11-30T14:03:38Z</time>
      </trkpt>
      <trkpt lat="43.45357" lon="5.89286">
        <ele>307.28</ele>
        <time>2019-11-30T14:03:39Z</time>
      </trkpt>
      <trkpt lat="43.45355" lon="5.89279">
        <ele>307.28</ele>
        <time>2019-11-30T14:03:40Z</time>
      </trkpt>
      <trkpt lat="43.45352" lon="5.89271">
        <ele>307.28</ele>
        <time>2019-11-30T14:03:41Z</time>
      </trkpt>
      <trkpt lat="43.45351" lon="5.89266">
        <ele>307.28</ele>
        <time>2019-11-30T14:03:42Z</time>
      </trkpt>
      <trkpt lat="43.4535" lon="5.89258">
        <ele>307.28</ele>
        <time>2019-11-30T14:03:43Z</time>
      </trkpt>
      <trkpt lat="43.45349" lon="5.89251">
        <ele>307.28</ele>
        <time>2019-11-30T14:03:44Z</time>
      </trkpt>
      <trkpt lat="43.45331" lon="5.89133">
        <ele>306.32</ele>
        <time>2019-11-30T14:03:58Z</time>
      </trkpt>
      <trkpt lat="43.45315" lon="5.89014">
        <ele>305.84</ele>
        <time>2019-11-30T14:04:14Z</time>
      </trkpt>
      <trkpt lat="43.45314" lon="5.89007">
        <ele>305.84</ele>
        <time>2019-11-30T14:04:15Z</time>
      </trkpt>
      <trkpt lat="43.45314" lon="5.88999">
        <ele>305.84</ele>
        <time>2019-11-30T14:04:16Z</time>
      </trkpt>
      <trkpt lat="43.45325" lon="5.88909">
        <ele>305.84</ele>
        <time>2019-11-30T14:04:27Z</time>
      </trkpt>
      <trkpt lat="43.45336" lon="5.88844">
        <ele>305.84</ele>
        <time>2019-11-30T14:04:35Z</time>
      </trkpt>
      <trkpt lat="43.45337" lon="5.88686">
        <ele>303.91</ele>
        <time>2019-11-30T14:04:54Z</time>
      </trkpt>
      <trkpt lat="43.45337" lon="5.88679">
        <ele>303.91</ele>
        <time>2019-11-30T14:04:55Z</time>
      </trkpt>
      <trkpt lat="43.45324" lon="5.88598">
        <ele>303.91</ele>
        <time>2019-11-30T14:05:05Z</time>
      </trkpt>
      <trkpt lat="43.45321" lon="5.88592">
        <ele>303.91</ele>
        <time>2019-11-30T14:05:06Z</time>
      </trkpt>
      <trkpt lat="43.45317" lon="5.88586">
        <ele>303.91</ele>
        <time>2019-11-30T14:05:07Z</time>
      </trkpt>
      <trkpt lat="43.45311" lon="5.88582">
        <ele>302.95</ele>
        <time>2019-11-30T14:05:08Z</time>
      </trkpt>
      <trkpt lat="43.45306" lon="5.88581">
        <ele>302.95</ele>
        <time>2019-11-30T14:05:09Z</time>
      </trkpt>
      <trkpt lat="43.453" lon="5.8858">
        <ele>302.95</ele>
        <time>2019-11-30T14:05:10Z</time>
      </trkpt>
      <trkpt lat="43.45293" lon="5.88578">
        <ele>302.95</ele>
        <time>2019-11-30T14:05:11Z</time>
      </trkpt>
      <trkpt lat="43.45287" lon="5.88576">
        <ele>302.95</ele>
        <time>2019-11-30T14:05:12Z</time>
      </trkpt>
      <trkpt lat="43.4522" lon="5.88562">
        <ele>301.99</ele>
        <time>2019-11-30T14:05:23Z</time>
      </trkpt>
      <trkpt lat="43.45214" lon="5.88564">
        <ele>301.99</ele>
        <time>2019-11-30T14:05:24Z</time>
      </trkpt>
      <trkpt lat="43.45139" lon="5.88596">
        <ele>301.51</ele>
        <time>2019-11-30T14:05:38Z</time>
      </trkpt>
      <trkpt lat="43.45114" lon="5.88603">
        <ele>301.51</ele>
        <time>2019-11-30T14:05:43Z</time>
      </trkpt>
      <trkpt lat="43.45037" lon="5.88637">
        <ele>303.43</ele>
        <time>2019-11-30T14:06:01Z</time>
      </trkpt>
      <trkpt lat="43.45007" lon="5.88664">
        <ele>305.36</ele>
        <time>2019-11-30T14:06:10Z</time>
      </trkpt>
      <trkpt lat="43.45005" lon="5.88663">
        <ele>305.36</ele>
        <time>2019-11-30T14:06:11Z</time>
      </trkpt>
      <trkpt lat="43.45001" lon="5.8866">
        <ele>305.36</ele>
        <time>2019-11-30T14:06:13Z</time>
      </trkpt>
      <trkpt lat="43.45" lon="5.88659">
        <ele>305.36</ele>
        <time>2019-11-30T14:06:14Z</time>
      </trkpt>
      <trkpt lat="43.44998" lon="5.88659">
        <ele>305.84</ele>
        <time>2019-11-30T14:06:15Z</time>
      </trkpt>
      <trkpt lat="43.44997" lon="5.88658">
        <ele>305.84</ele>
        <time>2019-11-30T14:06:16Z</time>
      </trkpt>
      <trkpt lat="43.44996" lon="5.88658">
        <ele>305.84</ele>
        <time>2019-11-30T14:06:17Z</time>
      </trkpt>
      <trkpt lat="43.44995" lon="5.88657">
        <ele>305.84</ele>
        <time>2019-11-30T14:06:18Z</time>
      </trkpt>
      <trkpt lat="43.44993" lon="5.88656">
        <ele>305.84</ele>
        <time>2019-11-30T14:06:19Z</time>
      </trkpt>
      <trkpt lat="43.44992" lon="5.88654">
        <ele>305.84</ele>
        <time>2019-11-30T14:06:20Z</time>
      </trkpt>
      <trkpt lat="43.44991" lon="5.88652">
        <ele>305.84</ele>
        <time>2019-11-30T14:06:21Z</time>
      </trkpt>
      <trkpt lat="43.44989" lon="5.8865">
        <ele>305.84</ele>
        <time>2019-11-30T14:06:22Z</time>
      </trkpt>
      <trkpt lat="43.44988" lon="5.88647">
        <ele>305.84</ele>
        <time>2019-11-30T14:06:23Z</time>
      </trkpt>
      <trkpt lat="43.44987" lon="5.88643">
        <ele>305.84</ele>
        <time>2019-11-30T14:06:24Z</time>
      </trkpt>
      <trkpt lat="43.44986" lon="5.88641">
        <ele>305.84</ele>
        <time>2019-11-30T14:06:25Z</time>
      </trkpt>
      <trkpt lat="43.44986" lon="5.88638">
        <ele>305.84</ele>
        <time>2019-11-30T14:06:26Z</time>
      </trkpt>
      <trkpt lat="43.44988" lon="5.88636">
        <ele>305.84</ele>
        <time>2019-11-30T14:06:27Z</time>
      </trkpt>
      <trkpt lat="43.44988" lon="5.88634">
        <ele>305.84</ele>
        <time>2019-11-30T14:06:28Z</time>
      </trkpt>
      <trkpt lat="43.44989" lon="5.88631">
        <ele>304.39</ele>
        <time>2019-11-30T14:06:29Z</time>
      </trkpt>
      <trkpt lat="43.44991" lon="5.88627">
        <ele>304.39</ele>
        <time>2019-11-30T14:06:30Z</time>
      </trkpt>
      <trkpt lat="43.45008" lon="5.8852">
        <ele>302.47</ele>
        <time>2019-11-30T14:06:43Z</time>
      </trkpt>
      <trkpt lat="43.45016" lon="5.88487">
        <ele>301.99</ele>
        <time>2019-11-30T14:06:47Z</time>
      </trkpt>
      <trkpt lat="43.45018" lon="5.88479">
        <ele>301.99</ele>
        <time>2019-11-30T14:06:48Z</time>
      </trkpt>
      <trkpt lat="43.45021" lon="5.88472">
        <ele>301.99</ele>
        <time>2019-11-30T14:06:49Z</time>
      </trkpt>
      <trkpt lat="43.45025" lon="5.88465">
        <ele>301.99</ele>
        <time>2019-11-30T14:06:50Z</time>
      </trkpt>
      <trkpt lat="43.45029" lon="5.88459">
        <ele>301.99</ele>
        <time>2019-11-30T14:06:51Z</time>
      </trkpt>
      <trkpt lat="43.45033" lon="5.88453">
        <ele>301.51</ele>
        <time>2019-11-30T14:06:52Z</time>
      </trkpt>
      <trkpt lat="43.45083" lon="5.8837">
        <ele>301.03</ele>
        <time>2019-11-30T14:07:06Z</time>
      </trkpt>
      <trkpt lat="43.45121" lon="5.88268">
        <ele>301.03</ele>
        <time>2019-11-30T14:07:22Z</time>
      </trkpt>
      <trkpt lat="43.45129" lon="5.88238">
        <ele>301.99</ele>
        <time>2019-11-30T14:07:27Z</time>
      </trkpt>
      <trkpt lat="43.45133" lon="5.88213">
        <ele>301.99</ele>
        <time>2019-11-30T14:07:31Z</time>
      </trkpt>
      <trkpt lat="43.45134" lon="5.88206">
        <ele>301.99</ele>
        <time>2019-11-30T14:07:32Z</time>
      </trkpt>
      <trkpt lat="43.45128" lon="5.88121">
        <ele>300.55</ele>
        <time>2019-11-30T14:07:43Z</time>
      </trkpt>
      <trkpt lat="43.45126" lon="5.88113">
        <ele>300.55</ele>
        <time>2019-11-30T14:07:44Z</time>
      </trkpt>
      <trkpt lat="43.45087" lon="5.87995">
        <ele>299.59</ele>
        <time>2019-11-30T14:08:00Z</time>
      </trkpt>
      <trkpt lat="43.45036" lon="5.87892">
        <ele>299.11</ele>
        <time>2019-11-30T14:08:17Z</time>
      </trkpt>
      <trkpt lat="43.45024" lon="5.87872">
        <ele>299.11</ele>
        <time>2019-11-30T14:08:21Z</time>
      </trkpt>
      <trkpt lat="43.4502" lon="5.87868">
        <ele>299.11</ele>
        <time>2019-11-30T14:08:22Z</time>
      </trkpt>
      <trkpt lat="43.45015" lon="5.87865">
        <ele>298.15</ele>
        <time>2019-11-30T14:08:23Z</time>
      </trkpt>
      <trkpt lat="43.4501" lon="5.87864">
        <ele>298.15</ele>
        <time>2019-11-30T14:08:24Z</time>
      </trkpt>
      <trkpt lat="43.45006" lon="5.87864">
        <ele>298.15</ele>
        <time>2019-11-30T14:08:25Z</time>
      </trkpt>
      <trkpt lat="43.45002" lon="5.87865">
        <ele>298.15</ele>
        <time>2019-11-30T14:08:26Z</time>
      </trkpt>
      <trkpt lat="43.44997" lon="5.87866">
        <ele>298.15</ele>
        <time>2019-11-30T14:08:27Z</time>
      </trkpt>
      <trkpt lat="43.44988" lon="5.87867">
        <ele>298.15</ele>
        <time>2019-11-30T14:08:29Z</time>
      </trkpt>
      <trkpt lat="43.44983" lon="5.87866">
        <ele>298.15</ele>
        <time>2019-11-30T14:08:30Z</time>
      </trkpt>
      <trkpt lat="43.44979" lon="5.87864">
        <ele>298.15</ele>
        <time>2019-11-30T14:08:31Z</time>
      </trkpt>
      <trkpt lat="43.44975" lon="5.87861">
        <ele>298.15</ele>
        <time>2019-11-30T14:08:32Z</time>
      </trkpt>
      <trkpt lat="43.44971" lon="5.87857">
        <ele>298.15</ele>
        <time>2019-11-30T14:08:33Z</time>
      </trkpt>
      <trkpt lat="43.44967" lon="5.87853">
        <ele>298.15</ele>
        <time>2019-11-30T14:08:34Z</time>
      </trkpt>
      <trkpt lat="43.44964" lon="5.87849">
        <ele>298.15</ele>
        <time>2019-11-30T14:08:35Z</time>
      </trkpt>
      <trkpt lat="43.4496" lon="5.87844">
        <ele>298.15</ele>
        <time>2019-11-30T14:08:36Z</time>
      </trkpt>
      <trkpt lat="43.44937" lon="5.87814">
        <ele>298.15</ele>
        <time>2019-11-30T14:08:43Z</time>
      </trkpt>
      <trkpt lat="43.44935" lon="5.87809">
        <ele>298.15</ele>
        <time>2019-11-30T14:08:44Z</time>
      </trkpt>
      <trkpt lat="43.44934" lon="5.87803">
        <ele>298.15</ele>
        <time>2019-11-30T14:08:45Z</time>
      </trkpt>
      <trkpt lat="43.44932" lon="5.87769">
        <ele>298.15</ele>
        <time>2019-11-30T14:08:51Z</time>
      </trkpt>
      <trkpt lat="43.44931" lon="5.87762">
        <ele>298.15</ele>
        <time>2019-11-30T14:08:52Z</time>
      </trkpt>
      <trkpt lat="43.44929" lon="5.87756">
        <ele>298.15</ele>
        <time>2019-11-30T14:08:53Z</time>
      </trkpt>
      <trkpt lat="43.44926" lon="5.8775">
        <ele>298.15</ele>
        <time>2019-11-30T14:08:54Z</time>
      </trkpt>
      <trkpt lat="43.44923" lon="5.87745">
        <ele>298.15</ele>
        <time>2019-11-30T14:08:55Z</time>
      </trkpt>
      <trkpt lat="43.44886" lon="5.87677">
        <ele>298.15</ele>
        <time>2019-11-30T14:09:08Z</time>
      </trkpt>
      <trkpt lat="43.44868" lon="5.8764">
        <ele>299.59</ele>
        <time>2019-11-30T14:09:15Z</time>
      </trkpt>
      <trkpt lat="43.44865" lon="5.87637">
        <ele>299.59</ele>
        <time>2019-11-30T14:09:16Z</time>
      </trkpt>
      <trkpt lat="43.4486" lon="5.87634">
        <ele>299.59</ele>
        <time>2019-11-30T14:09:17Z</time>
      </trkpt>
      <trkpt lat="43.44831" lon="5.87626">
        <ele>299.11</ele>
        <time>2019-11-30T14:09:23Z</time>
      </trkpt>
      <trkpt lat="43.44827" lon="5.87624">
        <ele>299.11</ele>
        <time>2019-11-30T14:09:24Z</time>
      </trkpt>
      <trkpt lat="43.44823" lon="5.87621">
        <ele>299.11</ele>
        <time>2019-11-30T14:09:25Z</time>
      </trkpt>
      <trkpt lat="43.4482" lon="5.87616">
        <ele>299.11</ele>
        <time>2019-11-30T14:09:26Z</time>
      </trkpt>
      <trkpt lat="43.44818" lon="5.87611">
        <ele>300.07</ele>
        <time>2019-11-30T14:09:27Z</time>
      </trkpt>
      <trkpt lat="43.44816" lon="5.87606">
        <ele>300.07</ele>
        <time>2019-11-30T14:09:28Z</time>
      </trkpt>
      <trkpt lat="43.44815" lon="5.876">
        <ele>300.07</ele>
        <time>2019-11-30T14:09:29Z</time>
      </trkpt>
      <trkpt lat="43.44809" lon="5.87579">
        <ele>300.07</ele>
        <time>2019-11-30T14:09:33Z</time>
      </trkpt>
      <trkpt lat="43.44808" lon="5.87573">
        <ele>300.07</ele>
        <time>2019-11-30T14:09:34Z</time>
      </trkpt>
      <trkpt lat="43.44807" lon="5.87566">
        <ele>299.59</ele>
        <time>2019-11-30T14:09:35Z</time>
      </trkpt>
      <trkpt lat="43.44801" lon="5.87534">
        <ele>300.07</ele>
        <time>2019-11-30T14:09:39Z</time>
      </trkpt>
      <trkpt lat="43.44799" lon="5.87527">
        <ele>300.07</ele>
        <time>2019-11-30T14:09:40Z</time>
      </trkpt>
      <trkpt lat="43.44795" lon="5.8752">
        <ele>300.07</ele>
        <time>2019-11-30T14:09:41Z</time>
      </trkpt>
      <trkpt lat="43.44791" lon="5.87513">
        <ele>300.07</ele>
        <time>2019-11-30T14:09:42Z</time>
      </trkpt>
      <trkpt lat="43.44788" lon="5.87508">
        <ele>300.07</ele>
        <time>2019-11-30T14:09:43Z</time>
      </trkpt>
      <trkpt lat="43.44783" lon="5.87501">
        <ele>300.07</ele>
        <time>2019-11-30T14:09:44Z</time>
      </trkpt>
      <trkpt lat="43.44764" lon="5.87472">
        <ele>300.07</ele>
        <time>2019-11-30T14:09:49Z</time>
      </trkpt>
      <trkpt lat="43.44762" lon="5.87462">
        <ele>300.07</ele>
        <time>2019-11-30T14:09:50Z</time>
      </trkpt>
      <trkpt lat="43.44763" lon="5.87454">
        <ele>300.07</ele>
        <time>2019-11-30T14:09:52Z</time>
      </trkpt>
      <trkpt lat="43.44768" lon="5.87445">
        <ele>300.07</ele>
        <time>2019-11-30T14:09:53Z</time>
      </trkpt>
      <trkpt lat="43.4477" lon="5.8744">
        <ele>300.07</ele>
        <time>2019-11-30T14:09:54Z</time>
      </trkpt>
      <trkpt lat="43.44805" lon="5.87364">
        <ele>301.03</ele>
        <time>2019-11-30T14:10:07Z</time>
      </trkpt>
      <trkpt lat="43.44815" lon="5.87344">
        <ele>301.51</ele>
        <time>2019-11-30T14:10:10Z</time>
      </trkpt>
      <trkpt lat="43.44819" lon="5.87339">
        <ele>301.51</ele>
        <time>2019-11-30T14:10:11Z</time>
      </trkpt>
      <trkpt lat="43.44823" lon="5.87336">
        <ele>301.51</ele>
        <time>2019-11-30T14:10:12Z</time>
      </trkpt>
      <trkpt lat="43.44828" lon="5.87333">
        <ele>301.51</ele>
        <time>2019-11-30T14:10:13Z</time>
      </trkpt>
      <trkpt lat="43.44834" lon="5.87331">
        <ele>301.99</ele>
        <time>2019-11-30T14:10:14Z</time>
      </trkpt>
      <trkpt lat="43.44838" lon="5.87331">
        <ele>301.99</ele>
        <time>2019-11-30T14:10:15Z</time>
      </trkpt>
      <trkpt lat="43.44843" lon="5.87329">
        <ele>302.95</ele>
        <time>2019-11-30T14:10:16Z</time>
      </trkpt>
      <trkpt lat="43.44848" lon="5.87327">
        <ele>303.43</ele>
        <time>2019-11-30T14:10:17Z</time>
      </trkpt>
      <trkpt lat="43.44852" lon="5.87324">
        <ele>303.43</ele>
        <time>2019-11-30T14:10:18Z</time>
      </trkpt>
      <trkpt lat="43.44857" lon="5.87321">
        <ele>303.91</ele>
        <time>2019-11-30T14:10:19Z</time>
      </trkpt>
      <trkpt lat="43.4486" lon="5.87317">
        <ele>304.88</ele>
        <time>2019-11-30T14:10:20Z</time>
      </trkpt>
      <trkpt lat="43.44864" lon="5.87313">
        <ele>304.88</ele>
        <time>2019-11-30T14:10:21Z</time>
      </trkpt>
      <trkpt lat="43.44867" lon="5.87308">
        <ele>304.88</ele>
        <time>2019-11-30T14:10:22Z</time>
      </trkpt>
      <trkpt lat="43.44896" lon="5.87252">
        <ele>306.32</ele>
        <time>2019-11-30T14:10:32Z</time>
      </trkpt>
      <trkpt lat="43.44898" lon="5.87245">
        <ele>305.84</ele>
        <time>2019-11-30T14:10:33Z</time>
      </trkpt>
      <trkpt lat="43.44907" lon="5.87152">
        <ele>305.84</ele>
        <time>2019-11-30T14:10:45Z</time>
      </trkpt>
      <trkpt lat="43.4491" lon="5.87122">
        <ele>305.84</ele>
        <time>2019-11-30T14:10:49Z</time>
      </trkpt>
      <trkpt lat="43.44911" lon="5.87101">
        <ele>305.84</ele>
        <time>2019-11-30T14:10:52Z</time>
      </trkpt>
      <trkpt lat="43.44913" lon="5.87094">
        <ele>305.84</ele>
        <time>2019-11-30T14:10:53Z</time>
      </trkpt>
      <trkpt lat="43.44916" lon="5.87088">
        <ele>305.84</ele>
        <time>2019-11-30T14:10:54Z</time>
      </trkpt>
      <trkpt lat="43.44921" lon="5.87082">
        <ele>305.84</ele>
        <time>2019-11-30T14:10:55Z</time>
      </trkpt>
      <trkpt lat="43.44925" lon="5.87078">
        <ele>305.84</ele>
        <time>2019-11-30T14:10:56Z</time>
      </trkpt>
      <trkpt lat="43.4493" lon="5.87074">
        <ele>305.84</ele>
        <time>2019-11-30T14:10:57Z</time>
      </trkpt>
      <trkpt lat="43.44979" lon="5.8704">
        <ele>306.8</ele>
        <time>2019-11-30T14:11:06Z</time>
      </trkpt>
      <trkpt lat="43.44982" lon="5.87035">
        <ele>307.76</ele>
        <time>2019-11-30T14:11:07Z</time>
      </trkpt>
      <trkpt lat="43.44984" lon="5.87028">
        <ele>307.76</ele>
        <time>2019-11-30T14:11:08Z</time>
      </trkpt>
      <trkpt lat="43.44984" lon="5.87021">
        <ele>308.24</ele>
        <time>2019-11-30T14:11:09Z</time>
      </trkpt>
      <trkpt lat="43.44983" lon="5.87014">
        <ele>308.24</ele>
        <time>2019-11-30T14:11:10Z</time>
      </trkpt>
      <trkpt lat="43.44982" lon="5.87007">
        <ele>308.72</ele>
        <time>2019-11-30T14:11:11Z</time>
      </trkpt>
      <trkpt lat="43.4498" lon="5.87">
        <ele>308.72</ele>
        <time>2019-11-30T14:11:12Z</time>
      </trkpt>
      <trkpt lat="43.44978" lon="5.86993">
        <ele>309.2</ele>
        <time>2019-11-30T14:11:13Z</time>
      </trkpt>
      <trkpt lat="43.4497" lon="5.86935">
        <ele>310.64</ele>
        <time>2019-11-30T14:11:22Z</time>
      </trkpt>
      <trkpt lat="43.44984" lon="5.86865">
        <ele>312.57</ele>
        <time>2019-11-30T14:11:32Z</time>
      </trkpt>
      <trkpt lat="43.44987" lon="5.86852">
        <ele>312.57</ele>
        <time>2019-11-30T14:11:34Z</time>
      </trkpt>
      <trkpt lat="43.44988" lon="5.86845">
        <ele>312.57</ele>
        <time>2019-11-30T14:11:35Z</time>
      </trkpt>
      <trkpt lat="43.44989" lon="5.86839">
        <ele>312.57</ele>
        <time>2019-11-30T14:11:36Z</time>
      </trkpt>
      <trkpt lat="43.44991" lon="5.86833">
        <ele>312.57</ele>
        <time>2019-11-30T14:11:37Z</time>
      </trkpt>
      <trkpt lat="43.44995" lon="5.86828">
        <ele>312.57</ele>
        <time>2019-11-30T14:11:38Z</time>
      </trkpt>
      <trkpt lat="43.45" lon="5.86822">
        <ele>312.57</ele>
        <time>2019-11-30T14:11:39Z</time>
      </trkpt>
      <trkpt lat="43.45013" lon="5.86807">
        <ele>311.12</ele>
        <time>2019-11-30T14:11:42Z</time>
      </trkpt>
      <trkpt lat="43.45033" lon="5.86786">
        <ele>310.64</ele>
        <time>2019-11-30T14:11:46Z</time>
      </trkpt>
      <trkpt lat="43.45038" lon="5.86782">
        <ele>310.64</ele>
        <time>2019-11-30T14:11:47Z</time>
      </trkpt>
      <trkpt lat="43.45043" lon="5.86776">
        <ele>310.64</ele>
        <time>2019-11-30T14:11:48Z</time>
      </trkpt>
      <trkpt lat="43.45102" lon="5.86695">
        <ele>309.2</ele>
        <time>2019-11-30T14:12:03Z</time>
      </trkpt>
      <trkpt lat="43.45134" lon="5.86638">
        <ele>309.2</ele>
        <time>2019-11-30T14:12:14Z</time>
      </trkpt>
      <trkpt lat="43.45139" lon="5.86589">
        <ele>308.72</ele>
        <time>2019-11-30T14:12:25Z</time>
      </trkpt>
      <trkpt lat="43.45137" lon="5.86586">
        <ele>308.72</ele>
        <time>2019-11-30T14:12:26Z</time>
      </trkpt>
      <trkpt lat="43.451" lon="5.8655">
        <ele>310.64</ele>
        <time>2019-11-30T14:12:39Z</time>
      </trkpt>
      <trkpt lat="43.45064" lon="5.86523">
        <ele>312.09</ele>
        <time>2019-11-30T14:12:51Z</time>
      </trkpt>
      <trkpt lat="43.45043" lon="5.865">
        <ele>312.57</ele>
        <time>2019-11-30T14:13:00Z</time>
      </trkpt>
      <trkpt lat="43.45005" lon="5.86439">
        <ele>314.01</ele>
        <time>2019-11-30T14:13:15Z</time>
      </trkpt>
      <trkpt lat="43.4498" lon="5.86394">
        <ele>314.97</ele>
        <time>2019-11-30T14:13:26Z</time>
      </trkpt>
      <trkpt lat="43.44932" lon="5.86353">
        <ele>315.45</ele>
        <time>2019-11-30T14:13:39Z</time>
      </trkpt>
      <trkpt lat="43.44897" lon="5.86329">
        <ele>316.89</ele>
        <time>2019-11-30T14:13:49Z</time>
      </trkpt>
      <trkpt lat="43.44869" lon="5.86291">
        <ele>317.37</ele>
        <time>2019-11-30T14:13:59Z</time>
      </trkpt>
      <trkpt lat="43.44867" lon="5.86287">
        <ele>317.37</ele>
        <time>2019-11-30T14:14:00Z</time>
      </trkpt>
      <trkpt lat="43.44863" lon="5.86287">
        <ele>317.85</ele>
        <time>2019-11-30T14:14:01Z</time>
      </trkpt>
      <trkpt lat="43.44861" lon="5.86287">
        <ele>317.85</ele>
        <time>2019-11-30T14:14:02Z</time>
      </trkpt>
      <trkpt lat="43.44859" lon="5.86289">
        <ele>317.85</ele>
        <time>2019-11-30T14:14:03Z</time>
      </trkpt>
      <trkpt lat="43.44856" lon="5.86291">
        <ele>317.85</ele>
        <time>2019-11-30T14:14:04Z</time>
      </trkpt>
      <trkpt lat="43.44826" lon="5.86334">
        <ele>318.33</ele>
        <time>2019-11-30T14:14:17Z</time>
      </trkpt>
      <trkpt lat="43.44801" lon="5.86368">
        <ele>319.3</ele>
        <time>2019-11-30T14:14:26Z</time>
      </trkpt>
      <trkpt lat="43.44799" lon="5.86373">
        <ele>319.3</ele>
        <time>2019-11-30T14:14:27Z</time>
      </trkpt>
      <trkpt lat="43.44795" lon="5.86378">
        <ele>319.78</ele>
        <time>2019-11-30T14:14:28Z</time>
      </trkpt>
      <trkpt lat="43.44786" lon="5.8639">
        <ele>319.78</ele>
        <time>2019-11-30T14:14:31Z</time>
      </trkpt>
      <trkpt lat="43.44743" lon="5.86423">
        <ele>321.7</ele>
        <time>2019-11-30T14:14:44Z</time>
      </trkpt>
      <trkpt lat="43.44713" lon="5.86441">
        <ele>325.06</ele>
        <time>2019-11-30T14:14:57Z</time>
      </trkpt>
      <trkpt lat="43.44688" lon="5.86455">
        <ele>327.47</ele>
        <time>2019-11-30T14:15:08Z</time>
      </trkpt>
      <trkpt lat="43.44668" lon="5.86457">
        <ele>328.43</ele>
        <time>2019-11-30T14:15:18Z</time>
      </trkpt>
      <trkpt lat="43.44644" lon="5.86455">
        <ele>328.91</ele>
        <time>2019-11-30T14:15:31Z</time>
      </trkpt>
      <trkpt lat="43.44629" lon="5.86456">
        <ele>328.91</ele>
        <time>2019-11-30T14:15:45Z</time>
      </trkpt>
      <trkpt lat="43.44611" lon="5.86454">
        <ele>329.87</ele>
        <time>2019-11-30T14:15:57Z</time>
      </trkpt>
      <trkpt lat="43.44593" lon="5.86448">
        <ele>330.35</ele>
        <time>2019-11-30T14:16:08Z</time>
      </trkpt>
      <trkpt lat="43.44591" lon="5.86449">
        <ele>330.35</ele>
        <time>2019-11-30T14:16:09Z</time>
      </trkpt>
      <trkpt lat="43.44589" lon="5.86451">
        <ele>330.83</ele>
        <time>2019-11-30T14:16:10Z</time>
      </trkpt>
      <trkpt lat="43.44587" lon="5.86452">
        <ele>330.83</ele>
        <time>2019-11-30T14:16:11Z</time>
      </trkpt>
      <trkpt lat="43.44584" lon="5.86452">
        <ele>330.83</ele>
        <time>2019-11-30T14:16:12Z</time>
      </trkpt>
      <trkpt lat="43.44582" lon="5.86452">
        <ele>330.83</ele>
        <time>2019-11-30T14:16:13Z</time>
      </trkpt>
      <trkpt lat="43.44579" lon="5.86452">
        <ele>331.31</ele>
        <time>2019-11-30T14:16:14Z</time>
      </trkpt>
      <trkpt lat="43.44554" lon="5.8643">
        <ele>331.31</ele>
        <time>2019-11-30T14:16:24Z</time>
      </trkpt>
      <trkpt lat="43.44552" lon="5.86428">
        <ele>331.79</ele>
        <time>2019-11-30T14:16:25Z</time>
      </trkpt>
      <trkpt lat="43.44546" lon="5.86393">
        <ele>332.27</ele>
        <time>2019-11-30T14:16:38Z</time>
      </trkpt>
      <trkpt lat="43.44543" lon="5.86372">
        <ele>332.27</ele>
        <time>2019-11-30T14:16:46Z</time>
      </trkpt>
      <trkpt lat="43.44542" lon="5.8637">
        <ele>332.75</ele>
        <time>2019-11-30T14:16:47Z</time>
      </trkpt>
      <trkpt lat="43.44534" lon="5.86365">
        <ele>332.75</ele>
        <time>2019-11-30T14:16:57Z</time>
      </trkpt>
      <trkpt lat="43.44519" lon="5.86359">
        <ele>332.75</ele>
        <time>2019-11-30T14:17:09Z</time>
      </trkpt>
      <trkpt lat="43.44509" lon="5.86353">
        <ele>333.23</ele>
        <time>2019-11-30T14:17:19Z</time>
      </trkpt>
      <trkpt lat="43.44507" lon="5.86352">
        <ele>333.23</ele>
        <time>2019-11-30T14:17:24Z</time>
      </trkpt>
      <trkpt lat="43.44507" lon="5.8635">
        <ele>333.71</ele>
        <time>2019-11-30T14:17:25Z</time>
      </trkpt>
      <trkpt lat="43.44506" lon="5.86348">
        <ele>333.71</ele>
        <time>2019-11-30T14:17:26Z</time>
      </trkpt>
      <trkpt lat="43.44506" lon="5.86345">
        <ele>333.71</ele>
        <time>2019-11-30T14:17:27Z</time>
      </trkpt>
      <trkpt lat="43.44505" lon="5.86342">
        <ele>333.71</ele>
        <time>2019-11-30T14:17:28Z</time>
      </trkpt>
      <trkpt lat="43.44505" lon="5.86339">
        <ele>333.71</ele>
        <time>2019-11-30T14:17:29Z</time>
      </trkpt>
      <trkpt lat="43.44499" lon="5.86297">
        <ele>333.71</ele>
        <time>2019-11-30T14:17:44Z</time>
      </trkpt>
      <trkpt lat="43.44497" lon="5.86287">
        <ele>333.71</ele>
        <time>2019-11-30T14:17:53Z</time>
      </trkpt>
      <trkpt lat="43.44495" lon="5.86281">
        <ele>334.2</ele>
        <time>2019-11-30T14:17:55Z</time>
      </trkpt>
      <trkpt lat="43.44493" lon="5.86279">
        <ele>334.2</ele>
        <time>2019-11-30T14:17:56Z</time>
      </trkpt>
      <trkpt lat="43.44492" lon="5.86277">
        <ele>334.2</ele>
        <time>2019-11-30T14:17:57Z</time>
      </trkpt>
      <trkpt lat="43.44491" lon="5.86274">
        <ele>334.68</ele>
        <time>2019-11-30T14:17:58Z</time>
      </trkpt>
      <trkpt lat="43.4449" lon="5.86271">
        <ele>334.68</ele>
        <time>2019-11-30T14:17:59Z</time>
      </trkpt>
      <trkpt lat="43.4449" lon="5.86269">
        <ele>334.68</ele>
        <time>2019-11-30T14:18:00Z</time>
      </trkpt>
      <trkpt lat="43.44489" lon="5.86266">
        <ele>334.68</ele>
        <time>2019-11-30T14:18:01Z</time>
      </trkpt>
      <trkpt lat="43.44488" lon="5.86263">
        <ele>334.68</ele>
        <time>2019-11-30T14:18:02Z</time>
      </trkpt>
      <trkpt lat="43.44479" lon="5.8621">
        <ele>335.16</ele>
        <time>2019-11-30T14:18:18Z</time>
      </trkpt>
      <trkpt lat="43.4448" lon="5.86178">
        <ele>333.23</ele>
        <time>2019-11-30T14:18:23Z</time>
      </trkpt>
      <trkpt lat="43.44481" lon="5.8617">
        <ele>333.23</ele>
        <time>2019-11-30T14:18:24Z</time>
      </trkpt>
      <trkpt lat="43.44484" lon="5.86143">
        <ele>331.79</ele>
        <time>2019-11-30T14:18:28Z</time>
      </trkpt>
      <trkpt lat="43.44487" lon="5.86106">
        <ele>330.35</ele>
        <time>2019-11-30T14:18:39Z</time>
      </trkpt>
      <trkpt lat="43.44487" lon="5.86102">
        <ele>327.47</ele>
        <time>2019-11-30T14:18:45Z</time>
      </trkpt>
      <trkpt lat="43.44487" lon="5.86103">
        <ele>331.79</ele>
        <time>2019-11-30T14:18:46Z</time>
      </trkpt>
      <trkpt lat="43.44489" lon="5.86098">
        <ele>330.35</ele>
        <time>2019-11-30T14:19:13Z</time>
      </trkpt>
      <trkpt lat="43.44489" lon="5.86097">
        <ele>329.87</ele>
        <time>2019-11-30T14:19:39Z</time>
      </trkpt>
      <trkpt lat="43.44487" lon="5.861">
        <ele>329.87</ele>
        <time>2019-11-30T14:19:58Z</time>
      </trkpt>
      <trkpt lat="43.44449" lon="5.86111">
        <ele>332.27</ele>
        <time>2019-11-30T14:20:10Z</time>
      </trkpt>
      <trkpt lat="43.44408" lon="5.86114">
        <ele>334.68</ele>
        <time>2019-11-30T14:20:24Z</time>
      </trkpt>
      <trkpt lat="43.44386" lon="5.86123">
        <ele>336.6</ele>
        <time>2019-11-30T14:20:37Z</time>
      </trkpt>
      <trkpt lat="43.44383" lon="5.86126">
        <ele>336.6</ele>
        <time>2019-11-30T14:20:40Z</time>
      </trkpt>
      <trkpt lat="43.44381" lon="5.86129">
        <ele>337.56</ele>
        <time>2019-11-30T14:20:46Z</time>
      </trkpt>
      <trkpt lat="43.4438" lon="5.86131">
        <ele>337.56</ele>
        <time>2019-11-30T14:20:47Z</time>
      </trkpt>
      <trkpt lat="43.44368" lon="5.86145">
        <ele>339</ele>
        <time>2019-11-30T14:20:53Z</time>
      </trkpt>
      <trkpt lat="43.44337" lon="5.86169">
        <ele>339.96</ele>
        <time>2019-11-30T14:21:06Z</time>
      </trkpt>
      <trkpt lat="43.44297" lon="5.86196">
        <ele>341.41</ele>
        <time>2019-11-30T14:21:22Z</time>
      </trkpt>
      <trkpt lat="43.44229" lon="5.86224">
        <ele>341.89</ele>
        <time>2019-11-30T14:21:41Z</time>
      </trkpt>
      <trkpt lat="43.44186" lon="5.86242">
        <ele>341.89</ele>
        <time>2019-11-30T14:21:52Z</time>
      </trkpt>
      <trkpt lat="43.44114" lon="5.86268">
        <ele>343.33</ele>
        <time>2019-11-30T14:22:09Z</time>
      </trkpt>
      <trkpt lat="43.44051" lon="5.86288">
        <ele>344.29</ele>
        <time>2019-11-30T14:22:25Z</time>
      </trkpt>
      <trkpt lat="43.44048" lon="5.86284">
        <ele>344.77</ele>
        <time>2019-11-30T14:22:26Z</time>
      </trkpt>
      <trkpt lat="43.44046" lon="5.86278">
        <ele>345.73</ele>
        <time>2019-11-30T14:22:27Z</time>
      </trkpt>
      <trkpt lat="43.44045" lon="5.86275">
        <ele>345.73</ele>
        <time>2019-11-30T14:22:28Z</time>
      </trkpt>
      <trkpt lat="43.44044" lon="5.8627">
        <ele>346.69</ele>
        <time>2019-11-30T14:22:29Z</time>
      </trkpt>
      <trkpt lat="43.44044" lon="5.86266">
        <ele>346.69</ele>
        <time>2019-11-30T14:22:30Z</time>
      </trkpt>
      <trkpt lat="43.44041" lon="5.86246">
        <ele>348.13</ele>
        <time>2019-11-30T14:22:35Z</time>
      </trkpt>
      <trkpt lat="43.44041" lon="5.86242">
        <ele>348.13</ele>
        <time>2019-11-30T14:22:36Z</time>
      </trkpt>
      <trkpt lat="43.44041" lon="5.86238">
        <ele>348.62</ele>
        <time>2019-11-30T14:22:37Z</time>
      </trkpt>
      <trkpt lat="43.4404" lon="5.86234">
        <ele>348.62</ele>
        <time>2019-11-30T14:22:38Z</time>
      </trkpt>
      <trkpt lat="43.4404" lon="5.8623">
        <ele>349.1</ele>
        <time>2019-11-30T14:22:39Z</time>
      </trkpt>
      <trkpt lat="43.44039" lon="5.86225">
        <ele>349.1</ele>
        <time>2019-11-30T14:22:40Z</time>
      </trkpt>
      <trkpt lat="43.44038" lon="5.86221">
        <ele>350.06</ele>
        <time>2019-11-30T14:22:41Z</time>
      </trkpt>
      <trkpt lat="43.44032" lon="5.8617">
        <ele>351.98</ele>
        <time>2019-11-30T14:22:55Z</time>
      </trkpt>
      <trkpt lat="43.44031" lon="5.86168">
        <ele>351.98</ele>
        <time>2019-11-30T14:22:56Z</time>
      </trkpt>
      <trkpt lat="43.44029" lon="5.86167">
        <ele>351.98</ele>
        <time>2019-11-30T14:22:57Z</time>
      </trkpt>
      <trkpt lat="43.44027" lon="5.86167">
        <ele>351.98</ele>
        <time>2019-11-30T14:22:58Z</time>
      </trkpt>
      <trkpt lat="43.44024" lon="5.86166">
        <ele>351.98</ele>
        <time>2019-11-30T14:22:59Z</time>
      </trkpt>
      <trkpt lat="43.44022" lon="5.86166">
        <ele>351.98</ele>
        <time>2019-11-30T14:23:00Z</time>
      </trkpt>
      <trkpt lat="43.43999" lon="5.86155">
        <ele>352.94</ele>
        <time>2019-11-30T14:23:09Z</time>
      </trkpt>
      <trkpt lat="43.43983" lon="5.86137">
        <ele>354.86</ele>
        <time>2019-11-30T14:23:21Z</time>
      </trkpt>
      <trkpt lat="43.43982" lon="5.86126">
        <ele>355.34</ele>
        <time>2019-11-30T14:23:24Z</time>
      </trkpt>
      <trkpt lat="43.4398" lon="5.86124">
        <ele>355.34</ele>
        <time>2019-11-30T14:23:25Z</time>
      </trkpt>
      <trkpt lat="43.43979" lon="5.86121">
        <ele>355.34</ele>
        <time>2019-11-30T14:23:26Z</time>
      </trkpt>
      <trkpt lat="43.43978" lon="5.86119">
        <ele>355.83</ele>
        <time>2019-11-30T14:23:27Z</time>
      </trkpt>
      <trkpt lat="43.43977" lon="5.86116">
        <ele>355.83</ele>
        <time>2019-11-30T14:23:28Z</time>
      </trkpt>
      <trkpt lat="43.43975" lon="5.8611">
        <ele>355.83</ele>
        <time>2019-11-30T14:23:30Z</time>
      </trkpt>
      <trkpt lat="43.43975" lon="5.86107">
        <ele>355.83</ele>
        <time>2019-11-30T14:23:31Z</time>
      </trkpt>
      <trkpt lat="43.43977" lon="5.86095">
        <ele>356.79</ele>
        <time>2019-11-30T14:23:40Z</time>
      </trkpt>
      <trkpt lat="43.43976" lon="5.86074">
        <ele>357.75</ele>
        <time>2019-11-30T14:23:49Z</time>
      </trkpt>
      <trkpt lat="43.43984" lon="5.86031">
        <ele>358.23</ele>
        <time>2019-11-30T14:24:17Z</time>
      </trkpt>
      <trkpt lat="43.43982" lon="5.86031">
        <ele>358.23</ele>
        <time>2019-11-30T14:24:49Z</time>
      </trkpt>
      <trkpt lat="43.43983" lon="5.86029">
        <ele>358.23</ele>
        <time>2019-11-30T14:25:23Z</time>
      </trkpt>
      <trkpt lat="43.43983" lon="5.8603">
        <ele>358.23</ele>
        <time>2019-11-30T14:25:54Z</time>
      </trkpt>
      <trkpt lat="43.43982" lon="5.8603">
        <ele>358.23</ele>
        <time>2019-11-30T14:26:01Z</time>
      </trkpt>
      <trkpt lat="43.4398" lon="5.86031">
        <ele>358.71</ele>
        <time>2019-11-30T14:26:15Z</time>
      </trkpt>
      <trkpt lat="43.43978" lon="5.8603">
        <ele>358.71</ele>
        <time>2019-11-30T14:26:45Z</time>
      </trkpt>
      <trkpt lat="43.43978" lon="5.86036">
        <ele>358.23</ele>
        <time>2019-11-30T14:27:27Z</time>
      </trkpt>
      <trkpt lat="43.43978" lon="5.8603">
        <ele>358.23</ele>
        <time>2019-11-30T14:28:03Z</time>
      </trkpt>
      <trkpt lat="43.43975" lon="5.86026">
        <ele>358.23</ele>
        <time>2019-11-30T14:28:39Z</time>
      </trkpt>
      <trkpt lat="43.43974" lon="5.86029">
        <ele>358.23</ele>
        <time>2019-11-30T14:29:12Z</time>
      </trkpt>
      <trkpt lat="43.43975" lon="5.86023">
        <ele>358.23</ele>
        <time>2019-11-30T14:29:28Z</time>
      </trkpt>
      <trkpt lat="43.43972" lon="5.86023">
        <ele>358.23</ele>
        <time>2019-11-30T14:30:05Z</time>
      </trkpt>
      <trkpt lat="43.43972" lon="5.86022">
        <ele>357.75</ele>
        <time>2019-11-30T14:30:37Z</time>
      </trkpt>
      <trkpt lat="43.43971" lon="5.86021">
        <ele>357.75</ele>
        <time>2019-11-30T14:30:59Z</time>
      </trkpt>
      <trkpt lat="43.43976" lon="5.86026">
        <ele>357.75</ele>
        <time>2019-11-30T14:31:25Z</time>
      </trkpt>
      <trkpt lat="43.43978" lon="5.86029">
        <ele>357.75</ele>
        <time>2019-11-30T14:32:04Z</time>
      </trkpt>
      <trkpt lat="43.43976" lon="5.8603">
        <ele>357.75</ele>
        <time>2019-11-30T14:32:27Z</time>
      </trkpt>
      <trkpt lat="43.43976" lon="5.86027">
        <ele>357.75</ele>
        <time>2019-11-30T14:32:51Z</time>
      </trkpt>
      <trkpt lat="43.43971" lon="5.86027">
        <ele>358.23</ele>
        <time>2019-11-30T14:33:13Z</time>
      </trkpt>
      <trkpt lat="43.43971" lon="5.86028">
        <ele>358.23</ele>
        <time>2019-11-30T14:33:40Z</time>
      </trkpt>
      <trkpt lat="43.43975" lon="5.86026">
        <ele>358.23</ele>
        <time>2019-11-30T14:33:59Z</time>
      </trkpt>
      <trkpt lat="43.43981" lon="5.86034">
        <ele>358.23</ele>
        <time>2019-11-30T14:34:21Z</time>
      </trkpt>
      <trkpt lat="43.43984" lon="5.86036">
        <ele>358.23</ele>
        <time>2019-11-30T14:34:37Z</time>
      </trkpt>
      <trkpt lat="43.43984" lon="5.86036">
        <ele>358.23</ele>
        <time>2019-11-30T14:34:42Z</time>
      </trkpt>
    </trkseg>
  </trk>
</gpx>